<?xml version='1.0' encoding='UTF-8'?><gpx version="1.1" creator="JPX - https://github.com/jenetics/jpx" xmlns="http://www.topografix.com/GPX/1/1"><trk><trkseg><trkpt lat="48.902181339435025" lon="4.397355222665739"><ele>84.0</ele><time>2026-05-01T12:15:17.001Z</time></trkpt><trkpt lat="48.9022354471543" lon="4.39730272363201"><ele>84.0</ele><time>2026-05-01T12:15:27Z</time></trkpt><trkpt lat="48.90234450333722" lon="4.397232490713922"><ele>84.0</ele><time>2026-05-01T12:15:30Z</time></trkpt><trkpt lat="48.90244846153354" lon="4.397103196584383"><ele>84.0</ele><time>2026-05-01T12:15:32Z</time></trkpt><trkpt lat="48.9025249719015" lon="4.397021616491195"><ele>84.0</ele><time>2026-05-01T12:15:34Z</time></trkpt><trkpt lat="48.902612128484" lon="4.396856860792154"><ele>84.4</ele><time>2026-05-01T12:15:35.999Z</time></trkpt><trkpt lat="48.90268522819907" lon="4.396755896299366"><ele>84.80000000000001</ele><time>2026-05-01T12:15:36.999Z</time></trkpt><trkpt lat="48.90275335862253" lon="4.396668212050103"><ele>85.19999999999999</ele><time>2026-05-01T12:15:37.999Z</time></trkpt><trkpt lat="48.90283936090912" lon="4.396539991717294"><ele>85.6</ele><time>2026-05-01T12:15:38.999Z</time></trkpt><trkpt lat="48.902939397471435" lon="4.396404366778955"><ele>86.0</ele><time>2026-05-01T12:15:39.999Z</time></trkpt><trkpt lat="48.903011734792535" lon="4.39631845029579"><ele>86.83333333333334</ele><time>2026-05-01T12:15:40.999Z</time></trkpt><trkpt lat="48.90306932009499" lon="4.396258989162035"><ele>87.66666666666667</ele><time>2026-05-01T12:15:41.999Z</time></trkpt><trkpt lat="48.903124097440674" lon="4.396190034028786"><ele>88.5</ele><time>2026-05-01T12:15:42.999Z</time></trkpt><trkpt lat="48.903185272557614" lon="4.396108039798927"><ele>89.33333333333333</ele><time>2026-05-01T12:15:43.999Z</time></trkpt><trkpt lat="48.90324436005372" lon="4.396042909692902"><ele>90.16666666666666</ele><time>2026-05-01T12:15:44.999Z</time></trkpt><trkpt lat="48.90331609239041" lon="4.395956846238243"><ele>91.0</ele><time>2026-05-01T12:15:45.999Z</time></trkpt><trkpt lat="48.90338370308912" lon="4.39585550397191"><ele>90.83333333333333</ele><time>2026-05-01T12:15:46.999Z</time></trkpt><trkpt lat="48.903462678555" lon="4.3957526417135115"><ele>90.66666666666666</ele><time>2026-05-01T12:15:47.999Z</time></trkpt><trkpt lat="48.9035370105047" lon="4.395677893546809"><ele>90.5</ele><time>2026-05-01T12:15:48.999Z</time></trkpt><trkpt lat="48.90359284706989" lon="4.395599157328101"><ele>90.33333333333333</ele><time>2026-05-01T12:15:49.999Z</time></trkpt><trkpt lat="48.9036492733134" lon="4.395536967897504"><ele>90.16666666666667</ele><time>2026-05-01T12:15:50.999Z</time></trkpt><trkpt lat="48.90371873689785" lon="4.395463453742193"><ele>90.0</ele><time>2026-05-01T12:15:51.999Z</time></trkpt><trkpt lat="48.90378962280504" lon="4.395383257478602"><ele>90.0</ele><time>2026-05-01T12:15:52.999Z</time></trkpt><trkpt lat="48.903863122847255" lon="4.395290199568253"><ele>90.0</ele><time>2026-05-01T12:15:53.999Z</time></trkpt><trkpt lat="48.90393751807297" lon="4.395179707627147"><ele>90.0</ele><time>2026-05-01T12:15:54.999Z</time></trkpt><trkpt lat="48.90397680307681" lon="4.395082713324266"><ele>90.0</ele><time>2026-05-01T12:15:55.999Z</time></trkpt><trkpt lat="48.904032861504376" lon="4.3948976252724234"><ele>90.0</ele><time>2026-05-01T12:15:57.999Z</time></trkpt><trkpt lat="48.90405577278123" lon="4.394793061871134"><ele>90.0</ele><time>2026-05-01T12:15:58.999Z</time></trkpt><trkpt lat="48.90406559467893" lon="4.394675962372647"><ele>90.0</ele><time>2026-05-01T12:15:59.999Z</time></trkpt><trkpt lat="48.904108514140994" lon="4.3945706242770015"><ele>90.0</ele><time>2026-05-01T12:16:00.999Z</time></trkpt><trkpt lat="48.90413338119271" lon="4.394442605304931"><ele>90.0</ele><time>2026-05-01T12:16:01.999Z</time></trkpt><trkpt lat="48.90416992911643" lon="4.394324169037681"><ele>90.0</ele><time>2026-05-01T12:16:02.999Z</time></trkpt><trkpt lat="48.904209441640596" lon="4.394198131885631"><ele>90.0</ele><time>2026-05-01T12:16:03.999Z</time></trkpt><trkpt lat="48.904262662604054" lon="4.394088679074714"><ele>89.2</ele><time>2026-05-01T12:16:04.999Z</time></trkpt><trkpt lat="48.90428584670782" lon="4.393978232218888"><ele>88.4</ele><time>2026-05-01T12:16:05.999Z</time></trkpt><trkpt lat="48.904321455804045" lon="4.393873349936804"><ele>87.6</ele><time>2026-05-01T12:16:06.999Z</time></trkpt><trkpt lat="48.904366455419115" lon="4.393774795781"><ele>86.8</ele><time>2026-05-01T12:16:07.999Z</time></trkpt><trkpt lat="48.90442556086286" lon="4.393606028052562"><ele>86.0</ele><time>2026-05-01T12:16:09.998Z</time></trkpt><trkpt lat="48.9045006095423" lon="4.393501873509204"><ele>88.6</ele><time>2026-05-01T12:16:11.998Z</time></trkpt><trkpt lat="48.90461119143602" lon="4.393490791293449"><ele>91.19999999999999</ele><time>2026-05-01T12:16:13.998Z</time></trkpt><trkpt lat="48.90474082886922" lon="4.393420495088791"><ele>93.80000000000001</ele><time>2026-05-01T12:16:15.998Z</time></trkpt><trkpt lat="48.904798509726355" lon="4.3933753288664485"><ele>96.4</ele><time>2026-05-01T12:16:17.998Z</time></trkpt><trkpt lat="48.90487518898399" lon="4.393304110316854"><ele>99.0</ele><time>2026-05-01T12:16:19.998Z</time></trkpt><trkpt lat="48.90498052187442" lon="4.393174893474783"><ele>99.0</ele><time>2026-05-01T12:16:21.998Z</time></trkpt><trkpt lat="48.90504555335241" lon="4.393101201663247"><ele>99.0</ele><time>2026-05-01T12:16:22.998Z</time></trkpt><trkpt lat="48.90512703115337" lon="4.393017600595892"><ele>99.0</ele><time>2026-05-01T12:16:23.998Z</time></trkpt><trkpt lat="48.905200723596224" lon="4.39294016332059"><ele>99.0</ele><time>2026-05-01T12:16:24.998Z</time></trkpt><trkpt lat="48.9052749014524" lon="4.392864333004524"><ele>99.0</ele><time>2026-05-01T12:16:25.998Z</time></trkpt><trkpt lat="48.9053483445324" lon="4.392793994527309"><ele>99.0</ele><time>2026-05-01T12:16:26.998Z</time></trkpt><trkpt lat="48.90541836542166" lon="4.392736847513591"><ele>98.33333333333333</ele><time>2026-05-01T12:16:27.998Z</time></trkpt><trkpt lat="48.90549332771639" lon="4.392680765547426"><ele>97.66666666666667</ele><time>2026-05-01T12:16:28.998Z</time></trkpt><trkpt lat="48.90555098207174" lon="4.392617203535131"><ele>97.0</ele><time>2026-05-01T12:16:29.998Z</time></trkpt><trkpt lat="48.90561528288681" lon="4.392547385805626"><ele>96.33333333333334</ele><time>2026-05-01T12:16:30.998Z</time></trkpt><trkpt lat="48.90567955562633" lon="4.392469733515913"><ele>95.66666666666667</ele><time>2026-05-01T12:16:31.998Z</time></trkpt><trkpt lat="48.90572628850768" lon="4.392386102071474"><ele>95.0</ele><time>2026-05-01T12:16:32.998Z</time></trkpt><trkpt lat="48.905767758335315" lon="4.392309157393034"><ele>95.0</ele><time>2026-05-01T12:16:33.998Z</time></trkpt><trkpt lat="48.9058012570149" lon="4.392195618360981"><ele>95.0</ele><time>2026-05-01T12:16:34.998Z</time></trkpt><trkpt lat="48.905840374255796" lon="4.392094489397413"><ele>95.0</ele><time>2026-05-01T12:16:35.998Z</time></trkpt><trkpt lat="48.905881497008615" lon="4.391993413354279"><ele>95.0</ele><time>2026-05-01T12:16:36.998Z</time></trkpt><trkpt lat="48.90591851994357" lon="4.391903353721805"><ele>95.0</ele><time>2026-05-01T12:16:37.998Z</time></trkpt><trkpt lat="48.90595996138096" lon="4.391810591761004"><ele>95.0</ele><time>2026-05-01T12:16:38.998Z</time></trkpt><trkpt lat="48.90600845169477" lon="4.391706266485922"><ele>95.0</ele><time>2026-05-01T12:16:39.998Z</time></trkpt><trkpt lat="48.90604331972518" lon="4.391586329332482"><ele>95.0</ele><time>2026-05-01T12:16:40.998Z</time></trkpt><trkpt lat="48.90608121025775" lon="4.3914531050626655"><ele>95.0</ele><time>2026-05-01T12:16:41.998Z</time></trkpt><trkpt lat="48.90611589315757" lon="4.3913290469225235"><ele>95.0</ele><time>2026-05-01T12:16:42.998Z</time></trkpt><trkpt lat="48.90615161493829" lon="4.391207952897108"><ele>95.0</ele><time>2026-05-01T12:16:43.998Z</time></trkpt><trkpt lat="48.906183164289274" lon="4.391111493371476"><ele>95.0</ele><time>2026-05-01T12:16:44.998Z</time></trkpt><trkpt lat="48.90624482645159" lon="4.390944051031059"><ele>95.0</ele><time>2026-05-01T12:16:46.998Z</time></trkpt><trkpt lat="48.90629211126507" lon="4.390815089803097"><ele>95.0</ele><time>2026-05-01T12:16:47.998Z</time></trkpt><trkpt lat="48.90632715053536" lon="4.390717222539151"><ele>95.0</ele><time>2026-05-01T12:16:48.998Z</time></trkpt><trkpt lat="48.9063686224564" lon="4.3906022761453665"><ele>95.0</ele><time>2026-05-01T12:16:49.998Z</time></trkpt><trkpt lat="48.90640504174249" lon="4.390497794455816"><ele>95.0</ele><time>2026-05-01T12:16:50.998Z</time></trkpt><trkpt lat="48.90644254995537" lon="4.390379845089053"><ele>95.0</ele><time>2026-05-01T12:16:51.998Z</time></trkpt><trkpt lat="48.906468983276945" lon="4.390264291332089"><ele>96.0</ele><time>2026-05-01T12:16:52.998Z</time></trkpt><trkpt lat="48.906513486074566" lon="4.390147659555129"><ele>97.0</ele><time>2026-05-01T12:16:53.997Z</time></trkpt><trkpt lat="48.90653443953506" lon="4.39004952165366"><ele>98.0</ele><time>2026-05-01T12:16:54.997Z</time></trkpt><trkpt lat="48.90655210154816" lon="4.389884146566046"><ele>99.0</ele><time>2026-05-01T12:16:57Z</time></trkpt><trkpt lat="48.90660010139748" lon="4.389662218498636"><ele>100.0</ele><time>2026-05-01T12:16:59Z</time></trkpt><trkpt lat="48.90661787446938" lon="4.389565539274495"><ele>100.16666666666667</ele><time>2026-05-01T12:17:00Z</time></trkpt><trkpt lat="48.906642970430276" lon="4.38945382344625"><ele>100.33333333333334</ele><time>2026-05-01T12:17:01Z</time></trkpt><trkpt lat="48.9066697975473" lon="4.389258886763894"><ele>100.5</ele><time>2026-05-01T12:17:03Z</time></trkpt><trkpt lat="48.90670215639021" lon="4.389148870323005"><ele>100.66666666666666</ele><time>2026-05-01T12:17:04Z</time></trkpt><trkpt lat="48.906731822020866" lon="4.389037424732324"><ele>100.83333333333333</ele><time>2026-05-01T12:17:05Z</time></trkpt><trkpt lat="48.90676023840584" lon="4.388920862614483"><ele>101.0</ele><time>2026-05-01T12:17:06Z</time></trkpt><trkpt lat="48.906791785986286" lon="4.388785186134814"><ele>98.25</ele><time>2026-05-01T12:17:07Z</time></trkpt><trkpt lat="48.90684700814425" lon="4.388617704219211"><ele>95.5</ele><time>2026-05-01T12:17:08Z</time></trkpt><trkpt lat="48.90690677152485" lon="4.388428842497512"><ele>92.75</ele><time>2026-05-01T12:17:09Z</time></trkpt><trkpt lat="48.906965895933936" lon="4.388239817016095"><ele>90.0</ele><time>2026-05-01T12:17:10Z</time></trkpt><trkpt lat="48.90700962037278" lon="4.3881128130533185"><ele>90.83333333333333</ele><time>2026-05-01T12:17:11Z</time></trkpt><trkpt lat="48.907047380687246" lon="4.388000322217506"><ele>91.66666666666667</ele><time>2026-05-01T12:17:12Z</time></trkpt><trkpt lat="48.90708740036092" lon="4.3878806232802035"><ele>92.5</ele><time>2026-05-01T12:17:13Z</time></trkpt><trkpt lat="48.90711542192926" lon="4.3877900707245185"><ele>93.33333333333334</ele><time>2026-05-01T12:17:14Z</time></trkpt><trkpt lat="48.907166509538484" lon="4.387677185711161"><ele>94.16666666666667</ele><time>2026-05-01T12:17:16Z</time></trkpt><trkpt lat="48.90720041591287" lon="4.387586723917128"><ele>95.0</ele><time>2026-05-01T12:17:17Z</time></trkpt><trkpt lat="48.907237969634416" lon="4.387418225627911"><ele>95.0</ele><time>2026-05-01T12:17:19Z</time></trkpt><trkpt lat="48.90728574730744" lon="4.387296647660901"><ele>95.0</ele><time>2026-05-01T12:17:21Z</time></trkpt><trkpt lat="48.907323954212906" lon="4.387199081586111"><ele>95.0</ele><time>2026-05-01T12:17:22Z</time></trkpt><trkpt lat="48.90738644491267" lon="4.387010539025707"><ele>95.0</ele><time>2026-05-01T12:17:24Z</time></trkpt><trkpt lat="48.907451372618794" lon="4.3868311908153155"><ele>95.0</ele><time>2026-05-01T12:17:26Z</time></trkpt><trkpt lat="48.90748927436294" lon="4.386719532463649"><ele>95.71428571428572</ele><time>2026-05-01T12:17:27Z</time></trkpt><trkpt lat="48.90752856897695" lon="4.386622762169616"><ele>96.42857142857143</ele><time>2026-05-01T12:17:28Z</time></trkpt><trkpt lat="48.90757614637017" lon="4.38653045112998"><ele>97.14285714285714</ele><time>2026-05-01T12:17:28.999Z</time></trkpt><trkpt lat="48.90761302692141" lon="4.38643249444505"><ele>97.85714285714286</ele><time>2026-05-01T12:17:29.999Z</time></trkpt><trkpt lat="48.90765869856937" lon="4.386322567149537"><ele>98.57142857142857</ele><time>2026-05-01T12:17:30.999Z</time></trkpt><trkpt lat="48.90769956961136" lon="4.386243104710116"><ele>99.28571428571429</ele><time>2026-05-01T12:17:31.999Z</time></trkpt><trkpt lat="48.90774415710013" lon="4.386158192113692"><ele>100.0</ele><time>2026-05-01T12:17:32.999Z</time></trkpt><trkpt lat="48.907789452650356" lon="4.386062157417053"><ele>98.33333333333334</ele><time>2026-05-01T12:17:33.999Z</time></trkpt><trkpt lat="48.907851941025626" lon="4.385957902013832"><ele>96.66666666666667</ele><time>2026-05-01T12:17:35.999Z</time></trkpt><trkpt lat="48.90780845038857" lon="4.386029119711703"><ele>95.0</ele><time>2026-05-01T12:18:15.999Z</time></trkpt><trkpt lat="48.907865157337156" lon="4.386099306875034"><ele>93.33333333333334</ele><time>2026-05-01T12:18:38.998Z</time></trkpt><trkpt lat="48.90793229359918" lon="4.386029263976452"><ele>91.66666666666667</ele><time>2026-05-01T12:18:41.998Z</time></trkpt><trkpt lat="48.90798243418632" lon="4.38590827806877"><ele>90.0</ele><time>2026-05-01T12:18:45.998Z</time></trkpt><trkpt lat="48.9080636375219" lon="4.385820233985018"><ele>90.0</ele><time>2026-05-01T12:18:47.998Z</time></trkpt><trkpt lat="48.908128772742124" lon="4.385755496361757"><ele>90.0</ele><time>2026-05-01T12:18:48.998Z</time></trkpt><trkpt lat="48.90821079602584" lon="4.3856404053907925"><ele>90.0</ele><time>2026-05-01T12:18:50.998Z</time></trkpt><trkpt lat="48.90830753586962" lon="4.385486028331221"><ele>90.0</ele><time>2026-05-01T12:18:52.998Z</time></trkpt><trkpt lat="48.90838550074108" lon="4.38540401132454"><ele>90.0</ele><time>2026-05-01T12:18:54.998Z</time></trkpt><trkpt lat="48.90847234832542" lon="4.385317659420594"><ele>89.2</ele><time>2026-05-01T12:18:56.998Z</time></trkpt><trkpt lat="48.90855344286053" lon="4.385259870341674"><ele>88.4</ele><time>2026-05-01T12:18:58.998Z</time></trkpt><trkpt lat="48.90864058795997" lon="4.385207373470533"><ele>87.6</ele><time>2026-05-01T12:19:00.998Z</time></trkpt><trkpt lat="48.90874430230633" lon="4.385149637026213"><ele>86.8</ele><time>2026-05-01T12:19:03Z</time></trkpt><trkpt lat="48.908819829842386" lon="4.385038929134354"><ele>86.0</ele><time>2026-05-01T12:19:05Z</time></trkpt><trkpt lat="48.908906732779805" lon="4.38496374060516"><ele>86.0</ele><time>2026-05-01T12:19:07Z</time></trkpt><trkpt lat="48.90898962055348" lon="4.3849438987215645"><ele>86.0</ele><time>2026-05-01T12:19:09Z</time></trkpt><trkpt lat="48.909113358655596" lon="4.384945772422256"><ele>86.0</ele><time>2026-05-01T12:19:30Z</time></trkpt><trkpt lat="48.909155953705216" lon="4.385029066881112"><ele>86.0</ele><time>2026-05-01T12:19:35Z</time></trkpt><trkpt lat="48.90911914617175" lon="4.385108047976859"><ele>86.0</ele><time>2026-05-01T12:19:38Z</time></trkpt><trkpt lat="48.90898940458815" lon="4.385332369028907"><ele>86.0</ele><time>2026-05-01T12:19:52.999Z</time></trkpt><trkpt lat="48.90893497846479" lon="4.3854500528813105"><ele>86.0</ele><time>2026-05-01T12:19:54.999Z</time></trkpt><trkpt lat="48.908886713648386" lon="4.385552665376374"><ele>86.0</ele><time>2026-05-01T12:19:56.999Z</time></trkpt><trkpt lat="48.90885192967519" lon="4.385640235785428"><ele>86.0</ele><time>2026-05-01T12:19:58.999Z</time></trkpt><trkpt lat="48.90878225109971" lon="4.385668179792336"><ele>86.0</ele><time>2026-05-01T12:20:00.999Z</time></trkpt><trkpt lat="48.9086927160775" lon="4.385663329077306"><ele>86.0</ele><time>2026-05-01T12:20:02.999Z</time></trkpt><trkpt lat="48.908684676612204" lon="4.385780315046574"><ele>86.0</ele><time>2026-05-01T12:20:06.999Z</time></trkpt><trkpt lat="48.908779003399054" lon="4.385721967098679"><ele>86.0</ele><time>2026-05-01T12:20:11.999Z</time></trkpt><trkpt lat="48.90886573652553" lon="4.385532385660086"><ele>86.0</ele><time>2026-05-01T12:20:13.999Z</time></trkpt><trkpt lat="48.90889985189485" lon="4.385435124914884"><ele>86.0</ele><time>2026-05-01T12:20:14.999Z</time></trkpt><trkpt lat="48.908961404912255" lon="4.3852803975564525"><ele>86.0</ele><time>2026-05-01T12:20:16.999Z</time></trkpt><trkpt lat="48.90903624514341" lon="4.385141115131156"><ele>86.0</ele><time>2026-05-01T12:20:18.999Z</time></trkpt><trkpt lat="48.90910823543826" lon="4.385039936793802"><ele>86.0</ele><time>2026-05-01T12:20:20.999Z</time></trkpt><trkpt lat="48.909116290328" lon="4.384906366449331"><ele>86.0</ele><time>2026-05-01T12:20:23.999Z</time></trkpt><trkpt lat="48.909038444973746" lon="4.384845591819147"><ele>86.0</ele><time>2026-05-01T12:20:26.999Z</time></trkpt><trkpt lat="48.90895624998173" lon="4.384905536840753"><ele>86.0</ele><time>2026-05-01T12:20:28.999Z</time></trkpt><trkpt lat="48.908876315936666" lon="4.38490908863497"><ele>86.0</ele><time>2026-05-01T12:20:29.999Z</time></trkpt><trkpt lat="48.90881487519392" lon="4.384970430271506"><ele>86.0</ele><time>2026-05-01T12:20:30.999Z</time></trkpt><trkpt lat="48.90874980615393" lon="4.385034633921683"><ele>86.0</ele><time>2026-05-01T12:20:31.999Z</time></trkpt><trkpt lat="48.90869350320393" lon="4.385110647098629"><ele>86.0</ele><time>2026-05-01T12:20:32.999Z</time></trkpt><trkpt lat="48.90860935942571" lon="4.385187136793854"><ele>86.0</ele><time>2026-05-01T12:20:34.998Z</time></trkpt><trkpt lat="48.90849576753252" lon="4.38526783381296"><ele>86.0</ele><time>2026-05-01T12:20:36.998Z</time></trkpt><trkpt lat="48.90844181924647" lon="4.385321943681625"><ele>86.0</ele><time>2026-05-01T12:20:37.998Z</time></trkpt><trkpt lat="48.90838140756682" lon="4.385386402443897"><ele>86.66666666666667</ele><time>2026-05-01T12:20:38.998Z</time></trkpt><trkpt lat="48.908330053755236" lon="4.385443415421485"><ele>87.33333333333334</ele><time>2026-05-01T12:20:39.998Z</time></trkpt><trkpt lat="48.908280260489896" lon="4.385515882478241"><ele>88.0</ele><time>2026-05-01T12:20:40.998Z</time></trkpt><trkpt lat="48.908227722020015" lon="4.38560160180388"><ele>88.66666666666667</ele><time>2026-05-01T12:20:41.998Z</time></trkpt><trkpt lat="48.90816555664679" lon="4.38568944468501"><ele>89.33333333333333</ele><time>2026-05-01T12:20:42.998Z</time></trkpt><trkpt lat="48.90809351384036" lon="4.385771111277406"><ele>90.0</ele><time>2026-05-01T12:20:43.998Z</time></trkpt><trkpt lat="48.908013992653565" lon="4.385860680448884"><ele>90.0</ele><time>2026-05-01T12:20:45.998Z</time></trkpt><trkpt lat="48.9079295114342" lon="4.3859698219162375"><ele>90.0</ele><time>2026-05-01T12:20:47.998Z</time></trkpt><trkpt lat="48.907862864066736" lon="4.386074657794496"><ele>90.0</ele><time>2026-05-01T12:20:49.998Z</time></trkpt><trkpt lat="48.90785127414544" lon="4.385960251329593"><ele>90.0</ele><time>2026-05-01T12:21:27Z</time></trkpt><trkpt lat="48.90790787497559" lon="4.385848971647986"><ele>90.0</ele><time>2026-05-01T12:21:30Z</time></trkpt><trkpt lat="48.907982207143185" lon="4.385728726527651"><ele>90.0</ele><time>2026-05-01T12:21:32Z</time></trkpt><trkpt lat="48.90803256161658" lon="4.3856518659207735"><ele>90.0</ele><time>2026-05-01T12:21:33Z</time></trkpt><trkpt lat="48.90809655029105" lon="4.385554805372083"><ele>90.0</ele><time>2026-05-01T12:21:34Z</time></trkpt><trkpt lat="48.908152186197604" lon="4.385480696327391"><ele>90.0</ele><time>2026-05-01T12:21:35Z</time></trkpt><trkpt lat="48.90819333191891" lon="4.385397199434106"><ele>90.0</ele><time>2026-05-01T12:21:36Z</time></trkpt><trkpt lat="48.90823531276732" lon="4.385319836233271"><ele>90.0</ele><time>2026-05-01T12:21:37Z</time></trkpt><trkpt lat="48.90832116290754" lon="4.385164591565798"><ele>89.33333333333333</ele><time>2026-05-01T12:21:39Z</time></trkpt><trkpt lat="48.90836902460577" lon="4.3850723558662414"><ele>88.66666666666667</ele><time>2026-05-01T12:21:40Z</time></trkpt><trkpt lat="48.90841528846593" lon="4.384987905804247"><ele>88.0</ele><time>2026-05-01T12:21:41Z</time></trkpt><trkpt lat="48.90849341954155" lon="4.384860952468307"><ele>87.33333333333334</ele><time>2026-05-01T12:21:43Z</time></trkpt><trkpt lat="48.908544581938514" lon="4.384786445442032"><ele>86.66666666666667</ele><time>2026-05-01T12:21:44Z</time></trkpt><trkpt lat="48.90862570605843" lon="4.3846713956035925"><ele>86.0</ele><time>2026-05-01T12:21:46Z</time></trkpt><trkpt lat="48.908704517188255" lon="4.384570673467699"><ele>87.33333333333334</ele><time>2026-05-01T12:21:48Z</time></trkpt><trkpt lat="48.90877093008006" lon="4.384501313271334"><ele>88.66666666666667</ele><time>2026-05-01T12:21:48.999Z</time></trkpt><trkpt lat="48.9088278530566" lon="4.384443875286818"><ele>90.0</ele><time>2026-05-01T12:21:49.999Z</time></trkpt><trkpt lat="48.90889242461563" lon="4.38438787559036"><ele>91.33333333333333</ele><time>2026-05-01T12:21:50.999Z</time></trkpt><trkpt lat="48.90895621669043" lon="4.384329459277108"><ele>92.66666666666666</ele><time>2026-05-01T12:21:51.999Z</time></trkpt><trkpt lat="48.90902987967349" lon="4.384262353181188"><ele>94.0</ele><time>2026-05-01T12:21:52.999Z</time></trkpt><trkpt lat="48.90912883223669" lon="4.384166624655113"><ele>93.25</ele><time>2026-05-01T12:21:53.999Z</time></trkpt><trkpt lat="48.90925792932044" lon="4.384035682596069"><ele>92.5</ele><time>2026-05-01T12:21:54.999Z</time></trkpt><trkpt lat="48.9093696773388" lon="4.383929453704192"><ele>91.75</ele><time>2026-05-01T12:21:55.999Z</time></trkpt><trkpt lat="48.909456699814264" lon="4.383838763096788"><ele>91.0</ele><time>2026-05-01T12:21:56.999Z</time></trkpt><trkpt lat="48.9095511453923" lon="4.383742687994284"><ele>91.0</ele><time>2026-05-01T12:21:57.999Z</time></trkpt><trkpt lat="48.909643109268885" lon="4.3836419697551845"><ele>91.0</ele><time>2026-05-01T12:21:58.999Z</time></trkpt><trkpt lat="48.90972724622748" lon="4.383562031261651"><ele>91.0</ele><time>2026-05-01T12:21:59.999Z</time></trkpt><trkpt lat="48.9098059089471" lon="4.383465408954538"><ele>91.0</ele><time>2026-05-01T12:22:00.999Z</time></trkpt><trkpt lat="48.90985678635042" lon="4.383379739951873"><ele>91.0</ele><time>2026-05-01T12:22:01.999Z</time></trkpt><trkpt lat="48.90991627940125" lon="4.383212098666807"><ele>91.0</ele><time>2026-05-01T12:22:03.999Z</time></trkpt><trkpt lat="48.90997056539474" lon="4.383089515854662"><ele>91.0</ele><time>2026-05-01T12:22:04.999Z</time></trkpt><trkpt lat="48.91001274333804" lon="4.383004061602443"><ele>91.0</ele><time>2026-05-01T12:22:05.999Z</time></trkpt><trkpt lat="48.91012634463201" lon="4.382876579452941"><ele>91.0</ele><time>2026-05-01T12:22:07.999Z</time></trkpt><trkpt lat="48.910210706795866" lon="4.382804467403163"><ele>91.0</ele><time>2026-05-01T12:22:08.999Z</time></trkpt><trkpt lat="48.9102963501546" lon="4.3827091789673895"><ele>90.19999999999999</ele><time>2026-05-01T12:22:09.999Z</time></trkpt><trkpt lat="48.91038077654362" lon="4.382590814796981"><ele>89.39999999999999</ele><time>2026-05-01T12:22:10.999Z</time></trkpt><trkpt lat="48.91046167239068" lon="4.3824880121728675"><ele>88.6</ele><time>2026-05-01T12:22:11.999Z</time></trkpt><trkpt lat="48.91052297687801" lon="4.38240000510538"><ele>87.8</ele><time>2026-05-01T12:22:12.999Z</time></trkpt><trkpt lat="48.91057677620076" lon="4.3823067025441516"><ele>87.0</ele><time>2026-05-01T12:22:13.999Z</time></trkpt><trkpt lat="48.91062635059976" lon="4.38222905177541"><ele>86.19999999999999</ele><time>2026-05-01T12:22:14.999Z</time></trkpt><trkpt lat="48.91068539905206" lon="4.382130327922627"><ele>85.4</ele><time>2026-05-01T12:22:15.999Z</time></trkpt><trkpt lat="48.9107563238623" lon="4.3820099425032"><ele>84.6</ele><time>2026-05-01T12:22:16.999Z</time></trkpt><trkpt lat="48.91082723460735" lon="4.381890078077685"><ele>83.80000000000001</ele><time>2026-05-01T12:22:17.999Z</time></trkpt><trkpt lat="48.910898843153774" lon="4.381790290366812"><ele>83.0</ele><time>2026-05-01T12:22:18.999Z</time></trkpt><trkpt lat="48.91096875592669" lon="4.381680477374288"><ele>83.0</ele><time>2026-05-01T12:22:19.999Z</time></trkpt><trkpt lat="48.911037418247105" lon="4.381568856771961"><ele>83.0</ele><time>2026-05-01T12:22:20.999Z</time></trkpt><trkpt lat="48.91110366397052" lon="4.3814710049525285"><ele>83.0</ele><time>2026-05-01T12:22:21.999Z</time></trkpt><trkpt lat="48.91116000169937" lon="4.3813803244466"><ele>83.0</ele><time>2026-05-01T12:22:22.999Z</time></trkpt><trkpt lat="48.9112117281119" lon="4.381310899911229"><ele>83.0</ele><time>2026-05-01T12:22:23.999Z</time></trkpt><trkpt lat="48.91128079229802" lon="4.381214737956676"><ele>83.0</ele><time>2026-05-01T12:22:24.999Z</time></trkpt><trkpt lat="48.91134647461818" lon="4.381091850419822"><ele>84.75</ele><time>2026-05-01T12:22:25.999Z</time></trkpt><trkpt lat="48.91142278230586" lon="4.3809619816015966"><ele>86.5</ele><time>2026-05-01T12:22:26.999Z</time></trkpt><trkpt lat="48.911503700333995" lon="4.380825238495983"><ele>88.25</ele><time>2026-05-01T12:22:27.999Z</time></trkpt><trkpt lat="48.91159276498212" lon="4.380679976342425"><ele>90.0</ele><time>2026-05-01T12:22:28.999Z</time></trkpt><trkpt lat="48.911679872599706" lon="4.380545171824334"><ele>89.4</ele><time>2026-05-01T12:22:29.999Z</time></trkpt><trkpt lat="48.911759532406904" lon="4.380397084638056"><ele>88.8</ele><time>2026-05-01T12:22:30.999Z</time></trkpt><trkpt lat="48.91183210522275" lon="4.380249239574325"><ele>88.19999999999999</ele><time>2026-05-01T12:22:31.999Z</time></trkpt><trkpt lat="48.91189661243506" lon="4.380143169933334"><ele>87.6</ele><time>2026-05-01T12:22:32.999Z</time></trkpt><trkpt lat="48.911957065722426" lon="4.380046857180246"><ele>87.0</ele><time>2026-05-01T12:22:33.999Z</time></trkpt><trkpt lat="48.912005529676584" lon="4.379971307206491"><ele>87.0</ele><time>2026-05-01T12:22:34.999Z</time></trkpt><trkpt lat="48.9120662063478" lon="4.379862030603547"><ele>87.0</ele><time>2026-05-01T12:22:35.999Z</time></trkpt><trkpt lat="48.91212777811239" lon="4.3797470884076475"><ele>87.0</ele><time>2026-05-01T12:22:36.999Z</time></trkpt><trkpt lat="48.912176583655665" lon="4.379651351417467"><ele>87.0</ele><time>2026-05-01T12:22:37.999Z</time></trkpt><trkpt lat="48.91220949356697" lon="4.379560737074825"><ele>87.0</ele><time>2026-05-01T12:22:38.999Z</time></trkpt><trkpt lat="48.912238958678444" lon="4.379448536077084"><ele>87.0</ele><time>2026-05-01T12:22:39.999Z</time></trkpt><trkpt lat="48.912267485692624" lon="4.379359099858896"><ele>86.5</ele><time>2026-05-01T12:22:40.999Z</time></trkpt><trkpt lat="48.91230805728095" lon="4.379219964940768"><ele>86.0</ele><time>2026-05-01T12:22:42.998Z</time></trkpt><trkpt lat="48.91233205012446" lon="4.379086093968139"><ele>85.5</ele><time>2026-05-01T12:22:45.998Z</time></trkpt><trkpt lat="48.91240331243387" lon="4.379093286956874"><ele>85.0</ele><time>2026-05-01T12:23:03.998Z</time></trkpt><trkpt lat="48.9124804966541" lon="4.379078159037483"><ele>84.5</ele><time>2026-05-01T12:23:06.998Z</time></trkpt><trkpt lat="48.91256109989495" lon="4.379011454803227"><ele>84.0</ele><time>2026-05-01T12:23:08.998Z</time></trkpt><trkpt lat="48.91262670984729" lon="4.378945086173628"><ele>84.0</ele><time>2026-05-01T12:23:10.998Z</time></trkpt><trkpt lat="48.91270869258244" lon="4.378893759915088"><ele>84.0</ele><time>2026-05-01T12:23:12.998Z</time></trkpt><trkpt lat="48.912784410067964" lon="4.378823981616599"><ele>84.0</ele><time>2026-05-01T12:23:15Z</time></trkpt><trkpt lat="48.91288722731187" lon="4.378715627348071"><ele>84.0</ele><time>2026-05-01T12:23:17Z</time></trkpt><trkpt lat="48.91299564032306" lon="4.378590916168059"><ele>84.0</ele><time>2026-05-01T12:23:19Z</time></trkpt><trkpt lat="48.91305347630762" lon="4.378512271009799"><ele>84.5</ele><time>2026-05-01T12:23:21Z</time></trkpt><trkpt lat="48.91312612754052" lon="4.378442173219103"><ele>85.0</ele><time>2026-05-01T12:23:23Z</time></trkpt><trkpt lat="48.91318966224523" lon="4.378362893075731"><ele>85.5</ele><time>2026-05-01T12:23:25Z</time></trkpt><trkpt lat="48.91340288817338" lon="4.3784531767276755"><ele>86.0</ele><time>2026-05-01T12:23:30Z</time></trkpt><trkpt lat="48.91346852903511" lon="4.378544698370067"><ele>86.0</ele><time>2026-05-01T12:23:32Z</time></trkpt><trkpt lat="48.9136478706497" lon="4.378532325973405"><ele>86.0</ele><time>2026-05-01T12:24:03.999Z</time></trkpt><trkpt lat="48.91371093603395" lon="4.378454195344326"><ele>86.0</ele><time>2026-05-01T12:24:05.999Z</time></trkpt><trkpt lat="48.913808367630864" lon="4.378338456362392"><ele>86.0</ele><time>2026-05-01T12:24:07.999Z</time></trkpt><trkpt lat="48.913902108397146" lon="4.378221064602695"><ele>86.0</ele><time>2026-05-01T12:24:09.999Z</time></trkpt><trkpt lat="48.913949562733684" lon="4.378157775505936"><ele>86.0</ele><time>2026-05-01T12:24:10.999Z</time></trkpt><trkpt lat="48.91403565782711" lon="4.378053797603978"><ele>86.0</ele><time>2026-05-01T12:24:12.999Z</time></trkpt><trkpt lat="48.91410684612154" lon="4.377950256917179"><ele>86.0</ele><time>2026-05-01T12:24:14.999Z</time></trkpt><trkpt lat="48.91418475766716" lon="4.377865470496554"><ele>86.0</ele><time>2026-05-01T12:24:16.999Z</time></trkpt><trkpt lat="48.914259683073816" lon="4.377754085234377"><ele>85.66666666666667</ele><time>2026-05-01T12:24:18.999Z</time></trkpt><trkpt lat="48.91430473878404" lon="4.377634409316583"><ele>85.33333333333334</ele><time>2026-05-01T12:24:20.999Z</time></trkpt><trkpt lat="48.914373912166376" lon="4.377575715055189"><ele>85.0</ele><time>2026-05-01T12:24:22.999Z</time></trkpt><trkpt lat="48.91443740090261" lon="4.377627119400987"><ele>84.66666666666667</ele><time>2026-05-01T12:24:24.999Z</time></trkpt><trkpt lat="48.91450565742736" lon="4.377728691380942"><ele>84.33333333333333</ele><time>2026-05-01T12:24:27.999Z</time></trkpt><trkpt lat="48.91447557096036" lon="4.377846343486411"><ele>84.0</ele><time>2026-05-01T12:24:30.999Z</time></trkpt><trkpt lat="48.91449288680251" lon="4.3779591746558575"><ele>84.0</ele><time>2026-05-01T12:24:33.999Z</time></trkpt><trkpt lat="48.91451775707432" lon="4.378047381974718"><ele>84.0</ele><time>2026-05-01T12:24:37.999Z</time></trkpt><trkpt lat="48.91458588167887" lon="4.378041541932418"><ele>84.0</ele><time>2026-05-01T12:25:13.998Z</time></trkpt><trkpt lat="48.91466768307451" lon="4.3780207964389435"><ele>84.0</ele><time>2026-05-01T12:25:15.998Z</time></trkpt><trkpt lat="48.91473340338836" lon="4.377961377112442"><ele>84.0</ele><time>2026-05-01T12:25:16.998Z</time></trkpt><trkpt lat="48.9148285607476" lon="4.377917418854367"><ele>84.0</ele><time>2026-05-01T12:25:18.998Z</time></trkpt><trkpt lat="48.914906749832625" lon="4.377897125659454"><ele>84.0</ele><time>2026-05-01T12:25:22Z</time></trkpt><trkpt lat="48.91498401709789" lon="4.377854803739428"><ele>84.0</ele><time>2026-05-01T12:25:24Z</time></trkpt><trkpt lat="48.91507051791546" lon="4.377813469197505"><ele>84.0</ele><time>2026-05-01T12:25:26Z</time></trkpt><trkpt lat="48.915175633776286" lon="4.377808494841429"><ele>84.0</ele><time>2026-05-01T12:25:28Z</time></trkpt><trkpt lat="48.915294837716594" lon="4.377811653202094"><ele>84.0</ele><time>2026-05-01T12:25:30Z</time></trkpt><trkpt lat="48.915399263193514" lon="4.377798771095945"><ele>83.2</ele><time>2026-05-01T12:25:32Z</time></trkpt><trkpt lat="48.91552546224641" lon="4.377730451936919"><ele>82.4</ele><time>2026-05-01T12:25:34Z</time></trkpt><trkpt lat="48.91562511920818" lon="4.377637258200348"><ele>81.6</ele><time>2026-05-01T12:25:36Z</time></trkpt><trkpt lat="48.915684143445766" lon="4.377536275108954"><ele>80.8</ele><time>2026-05-01T12:25:38Z</time></trkpt><trkpt lat="48.915733652410566" lon="4.377394489839467"><ele>80.0</ele><time>2026-05-01T12:25:40Z</time></trkpt><trkpt lat="48.915767829792316" lon="4.377291757701221"><ele>80.0</ele><time>2026-05-01T12:25:42Z</time></trkpt><trkpt lat="48.91580777820891" lon="4.377209345300172"><ele>80.0</ele><time>2026-05-01T12:25:44Z</time></trkpt><trkpt lat="48.91583582913277" lon="4.377080810565934"><ele>80.0</ele><time>2026-05-01T12:25:46Z</time></trkpt><trkpt lat="48.915891778156706" lon="4.376970928725139"><ele>80.0</ele><time>2026-05-01T12:25:48Z</time></trkpt><trkpt lat="48.91596110973465" lon="4.376839130390514"><ele>80.0</ele><time>2026-05-01T12:25:50Z</time></trkpt><trkpt lat="48.916022331536354" lon="4.3767613931016385"><ele>80.0</ele><time>2026-05-01T12:25:52Z</time></trkpt><trkpt lat="48.916056107618715" lon="4.376676511501962"><ele>80.16666666666667</ele><time>2026-05-01T12:25:54Z</time></trkpt><trkpt lat="48.916104220771444" lon="4.376581362502711"><ele>80.33333333333334</ele><time>2026-05-01T12:25:56Z</time></trkpt><trkpt lat="48.916156384837606" lon="4.376494893993107"><ele>80.5</ele><time>2026-05-01T12:25:58Z</time></trkpt><trkpt lat="48.916197200527556" lon="4.376395309784109"><ele>80.66666666666667</ele><time>2026-05-01T12:26:02.999Z</time></trkpt><trkpt lat="48.916239678076245" lon="4.376272903524331"><ele>80.83333333333333</ele><time>2026-05-01T12:26:05.999Z</time></trkpt><trkpt lat="48.91627894003812" lon="4.376185434481125"><ele>81.0</ele><time>2026-05-01T12:26:07.999Z</time></trkpt><trkpt lat="48.91631685495645" lon="4.376079260519044"><ele>81.0</ele><time>2026-05-01T12:26:09.999Z</time></trkpt><trkpt lat="48.91638094839373" lon="4.375950685268907"><ele>81.0</ele><time>2026-05-01T12:26:11.999Z</time></trkpt><trkpt lat="48.916435332283235" lon="4.375875473708442"><ele>81.0</ele><time>2026-05-01T12:26:12.999Z</time></trkpt><trkpt lat="48.916487139121855" lon="4.375789239054713"><ele>81.0</ele><time>2026-05-01T12:26:13.999Z</time></trkpt><trkpt lat="48.91654422996567" lon="4.375644840420266"><ele>81.0</ele><time>2026-05-01T12:26:15.999Z</time></trkpt><trkpt lat="48.916595145354826" lon="4.3755504048991085"><ele>81.0</ele><time>2026-05-01T12:27:38Z</time></trkpt><trkpt lat="48.91664882672706" lon="4.375473075329358"><ele>81.0</ele><time>2026-05-01T12:27:46Z</time></trkpt><trkpt lat="48.916710287932844" lon="4.375427961143407"><ele>81.0</ele><time>2026-05-01T12:27:51Z</time></trkpt><trkpt lat="48.91662688101891" lon="4.375546439080961"><ele>81.0</ele><time>2026-05-01T12:29:03.999Z</time></trkpt><trkpt lat="48.916561969597126" lon="4.3755857580418756"><ele>81.0</ele><time>2026-05-01T12:29:09.998Z</time></trkpt><trkpt lat="48.916616257422504" lon="4.375518605635708"><ele>81.0</ele><time>2026-05-01T12:29:24.998Z</time></trkpt><trkpt lat="48.9166731259606" lon="4.3754429419102046"><ele>81.0</ele><time>2026-05-01T12:29:29.998Z</time></trkpt><trkpt lat="48.916755025240846" lon="4.3754332615125655"><ele>81.0</ele><time>2026-05-01T12:30:24.999Z</time></trkpt><trkpt lat="48.91682410308307" lon="4.3753437262644255"><ele>81.0</ele><time>2026-05-01T12:30:26.999Z</time></trkpt><trkpt lat="48.9168792177438" lon="4.375296276001007"><ele>81.0</ele><time>2026-05-01T12:30:28.999Z</time></trkpt><trkpt lat="48.91693010051116" lon="4.37521657195555"><ele>81.0</ele><time>2026-05-01T12:30:31.999Z</time></trkpt><trkpt lat="48.91696332980227" lon="4.375129071855518"><ele>81.0</ele><time>2026-05-01T12:30:33.999Z</time></trkpt><trkpt lat="48.91700725482207" lon="4.375054183845913"><ele>81.0</ele><time>2026-05-01T12:30:42.999Z</time></trkpt><trkpt lat="48.91711847321347" lon="4.375018710815564"><ele>81.0</ele><time>2026-05-01T12:30:46.999Z</time></trkpt><trkpt lat="48.91719336370343" lon="4.374966029656525"><ele>81.0</ele><time>2026-05-01T12:30:49.999Z</time></trkpt><trkpt lat="48.917252555131526" lon="4.374926657207015"><ele>81.0</ele><time>2026-05-01T12:30:53.999Z</time></trkpt><trkpt lat="48.91719943349163" lon="4.374984473824753"><ele>81.0</ele><time>2026-05-01T12:33:51Z</time></trkpt><trkpt lat="48.91713249234697" lon="4.374999241387734"><ele>81.0</ele><time>2026-05-01T12:34:02Z</time></trkpt><trkpt lat="48.91705400231399" lon="4.3750405635807255"><ele>81.0</ele><time>2026-05-01T12:34:05Z</time></trkpt><trkpt lat="48.91697517914875" lon="4.375076536735681"><ele>81.0</ele><time>2026-05-01T12:34:08Z</time></trkpt><trkpt lat="48.91690805830049" lon="4.375126279173325"><ele>81.0</ele><time>2026-05-01T12:34:11Z</time></trkpt><trkpt lat="48.91686884176949" lon="4.375223131521394"><ele>81.0</ele><time>2026-05-01T12:34:13Z</time></trkpt><trkpt lat="48.91682387730688" lon="4.375319156588312"><ele>81.0</ele><time>2026-05-01T12:34:16Z</time></trkpt><trkpt lat="48.91676802077146" lon="4.375389600184795"><ele>81.0</ele><time>2026-05-01T12:34:20Z</time></trkpt><trkpt lat="48.9167068922828" lon="4.375443324795226"><ele>81.0</ele><time>2026-05-01T12:34:24Z</time></trkpt><trkpt lat="48.91664955604805" lon="4.375500407321303"><ele>81.0</ele><time>2026-05-01T12:34:48.999Z</time></trkpt><trkpt lat="48.91657526646355" lon="4.37550097629868"><ele>81.0</ele><time>2026-05-01T12:34:57.999Z</time></trkpt><trkpt lat="48.91666304243925" lon="4.375457574481079"><ele>81.0</ele><time>2026-05-01T12:35:05.999Z</time></trkpt><trkpt lat="48.9166081550068" lon="4.375526423801146"><ele>81.0</ele><time>2026-05-01T12:35:21.999Z</time></trkpt><trkpt lat="48.916552785486296" lon="4.375583862227844"><ele>81.0</ele><time>2026-05-01T12:35:34.998Z</time></trkpt><trkpt lat="48.916526102340164" lon="4.375671190865147"><ele>81.0</ele><time>2026-05-01T12:35:51Z</time></trkpt><trkpt lat="48.916488479319966" lon="4.375752440405419"><ele>81.0</ele><time>2026-05-01T12:35:59Z</time></trkpt><trkpt lat="48.916439311456884" lon="4.375830216072155"><ele>81.0</ele><time>2026-05-01T12:36:01Z</time></trkpt><trkpt lat="48.91639436238712" lon="4.375902587657399"><ele>81.0</ele><time>2026-05-01T12:36:03Z</time></trkpt><trkpt lat="48.91633150010174" lon="4.376016112642044"><ele>81.0</ele><time>2026-05-01T12:36:07Z</time></trkpt><trkpt lat="48.91628133696197" lon="4.376134337403221"><ele>81.0</ele><time>2026-05-01T12:36:10Z</time></trkpt><trkpt lat="48.91621787408168" lon="4.376241067125903"><ele>81.0</ele><time>2026-05-01T12:36:12Z</time></trkpt><trkpt lat="48.91618337858144" lon="4.376375424111084"><ele>81.0</ele><time>2026-05-01T12:36:14Z</time></trkpt><trkpt lat="48.91612675372928" lon="4.376504470491227"><ele>81.0</ele><time>2026-05-01T12:36:16Z</time></trkpt><trkpt lat="48.91608899775708" lon="4.3765841597265815"><ele>81.0</ele><time>2026-05-01T12:36:17Z</time></trkpt><trkpt lat="48.916026697750816" lon="4.376686678671353"><ele>81.0</ele><time>2026-05-01T12:36:19Z</time></trkpt><trkpt lat="48.91598065824919" lon="4.376797004958316"><ele>81.0</ele><time>2026-05-01T12:36:21Z</time></trkpt><trkpt lat="48.91592423463095" lon="4.376870275932787"><ele>81.0</ele><time>2026-05-01T12:36:25Z</time></trkpt><trkpt lat="48.91585539329706" lon="4.376949866731203"><ele>81.0</ele><time>2026-05-01T12:36:27Z</time></trkpt><trkpt lat="48.91582989863112" lon="4.377056048816717"><ele>81.0</ele><time>2026-05-01T12:36:29Z</time></trkpt><trkpt lat="48.915751723672614" lon="4.3771828525798115"><ele>81.0</ele><time>2026-05-01T12:36:31Z</time></trkpt><trkpt lat="48.91570615583392" lon="4.377312449482585"><ele>80.83333333333333</ele><time>2026-05-01T12:36:33Z</time></trkpt><trkpt lat="48.91566216597031" lon="4.377419005131271"><ele>80.66666666666667</ele><time>2026-05-01T12:36:34.999Z</time></trkpt><trkpt lat="48.91561925480501" lon="4.377546861793329"><ele>80.5</ele><time>2026-05-01T12:36:36.999Z</time></trkpt><trkpt lat="48.915543533492766" lon="4.377598063895265"><ele>80.33333333333334</ele><time>2026-05-01T12:36:38.999Z</time></trkpt><trkpt lat="48.91549343668718" lon="4.37770707725175"><ele>80.16666666666667</ele><time>2026-05-01T12:36:40.999Z</time></trkpt><trkpt lat="48.91541468038024" lon="4.377765329339159"><ele>80.0</ele><time>2026-05-01T12:36:42.999Z</time></trkpt><trkpt lat="48.915339424700484" lon="4.377812300888565"><ele>80.0</ele><time>2026-05-01T12:36:44.999Z</time></trkpt><trkpt lat="48.91528138184212" lon="4.377849871885445"><ele>80.0</ele><time>2026-05-01T12:36:45.999Z</time></trkpt><trkpt lat="48.91518796815624" lon="4.377861681276414"><ele>80.0</ele><time>2026-05-01T12:36:47.999Z</time></trkpt><trkpt lat="48.91510552926361" lon="4.377853063116776"><ele>80.0</ele><time>2026-05-01T12:36:49.999Z</time></trkpt><trkpt lat="48.91499554834054" lon="4.377879676154943"><ele>80.0</ele><time>2026-05-01T12:36:51.999Z</time></trkpt><trkpt lat="48.91486380244121" lon="4.377898929395878"><ele>80.57142857142857</ele><time>2026-05-01T12:36:53.999Z</time></trkpt><trkpt lat="48.9147988058319" lon="4.3779020585061375"><ele>81.14285714285714</ele><time>2026-05-01T12:36:54.999Z</time></trkpt><trkpt lat="48.9147189480823" lon="4.377897959899427"><ele>81.71428571428572</ele><time>2026-05-01T12:36:56.999Z</time></trkpt><trkpt lat="48.914641024535364" lon="4.377917699372776"><ele>82.28571428571428</ele><time>2026-05-01T12:36:58.999Z</time></trkpt><trkpt lat="48.91458014358175" lon="4.3778875890698625"><ele>82.85714285714286</ele><time>2026-05-01T12:37:00.999Z</time></trkpt><trkpt lat="48.91455046902483" lon="4.377797743697423"><ele>83.42857142857143</ele><time>2026-05-01T12:37:02.999Z</time></trkpt><trkpt lat="48.914504082756174" lon="4.377697551444911"><ele>84.0</ele><time>2026-05-01T12:37:04.999Z</time></trkpt><trkpt lat="48.91442972329519" lon="4.377622443020048"><ele>84.0</ele><time>2026-05-01T12:37:06.999Z</time></trkpt><trkpt lat="48.91435932273976" lon="4.377637075815023"><ele>84.0</ele><time>2026-05-01T12:37:08.999Z</time></trkpt><trkpt lat="48.91428611226498" lon="4.377712506422291"><ele>84.0</ele><time>2026-05-01T12:37:11.999Z</time></trkpt><trkpt lat="48.914244132607855" lon="4.377809717745519"><ele>84.0</ele><time>2026-05-01T12:37:12.999Z</time></trkpt><trkpt lat="48.91418199170474" lon="4.377921875981295"><ele>84.0</ele><time>2026-05-01T12:37:13.999Z</time></trkpt><trkpt lat="48.91410003255236" lon="4.378013440504491"><ele>84.0</ele><time>2026-05-01T12:37:14.999Z</time></trkpt><trkpt lat="48.914002269610556" lon="4.378131638589056"><ele>84.4</ele><time>2026-05-01T12:37:15.999Z</time></trkpt><trkpt lat="48.91390933026141" lon="4.378236825368434"><ele>84.80000000000001</ele><time>2026-05-01T12:37:16.999Z</time></trkpt><trkpt lat="48.913829353841194" lon="4.378343564001401"><ele>85.19999999999999</ele><time>2026-05-01T12:37:17.999Z</time></trkpt><trkpt lat="48.913743521176414" lon="4.378453453586111"><ele>85.6</ele><time>2026-05-01T12:37:18.999Z</time></trkpt><trkpt lat="48.91368806820622" lon="4.378525437456049"><ele>86.0</ele><time>2026-05-01T12:37:19.999Z</time></trkpt><trkpt lat="48.913625373914726" lon="4.378575352638142"><ele>86.0</ele><time>2026-05-01T12:37:21.999Z</time></trkpt><trkpt lat="48.91354691433309" lon="4.378580972427517"><ele>86.0</ele><time>2026-05-01T12:37:24.999Z</time></trkpt><trkpt lat="48.91348714014162" lon="4.378522672697874"><ele>86.0</ele><time>2026-05-01T12:37:26.999Z</time></trkpt><trkpt lat="48.91341339865172" lon="4.378438699201063"><ele>86.0</ele><time>2026-05-01T12:37:28.999Z</time></trkpt><trkpt lat="48.91334471981863" lon="4.37838926587054"><ele>86.0</ele><time>2026-05-01T12:37:32.998Z</time></trkpt><trkpt lat="48.913288561743" lon="4.378331065920076"><ele>86.0</ele><time>2026-05-01T12:37:45.998Z</time></trkpt><trkpt lat="48.91319870593849" lon="4.378313232050035"><ele>87.19999999999999</ele><time>2026-05-01T12:37:48.998Z</time></trkpt><trkpt lat="48.91312166608448" lon="4.378355533565819"><ele>88.39999999999999</ele><time>2026-05-01T12:37:50.998Z</time></trkpt><trkpt lat="48.91306956213595" lon="4.378439635361862"><ele>89.6</ele><time>2026-05-01T12:37:51.998Z</time></trkpt><trkpt lat="48.91301226004484" lon="4.378518852746411"><ele>90.8</ele><time>2026-05-01T12:37:52.998Z</time></trkpt><trkpt lat="48.91291525615028" lon="4.378670664045914"><ele>92.0</ele><time>2026-05-01T12:37:53.998Z</time></trkpt><trkpt lat="48.91281897253261" lon="4.378793327502149"><ele>92.71428571428572</ele><time>2026-05-01T12:37:54.998Z</time></trkpt><trkpt lat="48.912761069011644" lon="4.3788680149192505"><ele>93.42857142857142</ele><time>2026-05-01T12:37:55.998Z</time></trkpt><trkpt lat="48.912693278945646" lon="4.3789226395052365"><ele>94.14285714285714</ele><time>2026-05-01T12:37:57Z</time></trkpt><trkpt lat="48.91262497364893" lon="4.378960336111015"><ele>94.85714285714286</ele><time>2026-05-01T12:37:58Z</time></trkpt><trkpt lat="48.91256830088078" lon="4.379012496327128"><ele>95.57142857142858</ele><time>2026-05-01T12:37:59Z</time></trkpt><trkpt lat="48.9124927538403" lon="4.379060216653726"><ele>96.28571428571428</ele><time>2026-05-01T12:38:01Z</time></trkpt><trkpt lat="48.91242870500803" lon="4.379088323578554"><ele>97.0</ele><time>2026-05-01T12:38:02Z</time></trkpt><trkpt lat="48.912344892779124" lon="4.379070286662434"><ele>97.00000000000001</ele><time>2026-05-01T12:38:04Z</time></trkpt><trkpt lat="48.91237082090948" lon="4.378962278349258"><ele>97.0</ele><time>2026-05-01T12:38:15Z</time></trkpt><trkpt lat="48.91242460356613" lon="4.378850265268479"><ele>97.0</ele><time>2026-05-01T12:38:17Z</time></trkpt><trkpt lat="48.9124811498024" lon="4.378749915515924"><ele>97.0</ele><time>2026-05-01T12:38:19Z</time></trkpt><trkpt lat="48.91254024653698" lon="4.3786730201485815"><ele>97.00000000000001</ele><time>2026-05-01T12:38:22Z</time></trkpt><trkpt lat="48.912582528023925" lon="4.378589002931623"><ele>97.0</ele><time>2026-05-01T12:38:26Z</time></trkpt><trkpt lat="48.912628907206354" lon="4.378488884723743"><ele>97.8</ele><time>2026-05-01T12:38:28Z</time></trkpt><trkpt lat="48.9126703206948" lon="4.378353812109282"><ele>98.6</ele><time>2026-05-01T12:38:30Z</time></trkpt><trkpt lat="48.91272777957049" lon="4.3782242809246545"><ele>99.39999999999999</ele><time>2026-05-01T12:38:32Z</time></trkpt><trkpt lat="48.91277810089862" lon="4.378128211410849"><ele>100.19999999999999</ele><time>2026-05-01T12:38:33Z</time></trkpt><trkpt lat="48.91282561425655" lon="4.377997105390428"><ele>101.0</ele><time>2026-05-01T12:38:34Z</time></trkpt><trkpt lat="48.91288777490788" lon="4.377856373441824"><ele>100.99999999999999</ele><time>2026-05-01T12:38:35Z</time></trkpt><trkpt lat="48.9129243759649" lon="4.377772050561257"><ele>101.0</ele><time>2026-05-01T12:38:36Z</time></trkpt><trkpt lat="48.91296675321527" lon="4.377654281623495"><ele>101.0</ele><time>2026-05-01T12:38:37.999Z</time></trkpt><trkpt lat="48.91299187066146" lon="4.377562401767995"><ele>101.0</ele><time>2026-05-01T12:38:38.999Z</time></trkpt><trkpt lat="48.91302771034924" lon="4.377476158468088"><ele>100.99999999999999</ele><time>2026-05-01T12:38:39.999Z</time></trkpt><trkpt lat="48.91306808839608" lon="4.377382434421023"><ele>101.0</ele><time>2026-05-01T12:38:40.999Z</time></trkpt><trkpt lat="48.913125518946494" lon="4.377266783512516"><ele>100.66666666666666</ele><time>2026-05-01T12:38:41.999Z</time></trkpt><trkpt lat="48.913179395221086" lon="4.377159250188186"><ele>100.33333333333333</ele><time>2026-05-01T12:38:42.999Z</time></trkpt><trkpt lat="48.913248466823525" lon="4.37706495044941"><ele>100.0</ele><time>2026-05-01T12:38:43.999Z</time></trkpt><trkpt lat="48.913311340551196" lon="4.377010956318714"><ele>99.66666666666666</ele><time>2026-05-01T12:38:44.999Z</time></trkpt><trkpt lat="48.91336688028835" lon="4.376952124899566"><ele>99.33333333333333</ele><time>2026-05-01T12:38:45.999Z</time></trkpt><trkpt lat="48.913428867791865" lon="4.376884911547329"><ele>99.0</ele><time>2026-05-01T12:38:46.999Z</time></trkpt><trkpt lat="48.91352757974529" lon="4.376789485099814"><ele>99.0</ele><time>2026-05-01T12:38:48.999Z</time></trkpt><trkpt lat="48.913627149538904" lon="4.376671021791353"><ele>99.0</ele><time>2026-05-01T12:38:50.999Z</time></trkpt><trkpt lat="48.91370151150342" lon="4.3765514169427036"><ele>99.0</ele><time>2026-05-01T12:38:52.999Z</time></trkpt><trkpt lat="48.913774052368694" lon="4.376412068286264"><ele>99.0</ele><time>2026-05-01T12:38:54.999Z</time></trkpt><trkpt lat="48.91384744278398" lon="4.376307876219859"><ele>99.5</ele><time>2026-05-01T12:38:56.999Z</time></trkpt><trkpt lat="48.91395701960541" lon="4.376264080226488"><ele>100.0</ele><time>2026-05-01T12:38:58.999Z</time></trkpt><trkpt lat="48.914032348757154" lon="4.37625825043914"><ele>100.5</ele><time>2026-05-01T12:38:59.999Z</time></trkpt><trkpt lat="48.91413911617627" lon="4.376252056622507"><ele>101.0</ele><time>2026-05-01T12:39:01.999Z</time></trkpt><trkpt lat="48.914213106927406" lon="4.37623300823829"><ele>101.5</ele><time>2026-05-01T12:39:02.999Z</time></trkpt><trkpt lat="48.91429031504917" lon="4.376210695029991"><ele>102.0</ele><time>2026-05-01T12:39:03.999Z</time></trkpt><trkpt lat="48.914394746171254" lon="4.376142423540975"><ele>102.0</ele><time>2026-05-01T12:39:04.999Z</time></trkpt><trkpt lat="48.91450833932308" lon="4.376066055319843"><ele>102.0</ele><time>2026-05-01T12:39:05.999Z</time></trkpt><trkpt lat="48.9146192094597" lon="4.375969747945432"><ele>102.0</ele><time>2026-05-01T12:39:06.999Z</time></trkpt><trkpt lat="48.914700043267096" lon="4.375917681692607"><ele>102.0</ele><time>2026-05-01T12:39:07.999Z</time></trkpt><trkpt lat="48.91478471563871" lon="4.375864816491913"><ele>102.0</ele><time>2026-05-01T12:39:08.999Z</time></trkpt><trkpt lat="48.91485560856443" lon="4.37581395440368"><ele>102.0</ele><time>2026-05-01T12:39:09.999Z</time></trkpt><trkpt lat="48.914930239317556" lon="4.375737167599265"><ele>102.0</ele><time>2026-05-01T12:39:10.999Z</time></trkpt><trkpt lat="48.915002274780846" lon="4.375645588674404"><ele>102.0</ele><time>2026-05-01T12:39:11.999Z</time></trkpt><trkpt lat="48.9150502037457" lon="4.375579046117596"><ele>102.0</ele><time>2026-05-01T12:39:12.999Z</time></trkpt><trkpt lat="48.91510959472279" lon="4.37551882596006"><ele>102.0</ele><time>2026-05-01T12:39:13.999Z</time></trkpt><trkpt lat="48.9152012394286" lon="4.3753928039686985"><ele>102.0</ele><time>2026-05-01T12:39:15.999Z</time></trkpt><trkpt lat="48.915265909632204" lon="4.375334080460095"><ele>101.83333333333333</ele><time>2026-05-01T12:39:16.999Z</time></trkpt><trkpt lat="48.91534984528007" lon="4.375253004976891"><ele>101.66666666666666</ele><time>2026-05-01T12:39:18.999Z</time></trkpt><trkpt lat="48.915429428498854" lon="4.375199008409231"><ele>101.5</ele><time>2026-05-01T12:39:20.999Z</time></trkpt><trkpt lat="48.9155126870508" lon="4.37513289197507"><ele>101.33333333333333</ele><time>2026-05-01T12:39:22.999Z</time></trkpt><trkpt lat="48.91558529787883" lon="4.375067515474889"><ele>101.16666666666666</ele><time>2026-05-01T12:39:23.999Z</time></trkpt><trkpt lat="48.91565381776001" lon="4.375026688872223"><ele>101.0</ele><time>2026-05-01T12:39:24.999Z</time></trkpt><trkpt lat="48.91571987328899" lon="4.374973633549807"><ele>101.0</ele><time>2026-05-01T12:39:25.999Z</time></trkpt><trkpt lat="48.9157764206579" lon="4.374922527259583"><ele>101.0</ele><time>2026-05-01T12:39:26.999Z</time></trkpt><trkpt lat="48.91583150762536" lon="4.374872580986475"><ele>101.0</ele><time>2026-05-01T12:39:27.999Z</time></trkpt><trkpt lat="48.915886128451795" lon="4.374801952312224"><ele>101.0</ele><time>2026-05-01T12:39:28.999Z</time></trkpt><trkpt lat="48.91592577376733" lon="4.374720862906238"><ele>101.0</ele><time>2026-05-01T12:39:29.999Z</time></trkpt><trkpt lat="48.915956140589515" lon="4.374627728925126"><ele>101.0</ele><time>2026-05-01T12:39:30.999Z</time></trkpt><trkpt lat="48.91597737279134" lon="4.374515613189776"><ele>101.0</ele><time>2026-05-01T12:39:31.998Z</time></trkpt><trkpt lat="48.915982128934054" lon="4.374395197856554"><ele>101.16666666666666</ele><time>2026-05-01T12:39:32.998Z</time></trkpt><trkpt lat="48.91598051230744" lon="4.374240809986697"><ele>101.33333333333333</ele><time>2026-05-01T12:39:34.998Z</time></trkpt><trkpt lat="48.91601217444352" lon="4.374061776436537"><ele>101.5</ele><time>2026-05-01T12:39:36.998Z</time></trkpt><trkpt lat="48.91606403279606" lon="4.373975680599796"><ele>101.66666666666666</ele><time>2026-05-01T12:39:37.998Z</time></trkpt><trkpt lat="48.91611212768916" lon="4.373903853488478"><ele>101.83333333333333</ele><time>2026-05-01T12:39:38.998Z</time></trkpt><trkpt lat="48.91617623771768" lon="4.373826712562442"><ele>102.0</ele><time>2026-05-01T12:39:39.998Z</time></trkpt><trkpt lat="48.91625442130039" lon="4.373814509392981"><ele>102.0</ele><time>2026-05-01T12:39:40.998Z</time></trkpt><trkpt lat="48.91632352781593" lon="4.373817361310453"><ele>102.0</ele><time>2026-05-01T12:39:41.998Z</time></trkpt><trkpt lat="48.916398546646064" lon="4.37382757466542"><ele>102.0</ele><time>2026-05-01T12:39:42.998Z</time></trkpt><trkpt lat="48.916490496948036" lon="4.37382589036141"><ele>102.0</ele><time>2026-05-01T12:39:44.998Z</time></trkpt><trkpt lat="48.91655467297622" lon="4.373811960555523"><ele>102.0</ele><time>2026-05-01T12:39:45.998Z</time></trkpt><trkpt lat="48.91662296385375" lon="4.37379809456314"><ele>102.0</ele><time>2026-05-01T12:39:46.998Z</time></trkpt><trkpt lat="48.91673254170985" lon="4.373722317091267"><ele>100.8</ele><time>2026-05-01T12:39:48.998Z</time></trkpt><trkpt lat="48.91680690426079" lon="4.37366596874517"><ele>99.6</ele><time>2026-05-01T12:39:49.998Z</time></trkpt><trkpt lat="48.91691447289526" lon="4.373538571546246"><ele>98.39999999999999</ele><time>2026-05-01T12:39:51.998Z</time></trkpt><trkpt lat="48.916962410126374" lon="4.373470918118957"><ele>97.19999999999999</ele><time>2026-05-01T12:39:52.998Z</time></trkpt><trkpt lat="48.91704890080173" lon="4.373352773619788"><ele>96.0</ele><time>2026-05-01T12:39:54.998Z</time></trkpt><trkpt lat="48.91712907047893" lon="4.373248024595451"><ele>96.0</ele><time>2026-05-01T12:39:56.998Z</time></trkpt><trkpt lat="48.9171787595747" lon="4.373106809371687"><ele>96.0</ele><time>2026-05-01T12:39:58.998Z</time></trkpt><trkpt lat="48.917212550325" lon="4.373024576004541"><ele>96.0</ele><time>2026-05-01T12:39:59.998Z</time></trkpt><trkpt lat="48.91727146246634" lon="4.372862314978312"><ele>96.0</ele><time>2026-05-01T12:40:01.998Z</time></trkpt><trkpt lat="48.91731384245414" lon="4.372780948991719"><ele>96.0</ele><time>2026-05-01T12:40:03Z</time></trkpt><trkpt lat="48.91736593849182" lon="4.372700939412729"><ele>96.0</ele><time>2026-05-01T12:40:04Z</time></trkpt><trkpt lat="48.91742513813026" lon="4.372624083417264"><ele>95.5</ele><time>2026-05-01T12:40:05Z</time></trkpt><trkpt lat="48.91749134222238" lon="4.37254405976105"><ele>95.0</ele><time>2026-05-01T12:40:06Z</time></trkpt><trkpt lat="48.91755340744748" lon="4.372470474473515"><ele>94.5</ele><time>2026-05-01T12:40:07Z</time></trkpt><trkpt lat="48.91761380959706" lon="4.372398188634864"><ele>94.0</ele><time>2026-05-01T12:40:08Z</time></trkpt><trkpt lat="48.91767575199404" lon="4.372346973277802"><ele>93.5</ele><time>2026-05-01T12:40:09Z</time></trkpt><trkpt lat="48.91774424706269" lon="4.37226603057925"><ele>93.0</ele><time>2026-05-01T12:40:10Z</time></trkpt><trkpt lat="48.91784093741919" lon="4.372161978889132"><ele>95.0</ele><time>2026-05-01T12:40:11Z</time></trkpt><trkpt lat="48.91793514181467" lon="4.37204867964124"><ele>97.0</ele><time>2026-05-01T12:40:12Z</time></trkpt><trkpt lat="48.918007055489106" lon="4.371958990983941"><ele>99.0</ele><time>2026-05-01T12:40:13Z</time></trkpt><trkpt lat="48.91807201945011" lon="4.371884835009448"><ele>101.0</ele><time>2026-05-01T12:40:14Z</time></trkpt><trkpt lat="48.918125351225825" lon="4.371824840338386"><ele>103.0</ele><time>2026-05-01T12:40:15Z</time></trkpt><trkpt lat="48.91824475883554" lon="4.371716956791988"><ele>103.00000000000001</ele><time>2026-05-01T12:40:17Z</time></trkpt><trkpt lat="48.918298846222406" lon="4.371625152697822"><ele>103.0</ele><time>2026-05-01T12:40:18Z</time></trkpt><trkpt lat="48.91834923212329" lon="4.371538289084909"><ele>103.0</ele><time>2026-05-01T12:40:19Z</time></trkpt><trkpt lat="48.918400572951604" lon="4.3714546103764995"><ele>103.0</ele><time>2026-05-01T12:40:20Z</time></trkpt><trkpt lat="48.918458287207336" lon="4.371387727791606"><ele>103.00000000000001</ele><time>2026-05-01T12:40:21Z</time></trkpt><trkpt lat="48.91852107973645" lon="4.371330707516986"><ele>103.0</ele><time>2026-05-01T12:40:22Z</time></trkpt><trkpt lat="48.91859129922971" lon="4.371214321763849"><ele>103.00000000000001</ele><time>2026-05-01T12:40:24Z</time></trkpt><trkpt lat="48.91864932795156" lon="4.371138838800149"><ele>103.0</ele><time>2026-05-01T12:40:25Z</time></trkpt><trkpt lat="48.91871714437943" lon="4.371056219033518"><ele>103.0</ele><time>2026-05-01T12:40:26Z</time></trkpt><trkpt lat="48.91877944978123" lon="4.371002960246739"><ele>103.0</ele><time>2026-05-01T12:40:27Z</time></trkpt><trkpt lat="48.91883382948524" lon="4.370939013045148"><ele>103.00000000000001</ele><time>2026-05-01T12:40:28Z</time></trkpt><trkpt lat="48.918906031213055" lon="4.37087501000378"><ele>103.0</ele><time>2026-05-01T12:40:29Z</time></trkpt><trkpt lat="48.91897286322949" lon="4.370821135687665"><ele>103.0</ele><time>2026-05-01T12:40:30Z</time></trkpt><trkpt lat="48.91904813844039" lon="4.370770423317506"><ele>103.0</ele><time>2026-05-01T12:40:31Z</time></trkpt><trkpt lat="48.91910183999026" lon="4.370719280623486"><ele>103.0</ele><time>2026-05-01T12:40:32Z</time></trkpt><trkpt lat="48.91917465563455" lon="4.370650175275488"><ele>103.0</ele><time>2026-05-01T12:40:33Z</time></trkpt><trkpt lat="48.91925246410051" lon="4.370580956500469"><ele>103.0</ele><time>2026-05-01T12:40:34Z</time></trkpt><trkpt lat="48.91936730020566" lon="4.370490932869696"><ele>102.4</ele><time>2026-05-01T12:40:36Z</time></trkpt><trkpt lat="48.919436926570825" lon="4.370428881476798"><ele>101.80000000000001</ele><time>2026-05-01T12:40:37Z</time></trkpt><trkpt lat="48.9194956855126" lon="4.370375750413092"><ele>101.2</ele><time>2026-05-01T12:40:38Z</time></trkpt><trkpt lat="48.919619748431636" lon="4.370287027622297"><ele>100.6</ele><time>2026-05-01T12:40:40Z</time></trkpt><trkpt lat="48.919688672684" lon="4.370229126129767"><ele>100.0</ele><time>2026-05-01T12:40:41Z</time></trkpt><trkpt lat="48.919760671377105" lon="4.3701594873505405"><ele>100.00000000000001</ele><time>2026-05-01T12:40:42Z</time></trkpt><trkpt lat="48.91981337301996" lon="4.370075654794999"><ele>100.0</ele><time>2026-05-01T12:40:43Z</time></trkpt><trkpt lat="48.919906792917196" lon="4.369941926902445"><ele>100.0</ele><time>2026-05-01T12:40:44.999Z</time></trkpt><trkpt lat="48.91995019704654" lon="4.369867482186678"><ele>100.0</ele><time>2026-05-01T12:40:45.999Z</time></trkpt><trkpt lat="48.9200008563832" lon="4.369782984009684"><ele>100.00000000000001</ele><time>2026-05-01T12:40:46.999Z</time></trkpt><trkpt lat="48.92004940039776" lon="4.369704151152672"><ele>100.0</ele><time>2026-05-01T12:40:47.999Z</time></trkpt><trkpt lat="48.92010853926268" lon="4.369621511378865"><ele>100.00000000000001</ele><time>2026-05-01T12:40:48.999Z</time></trkpt><trkpt lat="48.92017359229573" lon="4.369527423585016"><ele>100.0</ele><time>2026-05-01T12:40:49.999Z</time></trkpt><trkpt lat="48.92022324876875" lon="4.369464096753574"><ele>100.0</ele><time>2026-05-01T12:40:50.999Z</time></trkpt><trkpt lat="48.92030018500133" lon="4.369327910382985"><ele>100.0</ele><time>2026-05-01T12:40:52.999Z</time></trkpt><trkpt lat="48.9203532057127" lon="4.369238165918738"><ele>100.00000000000001</ele><time>2026-05-01T12:40:53.999Z</time></trkpt><trkpt lat="48.9204001251535" lon="4.369135179759567"><ele>100.0</ele><time>2026-05-01T12:40:54.999Z</time></trkpt><trkpt lat="48.920483490686024" lon="4.368962422492646"><ele>100.00000000000001</ele><time>2026-05-01T12:40:56.999Z</time></trkpt><trkpt lat="48.92052231098343" lon="4.368881656106274"><ele>100.0</ele><time>2026-05-01T12:40:57.999Z</time></trkpt><trkpt lat="48.9205642834179" lon="4.368797481149268"><ele>100.0</ele><time>2026-05-01T12:40:58.999Z</time></trkpt><trkpt lat="48.9206028854293" lon="4.368708970478804"><ele>100.0</ele><time>2026-05-01T12:40:59.999Z</time></trkpt><trkpt lat="48.92065639190472" lon="4.368603464547965"><ele>100.00000000000001</ele><time>2026-05-01T12:41:00.999Z</time></trkpt><trkpt lat="48.9207175598233" lon="4.368478271824121"><ele>100.0</ele><time>2026-05-01T12:41:01.999Z</time></trkpt><trkpt lat="48.92076883133228" lon="4.368387626586358"><ele>100.42857142857143</ele><time>2026-05-01T12:41:02.999Z</time></trkpt><trkpt lat="48.92082255994861" lon="4.368298841979107"><ele>100.85714285714286</ele><time>2026-05-01T12:41:03.999Z</time></trkpt><trkpt lat="48.92086994830637" lon="4.368224993393067"><ele>101.28571428571428</ele><time>2026-05-01T12:41:04.999Z</time></trkpt><trkpt lat="48.92091529881834" lon="4.368135761579677"><ele>101.71428571428572</ele><time>2026-05-01T12:41:05.999Z</time></trkpt><trkpt lat="48.920964821009576" lon="4.368060839241948"><ele>102.14285714285714</ele><time>2026-05-01T12:41:06.999Z</time></trkpt><trkpt lat="48.92102028371893" lon="4.367973337431446"><ele>102.57142857142857</ele><time>2026-05-01T12:41:07.999Z</time></trkpt><trkpt lat="48.921069341665124" lon="4.367896676828563"><ele>103.0</ele><time>2026-05-01T12:41:08.999Z</time></trkpt><trkpt lat="48.92114212751086" lon="4.3677745677814475"><ele>103.00000000000001</ele><time>2026-05-01T12:41:10.999Z</time></trkpt><trkpt lat="48.9212014714071" lon="4.36768108412157"><ele>103.0</ele><time>2026-05-01T12:41:12.999Z</time></trkpt><trkpt lat="48.92125983064251" lon="4.367606722199291"><ele>103.0</ele><time>2026-05-01T12:41:14.999Z</time></trkpt><trkpt lat="48.92133770191032" lon="4.36757254204003"><ele>103.0</ele><time>2026-05-01T12:41:17.999Z</time></trkpt><trkpt lat="48.921415417114574" lon="4.367630098869387"><ele>103.00000000000001</ele><time>2026-05-01T12:41:19.999Z</time></trkpt><trkpt lat="48.92149240533067" lon="4.367677391538165"><ele>103.0</ele><time>2026-05-01T12:41:21.999Z</time></trkpt><trkpt lat="48.921601580663506" lon="4.367684080877193"><ele>103.0</ele><time>2026-05-01T12:41:23.999Z</time></trkpt><trkpt lat="48.92171982592304" lon="4.367599552398037"><ele>103.0</ele><time>2026-05-01T12:41:25.999Z</time></trkpt><trkpt lat="48.921780624689404" lon="4.367538958655042"><ele>103.0</ele><time>2026-05-01T12:41:26.999Z</time></trkpt><trkpt lat="48.92183448492339" lon="4.367471011104587"><ele>103.0</ele><time>2026-05-01T12:41:27.999Z</time></trkpt><trkpt lat="48.92188897689041" lon="4.367390617274246"><ele>103.0</ele><time>2026-05-01T12:41:28.999Z</time></trkpt><trkpt lat="48.92195543321895" lon="4.367265032574907"><ele>101.60000000000001</ele><time>2026-05-01T12:41:30.999Z</time></trkpt><trkpt lat="48.92204569034058" lon="4.367143509299083"><ele>100.2</ele><time>2026-05-01T12:41:32.999Z</time></trkpt><trkpt lat="48.92212550780433" lon="4.36702464699776"><ele>98.8</ele><time>2026-05-01T12:41:34.999Z</time></trkpt><trkpt lat="48.922201702717224" lon="4.366949300505505"><ele>97.4</ele><time>2026-05-01T12:41:36.999Z</time></trkpt><trkpt lat="48.92228216371838" lon="4.366929043640019"><ele>96.0</ele><time>2026-05-01T12:41:38.998Z</time></trkpt><trkpt lat="48.92237487857335" lon="4.366938329808765"><ele>96.0</ele><time>2026-05-01T12:41:40.998Z</time></trkpt><trkpt lat="48.92244802021195" lon="4.366992508379377"><ele>96.0</ele><time>2026-05-01T12:41:42.998Z</time></trkpt><trkpt lat="48.92253313293529" lon="4.367078694096914"><ele>96.0</ele><time>2026-05-01T12:41:44.998Z</time></trkpt><trkpt lat="48.92259962630143" lon="4.367057029258486"><ele>96.0</ele><time>2026-05-01T12:41:46.998Z</time></trkpt><trkpt lat="48.9226753360775" lon="4.366973246249518"><ele>96.0</ele><time>2026-05-01T12:41:48.998Z</time></trkpt><trkpt lat="48.92277657516631" lon="4.36685667074701"><ele>94.16666666666667</ele><time>2026-05-01T12:41:50.998Z</time></trkpt><trkpt lat="48.92283012070016" lon="4.36678699703197"><ele>92.33333333333333</ele><time>2026-05-01T12:41:51.998Z</time></trkpt><trkpt lat="48.922885544471775" lon="4.366723094677967"><ele>90.5</ele><time>2026-05-01T12:41:52.998Z</time></trkpt><trkpt lat="48.92294286785246" lon="4.366643842775033"><ele>88.66666666666666</ele><time>2026-05-01T12:41:53.998Z</time></trkpt><trkpt lat="48.92299596573559" lon="4.366572742285224"><ele>86.83333333333333</ele><time>2026-05-01T12:41:54.998Z</time></trkpt><trkpt lat="48.92306637743158" lon="4.366502577541031"><ele>85.0</ele><time>2026-05-01T12:41:55.998Z</time></trkpt><trkpt lat="48.92313661142496" lon="4.366428178959949"><ele>84.8</ele><time>2026-05-01T12:41:56.998Z</time></trkpt><trkpt lat="48.92318623544391" lon="4.36635631433519"><ele>84.6</ele><time>2026-05-01T12:41:57.998Z</time></trkpt><trkpt lat="48.92325927413684" lon="4.366277074545191"><ele>84.4</ele><time>2026-05-01T12:41:58.998Z</time></trkpt><trkpt lat="48.923347720279715" lon="4.366183755939147"><ele>84.2</ele><time>2026-05-01T12:41:59.998Z</time></trkpt><trkpt lat="48.92343171463193" lon="4.366065579102296"><ele>84.0</ele><time>2026-05-01T12:42:00.998Z</time></trkpt><trkpt lat="48.923506922842115" lon="4.365955215508643"><ele>84.0</ele><time>2026-05-01T12:42:01.998Z</time></trkpt><trkpt lat="48.92358185146416" lon="4.365879100605018"><ele>84.0</ele><time>2026-05-01T12:42:02.998Z</time></trkpt><trkpt lat="48.92363881783417" lon="4.36580143475546"><ele>84.0</ele><time>2026-05-01T12:42:03.998Z</time></trkpt><trkpt lat="48.92368536506284" lon="4.365731929570291"><ele>84.0</ele><time>2026-05-01T12:42:04.998Z</time></trkpt><trkpt lat="48.92374441713115" lon="4.365645526800196"><ele>84.0</ele><time>2026-05-01T12:42:05.998Z</time></trkpt><trkpt lat="48.923790224951695" lon="4.36556543704415"><ele>84.0</ele><time>2026-05-01T12:42:06.998Z</time></trkpt><trkpt lat="48.9238585786498" lon="4.36546690626133"><ele>84.28571428571429</ele><time>2026-05-01T12:42:09Z</time></trkpt><trkpt lat="48.92392285130628" lon="4.365383464799445"><ele>84.57142857142857</ele><time>2026-05-01T12:42:11Z</time></trkpt><trkpt lat="48.92395135275488" lon="4.365291855315518"><ele>84.85714285714286</ele><time>2026-05-01T12:42:15Z</time></trkpt><trkpt lat="48.924006134170845" lon="4.365204919244486"><ele>85.14285714285714</ele><time>2026-05-01T12:42:41Z</time></trkpt><trkpt lat="48.9240463939091" lon="4.365126525613081"><ele>85.42857142857143</ele><time>2026-05-01T12:42:46Z</time></trkpt><trkpt lat="48.92409615465762" lon="4.365045996982456"><ele>85.71428571428572</ele><time>2026-05-01T12:42:49.999Z</time></trkpt><trkpt lat="48.9241333748904" lon="4.364965940030639"><ele>86.0</ele><time>2026-05-01T12:43:07.999Z</time></trkpt><trkpt lat="48.92411049879219" lon="4.364873204839811"><ele>86.00000000000001</ele><time>2026-05-01T12:43:12.999Z</time></trkpt><trkpt lat="48.92412109861297" lon="4.364769571122874"><ele>86.0</ele><time>2026-05-01T12:43:36.999Z</time></trkpt><trkpt lat="48.92418359380697" lon="4.364725214334039"><ele>86.0</ele><time>2026-05-01T12:43:40.999Z</time></trkpt><trkpt lat="48.92423588258293" lon="4.3646212158564035"><ele>86.0</ele><time>2026-05-01T12:43:43.999Z</time></trkpt><trkpt lat="48.92429353700224" lon="4.364559711291866"><ele>86.0</ele><time>2026-05-01T12:43:44.998Z</time></trkpt><trkpt lat="48.9243496125901" lon="4.36447193865769"><ele>86.00000000000001</ele><time>2026-05-01T12:43:46.998Z</time></trkpt><trkpt lat="48.924362103549335" lon="4.364366851174636"><ele>86.0</ele><time>2026-05-01T12:43:50.998Z</time></trkpt><trkpt lat="48.924418821656566" lon="4.364241918152809"><ele>85.5</ele><time>2026-05-01T12:43:53.998Z</time></trkpt><trkpt lat="48.924421297671906" lon="4.364116633056272"><ele>85.0</ele><time>2026-05-01T12:43:55.998Z</time></trkpt><trkpt lat="48.924425120551945" lon="4.363989325237615"><ele>84.5</ele><time>2026-05-01T12:43:57.998Z</time></trkpt><trkpt lat="48.924417218167946" lon="4.3638787540229185"><ele>84.0</ele><time>2026-05-01T12:43:59.998Z</time></trkpt><trkpt lat="48.92447453352094" lon="4.363803941439422"><ele>83.5</ele><time>2026-05-01T12:44:02.998Z</time></trkpt><trkpt lat="48.92437695251177" lon="4.363783903710966"><ele>83.0</ele><time>2026-05-01T12:45:05.999Z</time></trkpt><trkpt lat="48.9243442728859" lon="4.3638691198238995"><ele>83.0</ele><time>2026-05-01T12:45:15.999Z</time></trkpt><trkpt lat="48.924273916585996" lon="4.363781778758309"><ele>83.0</ele><time>2026-05-01T12:45:19.999Z</time></trkpt><trkpt lat="48.924184894296886" lon="4.363723177447691"><ele>83.0</ele><time>2026-05-01T12:45:21.999Z</time></trkpt><trkpt lat="48.92406405573904" lon="4.363642873130849"><ele>83.0</ele><time>2026-05-01T12:45:23.999Z</time></trkpt><trkpt lat="48.92392335519301" lon="4.3635698182025475"><ele>83.2</ele><time>2026-05-01T12:45:25.999Z</time></trkpt><trkpt lat="48.92383522792235" lon="4.363528378058268"><ele>83.4</ele><time>2026-05-01T12:45:26.999Z</time></trkpt><trkpt lat="48.92375078942234" lon="4.363497812746853"><ele>83.60000000000001</ele><time>2026-05-01T12:45:27.999Z</time></trkpt><trkpt lat="48.923642975703736" lon="4.363389133926761"><ele>83.80000000000001</ele><time>2026-05-01T12:45:29.999Z</time></trkpt><trkpt lat="48.923567869374104" lon="4.363352176111928"><ele>84.0</ele><time>2026-05-01T12:45:30.999Z</time></trkpt><trkpt lat="48.92343982253152" lon="4.363288696772808"><ele>84.42857142857143</ele><time>2026-05-01T12:45:32.999Z</time></trkpt><trkpt lat="48.92336085137721" lon="4.363236452698322"><ele>84.85714285714286</ele><time>2026-05-01T12:45:33.999Z</time></trkpt><trkpt lat="48.923297559346636" lon="4.363170598487628"><ele>85.28571428571428</ele><time>2026-05-01T12:45:35.999Z</time></trkpt><trkpt lat="48.92324432678719" lon="4.363114051190335"><ele>85.71428571428572</ele><time>2026-05-01T12:45:37.999Z</time></trkpt><trkpt lat="48.92320103439901" lon="4.363040900152229"><ele>86.14285714285714</ele><time>2026-05-01T12:45:38.999Z</time></trkpt><trkpt lat="48.923160128502786" lon="4.362945173394582"><ele>86.57142857142857</ele><time>2026-05-01T12:45:39.999Z</time></trkpt><trkpt lat="48.923106246112866" lon="4.362855821377272"><ele>87.0</ele><time>2026-05-01T12:45:40.999Z</time></trkpt><trkpt lat="48.9230425430921" lon="4.362780005880718"><ele>87.0</ele><time>2026-05-01T12:45:42.999Z</time></trkpt><trkpt lat="48.92300020375289" lon="4.36265453066686"><ele>87.0</ele><time>2026-05-01T12:45:44.999Z</time></trkpt><trkpt lat="48.92300983967194" lon="4.362460602852837"><ele>87.0</ele><time>2026-05-01T12:45:46.999Z</time></trkpt><trkpt lat="48.92300894235382" lon="4.362356344781502"><ele>87.0</ele><time>2026-05-01T12:45:47.999Z</time></trkpt><trkpt lat="48.92295611098087" lon="4.362229550455899"><ele>87.0</ele><time>2026-05-01T12:45:49.999Z</time></trkpt><trkpt lat="48.92288276001512" lon="4.362143952495017"><ele>86.39999999999999</ele><time>2026-05-01T12:45:51.998Z</time></trkpt><trkpt lat="48.92287275602967" lon="4.36202249478624"><ele>85.8</ele><time>2026-05-01T12:45:54.998Z</time></trkpt><trkpt lat="48.922799438290916" lon="4.361881786630613"><ele>85.2</ele><time>2026-05-01T12:45:57.998Z</time></trkpt><trkpt lat="48.92275121961271" lon="4.361755954594567"><ele>84.6</ele><time>2026-05-01T12:46:00.998Z</time></trkpt><trkpt lat="48.92265421432672" lon="4.361577737158379"><ele>84.0</ele><time>2026-05-01T12:46:03.998Z</time></trkpt><trkpt lat="48.92259473142198" lon="4.361543469563437"><ele>84.2</ele><time>2026-05-01T12:46:05.998Z</time></trkpt><trkpt lat="48.922556997982525" lon="4.361449123539836"><ele>84.4</ele><time>2026-05-01T12:46:07.998Z</time></trkpt><trkpt lat="48.92247435167412" lon="4.361340364431076"><ele>84.6</ele><time>2026-05-01T12:46:09.998Z</time></trkpt><trkpt lat="48.92236845993712" lon="4.361279685369142"><ele>84.8</ele><time>2026-05-01T12:46:11.998Z</time></trkpt><trkpt lat="48.922292642922606" lon="4.36123315390135"><ele>85.0</ele><time>2026-05-01T12:46:13.998Z</time></trkpt><trkpt lat="48.922188050584026" lon="4.361160132210273"><ele>85.0</ele><time>2026-05-01T12:46:15.998Z</time></trkpt><trkpt lat="48.92207780821143" lon="4.361117207724131"><ele>85.0</ele><time>2026-05-01T12:46:17.998Z</time></trkpt><trkpt lat="48.922005208969864" lon="4.361062120477508"><ele>85.0</ele><time>2026-05-01T12:46:22Z</time></trkpt><trkpt lat="48.9219999336411" lon="4.361287647098398"><ele>85.0</ele><time>2026-05-01T12:46:56Z</time></trkpt><trkpt lat="48.922044980475135" lon="4.36144552653455"><ele>85.2</ele><time>2026-05-01T12:46:56.999Z</time></trkpt><trkpt lat="48.922086301686555" lon="4.361599416009524"><ele>85.4</ele><time>2026-05-01T12:46:57.999Z</time></trkpt><trkpt lat="48.92214447429124" lon="4.361777757780535"><ele>85.6</ele><time>2026-05-01T12:46:58.999Z</time></trkpt><trkpt lat="48.92218312059337" lon="4.3619086371810525"><ele>85.8</ele><time>2026-05-01T12:46:59.999Z</time></trkpt><trkpt lat="48.92225834981477" lon="4.362037500316208"><ele>86.0</ele><time>2026-05-01T12:47:01.999Z</time></trkpt><trkpt lat="48.92235838981739" lon="4.362208574806691"><ele>86.0</ele><time>2026-05-01T12:47:03.999Z</time></trkpt><trkpt lat="48.9222954650887" lon="4.362191483128418"><ele>86.0</ele><time>2026-05-01T12:47:22.999Z</time></trkpt><trkpt lat="48.92230481403653" lon="4.362071163215002"><ele>86.0</ele><time>2026-05-01T12:47:33.999Z</time></trkpt><trkpt lat="48.922245894062954" lon="4.361953847925552"><ele>86.0</ele><time>2026-05-01T12:47:36.999Z</time></trkpt><trkpt lat="48.92218868661961" lon="4.361808604401853"><ele>86.0</ele><time>2026-05-01T12:47:40.999Z</time></trkpt><trkpt lat="48.92215594312379" lon="4.361703504440493"><ele>86.0</ele><time>2026-05-01T12:47:43.999Z</time></trkpt><trkpt lat="48.922138924822754" lon="4.361529900467701"><ele>86.0</ele><time>2026-05-01T12:47:45.999Z</time></trkpt><trkpt lat="48.92208599069352" lon="4.361444493418236"><ele>86.0</ele><time>2026-05-01T12:47:49.999Z</time></trkpt><trkpt lat="48.92204028287022" lon="4.36131957300344"><ele>86.0</ele><time>2026-05-01T12:47:53.998Z</time></trkpt><trkpt lat="48.92203044529347" lon="4.3612035154721305"><ele>86.0</ele><time>2026-05-01T12:47:56.998Z</time></trkpt><trkpt lat="48.92196774098948" lon="4.361109061294275"><ele>86.0</ele><time>2026-05-01T12:47:59.998Z</time></trkpt><trkpt lat="48.92196631599637" lon="4.360911100474177"><ele>85.83333333333334</ele><time>2026-05-01T12:48:01.998Z</time></trkpt><trkpt lat="48.92192290127891" lon="4.360812254379888"><ele>85.66666666666667</ele><time>2026-05-01T12:48:02.998Z</time></trkpt><trkpt lat="48.921940031463784" lon="4.3606848931911415"><ele>85.5</ele><time>2026-05-01T12:48:04.998Z</time></trkpt><trkpt lat="48.92192959877491" lon="4.360550929383298"><ele>85.33333333333333</ele><time>2026-05-01T12:48:06.998Z</time></trkpt><trkpt lat="48.921966966910375" lon="4.360401936866246"><ele>85.16666666666666</ele><time>2026-05-01T12:48:09.998Z</time></trkpt><trkpt lat="48.92197829447867" lon="4.360282874126018"><ele>85.0</ele><time>2026-05-01T12:48:10.998Z</time></trkpt><trkpt lat="48.92198396252275" lon="4.3601729260856725"><ele>84.83333333333333</ele><time>2026-05-01T12:48:12.998Z</time></trkpt><trkpt lat="48.922006603784695" lon="4.360039088926417"><ele>84.66666666666666</ele><time>2026-05-01T12:48:14.998Z</time></trkpt><trkpt lat="48.92203519408899" lon="4.359931041527584"><ele>84.5</ele><time>2026-05-01T12:48:16.998Z</time></trkpt><trkpt lat="48.92204924827662" lon="4.359835427362599"><ele>84.33333333333333</ele><time>2026-05-01T12:48:17.998Z</time></trkpt><trkpt lat="48.922100093406435" lon="4.359709409938857"><ele>84.16666666666667</ele><time>2026-05-01T12:48:19.998Z</time></trkpt><trkpt lat="48.92213808850949" lon="4.359599917061592"><ele>84.0</ele><time>2026-05-01T12:48:21.998Z</time></trkpt><trkpt lat="48.922168473062776" lon="4.359470301627821"><ele>83.83333333333333</ele><time>2026-05-01T12:48:25.998Z</time></trkpt><trkpt lat="48.92223084203188" lon="4.359418404807265"><ele>83.66666666666667</ele><time>2026-05-01T12:48:27Z</time></trkpt><trkpt lat="48.92227934189551" lon="4.359335027413215"><ele>83.5</ele><time>2026-05-01T12:48:29Z</time></trkpt><trkpt lat="48.922331432650495" lon="4.359262280411266"><ele>83.33333333333334</ele><time>2026-05-01T12:48:31Z</time></trkpt><trkpt lat="48.922365946145995" lon="4.359153677214207"><ele>83.16666666666667</ele><time>2026-05-01T12:48:34Z</time></trkpt><trkpt lat="48.92238629520542" lon="4.359046178933904"><ele>83.0</ele><time>2026-05-01T12:48:37Z</time></trkpt><trkpt lat="48.922472429459354" lon="4.359016756527723"><ele>83.0</ele><time>2026-05-01T12:49:02Z</time></trkpt><trkpt lat="48.922467111338925" lon="4.3588811856864496"><ele>83.0</ele><time>2026-05-01T12:49:05Z</time></trkpt><trkpt lat="48.922449773179174" lon="4.358712385481149"><ele>83.0</ele><time>2026-05-01T12:49:07Z</time></trkpt><trkpt lat="48.92243986242263" lon="4.358542071208715"><ele>83.0</ele><time>2026-05-01T12:49:09Z</time></trkpt><trkpt lat="48.92246313274533" lon="4.35836917596579"><ele>83.0</ele><time>2026-05-01T12:49:10.999Z</time></trkpt><trkpt lat="48.92248616290387" lon="4.358199898751859"><ele>83.0</ele><time>2026-05-01T12:49:12.999Z</time></trkpt><trkpt lat="48.92253869665056" lon="4.358144737309708"><ele>83.0</ele><time>2026-05-01T12:49:14.999Z</time></trkpt><trkpt lat="48.92271521030104" lon="4.358042199506319"><ele>83.0</ele><time>2026-05-01T12:49:18.999Z</time></trkpt><trkpt lat="48.922797341510936" lon="4.3579929573871015"><ele>83.0</ele><time>2026-05-01T12:49:21.999Z</time></trkpt><trkpt lat="48.9228539049148" lon="4.3579448460708985"><ele>83.0</ele><time>2026-05-01T12:49:23.999Z</time></trkpt><trkpt lat="48.922701909852144" lon="4.358062520541782"><ele>83.0</ele><time>2026-05-01T12:49:59.999Z</time></trkpt><trkpt lat="48.92264079145307" lon="4.358101879780057"><ele>83.0</ele><time>2026-05-01T12:50:00.999Z</time></trkpt><trkpt lat="48.922571112859984" lon="4.358121192190141"><ele>83.0</ele><time>2026-05-01T12:50:02.999Z</time></trkpt><trkpt lat="48.922496066522584" lon="4.358155024106092"><ele>83.0</ele><time>2026-05-01T12:50:04.999Z</time></trkpt><trkpt lat="48.92246853886219" lon="4.358299142855666"><ele>83.0</ele><time>2026-05-01T12:50:07.998Z</time></trkpt><trkpt lat="48.922449040485155" lon="4.358490589422426"><ele>83.0</ele><time>2026-05-01T12:50:09.998Z</time></trkpt><trkpt lat="48.92244908467778" lon="4.358636426026588"><ele>83.0</ele><time>2026-05-01T12:50:11.998Z</time></trkpt><trkpt lat="48.92245910682101" lon="4.3587966282910084"><ele>83.0</ele><time>2026-05-01T12:50:13.998Z</time></trkpt><trkpt lat="48.92252580240196" lon="4.358911511471119"><ele>83.0</ele><time>2026-05-01T12:50:15.998Z</time></trkpt><trkpt lat="48.92258151919527" lon="4.35906567883437"><ele>83.0</ele><time>2026-05-01T12:50:17.998Z</time></trkpt><trkpt lat="48.922609112791314" lon="4.3591901532979795"><ele>83.0</ele><time>2026-05-01T12:50:19.998Z</time></trkpt><trkpt lat="48.92269677520217" lon="4.35937965439306"><ele>82.80000000000001</ele><time>2026-05-01T12:50:21.998Z</time></trkpt><trkpt lat="48.92275051733875" lon="4.359531698179728"><ele>82.6</ele><time>2026-05-01T12:50:22.998Z</time></trkpt><trkpt lat="48.922809547973486" lon="4.359703789797354"><ele>82.4</ele><time>2026-05-01T12:50:23.998Z</time></trkpt><trkpt lat="48.92283753562419" lon="4.359844873977265"><ele>82.19999999999999</ele><time>2026-05-01T12:50:24.998Z</time></trkpt><trkpt lat="48.92286030441842" lon="4.3599359469731285"><ele>82.0</ele><time>2026-05-01T12:50:25.998Z</time></trkpt><trkpt lat="48.92296561574248" lon="4.360071289956635"><ele>82.0</ele><time>2026-05-01T12:50:27.998Z</time></trkpt><trkpt lat="48.92304655596647" lon="4.36014632786801"><ele>82.0</ele><time>2026-05-01T12:50:28.998Z</time></trkpt><trkpt lat="48.92312860519673" lon="4.3602352804956395"><ele>82.0</ele><time>2026-05-01T12:50:29.998Z</time></trkpt><trkpt lat="48.92319588049304" lon="4.360312464046223"><ele>82.0</ele><time>2026-05-01T12:50:30.998Z</time></trkpt><trkpt lat="48.92329520579312" lon="4.360370527929468"><ele>82.0</ele><time>2026-05-01T12:50:33Z</time></trkpt><trkpt lat="48.923386258876725" lon="4.3603561003981355"><ele>82.0</ele><time>2026-05-01T12:50:35Z</time></trkpt><trkpt lat="48.92344919123378" lon="4.36031392635547"><ele>82.0</ele><time>2026-05-01T12:50:36Z</time></trkpt><trkpt lat="48.923509609450896" lon="4.360193424029748"><ele>82.0</ele><time>2026-05-01T12:50:38Z</time></trkpt><trkpt lat="48.92354184156113" lon="4.360088279932489"><ele>82.0</ele><time>2026-05-01T12:50:40Z</time></trkpt><trkpt lat="48.92364147402884" lon="4.360060988050111"><ele>82.0</ele><time>2026-05-01T12:50:42Z</time></trkpt><trkpt lat="48.92370544793792" lon="4.360094326031374"><ele>82.0</ele><time>2026-05-01T12:50:44Z</time></trkpt><trkpt lat="48.92378225003487" lon="4.360255369316525"><ele>82.0</ele><time>2026-05-01T12:50:46Z</time></trkpt><trkpt lat="48.92381471334872" lon="4.360345621334112"><ele>82.0</ele><time>2026-05-01T12:50:47Z</time></trkpt><trkpt lat="48.923824906538826" lon="4.360513872285769"><ele>82.0</ele><time>2026-05-01T12:50:49Z</time></trkpt><trkpt lat="48.92383288477459" lon="4.360690748855246"><ele>82.0</ele><time>2026-05-01T12:50:51Z</time></trkpt><trkpt lat="48.92385827251051" lon="4.360815708990154"><ele>82.0</ele><time>2026-05-01T12:50:53Z</time></trkpt><trkpt lat="48.923930402079584" lon="4.360957525743996"><ele>82.0</ele><time>2026-05-01T12:50:55Z</time></trkpt><trkpt lat="48.924037538194014" lon="4.361063893914652"><ele>82.0</ele><time>2026-05-01T12:50:57Z</time></trkpt><trkpt lat="48.924102092757074" lon="4.361099109895411"><ele>82.0</ele><time>2026-05-01T12:50:58Z</time></trkpt><trkpt lat="48.92421214622442" lon="4.361104484457273"><ele>82.0</ele><time>2026-05-01T12:51:00Z</time></trkpt><trkpt lat="48.92428601954068" lon="4.361087222984151"><ele>82.0</ele><time>2026-05-01T12:51:04Z</time></trkpt><trkpt lat="48.924405008981" lon="4.361086855031952"><ele>82.0</ele><time>2026-05-01T12:51:06Z</time></trkpt><trkpt lat="48.924468401477604" lon="4.361167116753125"><ele>82.0</ele><time>2026-05-01T12:51:07Z</time></trkpt><trkpt lat="48.92452415536317" lon="4.361267626492358"><ele>82.0</ele><time>2026-05-01T12:51:08Z</time></trkpt><trkpt lat="48.92457120243676" lon="4.361362861668138"><ele>82.0</ele><time>2026-05-01T12:51:09Z</time></trkpt><trkpt lat="48.92465338418709" lon="4.361497322389397"><ele>82.0</ele><time>2026-05-01T12:51:11Z</time></trkpt><trkpt lat="48.92476443350685" lon="4.3616135386703645"><ele>81.8</ele><time>2026-05-01T12:51:13Z</time></trkpt><trkpt lat="48.924911602119856" lon="4.361604803885977"><ele>81.6</ele><time>2026-05-01T12:51:15.999Z</time></trkpt><trkpt lat="48.92499924052373" lon="4.3615974907144555"><ele>81.39999999999999</ele><time>2026-05-01T12:51:16.999Z</time></trkpt><trkpt lat="48.9250675833529" lon="4.3615631618376645"><ele>81.19999999999999</ele><time>2026-05-01T12:51:17.999Z</time></trkpt><trkpt lat="48.92517115046389" lon="4.361520285584825"><ele>81.0</ele><time>2026-05-01T12:51:19.999Z</time></trkpt><trkpt lat="48.92526291825163" lon="4.361539515304868"><ele>81.5</ele><time>2026-05-01T12:51:21.999Z</time></trkpt><trkpt lat="48.92532617393668" lon="4.3616367851916955"><ele>82.0</ele><time>2026-05-01T12:51:23.999Z</time></trkpt><trkpt lat="48.925416114146834" lon="4.361724001053488"><ele>82.5</ele><time>2026-05-01T12:51:25.999Z</time></trkpt><trkpt lat="48.925468843580425" lon="4.3617814969157305"><ele>83.0</ele><time>2026-05-01T12:51:27.999Z</time></trkpt><trkpt lat="48.92550357588625" lon="4.361868840843616"><ele>83.5</ele><time>2026-05-01T12:51:28.999Z</time></trkpt><trkpt lat="48.92556301482379" lon="4.36193762775588"><ele>84.0</ele><time>2026-05-01T12:51:30.999Z</time></trkpt><trkpt lat="48.92559341202346" lon="4.362042274060202"><ele>84.0</ele><time>2026-05-01T12:51:33.999Z</time></trkpt><trkpt lat="48.92558021404735" lon="4.362154418349875"><ele>84.0</ele><time>2026-05-01T12:51:50.999Z</time></trkpt><trkpt lat="48.92555594379006" lon="4.362275791577628"><ele>84.0</ele><time>2026-05-01T12:51:54.999Z</time></trkpt><trkpt lat="48.92546930014667" lon="4.362379493446296"><ele>84.0</ele><time>2026-05-01T12:51:56.999Z</time></trkpt><trkpt lat="48.92540245937557" lon="4.362512403083061"><ele>84.0</ele><time>2026-05-01T12:51:58.999Z</time></trkpt><trkpt lat="48.925341801060455" lon="4.362616591743033"><ele>84.0</ele><time>2026-05-01T12:52:00.999Z</time></trkpt><trkpt lat="48.92530363080902" lon="4.362729961692724"><ele>84.0</ele><time>2026-05-01T12:52:02.999Z</time></trkpt><trkpt lat="48.92524829647646" lon="4.362815121589251"><ele>84.0</ele><time>2026-05-01T12:52:04.999Z</time></trkpt><trkpt lat="48.92519717172434" lon="4.362877193082722"><ele>84.0</ele><time>2026-05-01T12:52:06.999Z</time></trkpt><trkpt lat="48.92513340428828" lon="4.363009845468134"><ele>84.0</ele><time>2026-05-01T12:52:08.999Z</time></trkpt><trkpt lat="48.925099252596965" lon="4.363099468244327"><ele>84.0</ele><time>2026-05-01T12:52:09.999Z</time></trkpt><trkpt lat="48.92501462075036" lon="4.36327686499111"><ele>83.83333333333333</ele><time>2026-05-01T12:52:11.998Z</time></trkpt><trkpt lat="48.924950046509316" lon="4.363409526315528"><ele>83.66666666666667</ele><time>2026-05-01T12:52:13.998Z</time></trkpt><trkpt lat="48.92490640282291" lon="4.363508791010019"><ele>83.5</ele><time>2026-05-01T12:52:17.998Z</time></trkpt><trkpt lat="48.92485522046995" lon="4.3635724935146865"><ele>83.33333333333334</ele><time>2026-05-01T12:52:19.998Z</time></trkpt><trkpt lat="48.92478592689204" lon="4.363582149430923"><ele>83.16666666666667</ele><time>2026-05-01T12:52:22.998Z</time></trkpt><trkpt lat="48.92472255197712" lon="4.363560179303996"><ele>83.0</ele><time>2026-05-01T12:52:25.998Z</time></trkpt><trkpt lat="48.924649898004226" lon="4.3635847251489155"><ele>83.0</ele><time>2026-05-01T12:52:28.998Z</time></trkpt><trkpt lat="48.924559345321754" lon="4.363579824592569"><ele>83.0</ele><time>2026-05-01T12:52:54Z</time></trkpt><trkpt lat="48.92451405400416" lon="4.36366682580586"><ele>83.0</ele><time>2026-05-01T12:53:06Z</time></trkpt><trkpt lat="48.92444629761004" lon="4.363772076219516"><ele>83.0</ele><time>2026-05-01T12:53:08Z</time></trkpt><trkpt lat="48.924372604404034" lon="4.363866033660968"><ele>83.0</ele><time>2026-05-01T12:53:21Z</time></trkpt><trkpt lat="48.92440802449797" lon="4.363982604007297"><ele>83.0</ele><time>2026-05-01T12:53:23.999Z</time></trkpt><trkpt lat="48.92439728746747" lon="4.364160577769457"><ele>82.83333333333334</ele><time>2026-05-01T12:53:25.999Z</time></trkpt><trkpt lat="48.92437946043048" lon="4.364273087646033"><ele>82.66666666666667</ele><time>2026-05-01T12:53:27.999Z</time></trkpt><trkpt lat="48.92432151082791" lon="4.364371918663817"><ele>82.5</ele><time>2026-05-01T12:53:29.999Z</time></trkpt><trkpt lat="48.92425389763588" lon="4.364454347277061"><ele>82.33333333333333</ele><time>2026-05-01T12:53:31.999Z</time></trkpt><trkpt lat="48.924216173863954" lon="4.364553957544194"><ele>82.16666666666666</ele><time>2026-05-01T12:53:34.999Z</time></trkpt><trkpt lat="48.92418511805139" lon="4.3646787617286105"><ele>82.0</ele><time>2026-05-01T12:53:36.999Z</time></trkpt><trkpt lat="48.92413507771238" lon="4.364764533626979"><ele>82.57142857142857</ele><time>2026-05-01T12:53:38.999Z</time></trkpt><trkpt lat="48.92410284407244" lon="4.36486478409321"><ele>83.14285714285714</ele><time>2026-05-01T12:53:40.999Z</time></trkpt><trkpt lat="48.924131655009425" lon="4.3649705601779685"><ele>83.71428571428572</ele><time>2026-05-01T12:53:43.999Z</time></trkpt><trkpt lat="48.924121405889" lon="4.365076511779841"><ele>84.28571428571428</ele><time>2026-05-01T12:53:48.999Z</time></trkpt><trkpt lat="48.92406167138813" lon="4.365133762472356"><ele>84.85714285714286</ele><time>2026-05-01T12:53:51.999Z</time></trkpt><trkpt lat="48.92400604803155" lon="4.365204568033403"><ele>85.42857142857143</ele><time>2026-05-01T12:53:55.999Z</time></trkpt><trkpt lat="48.92394570918083" lon="4.365292606383746"><ele>86.0</ele><time>2026-05-01T12:53:59.999Z</time></trkpt><trkpt lat="48.92390036777489" lon="4.3653722784556"><ele>86.0</ele><time>2026-05-01T12:54:03.999Z</time></trkpt><trkpt lat="48.92382982732075" lon="4.365445634543489"><ele>86.0</ele><time>2026-05-01T12:55:10Z</time></trkpt><trkpt lat="48.92377645635701" lon="4.365543481702942"><ele>86.0</ele><time>2026-05-01T12:55:12Z</time></trkpt><trkpt lat="48.92373426328111" lon="4.365637428987534"><ele>86.0</ele><time>2026-05-01T12:55:14Z</time></trkpt><trkpt lat="48.923690316843086" lon="4.365716756317423"><ele>86.0</ele><time>2026-05-01T12:55:15Z</time></trkpt><trkpt lat="48.92362137840548" lon="4.365833807903192"><ele>86.0</ele><time>2026-05-01T12:55:17Z</time></trkpt><trkpt lat="48.92356737351623" lon="4.3659031393203085"><ele>85.8</ele><time>2026-05-01T12:55:18Z</time></trkpt><trkpt lat="48.9235098068975" lon="4.365984323632333"><ele>85.6</ele><time>2026-05-01T12:55:19Z</time></trkpt><trkpt lat="48.92344333629969" lon="4.366072339071814"><ele>85.4</ele><time>2026-05-01T12:55:20Z</time></trkpt><trkpt lat="48.923363078280005" lon="4.366190569070492"><ele>85.2</ele><time>2026-05-01T12:55:21Z</time></trkpt><trkpt lat="48.92324987053174" lon="4.366360391342652"><ele>85.0</ele><time>2026-05-01T12:55:22Z</time></trkpt><trkpt lat="48.92316671972825" lon="4.366454733325374"><ele>85.0</ele><time>2026-05-01T12:55:23Z</time></trkpt><trkpt lat="48.923076974067556" lon="4.366516514469845"><ele>85.0</ele><time>2026-05-01T12:55:24Z</time></trkpt><trkpt lat="48.92302529598866" lon="4.366600862976458"><ele>85.0</ele><time>2026-05-01T12:55:25Z</time></trkpt><trkpt lat="48.922948005343756" lon="4.3666739340538685"><ele>85.0</ele><time>2026-05-01T12:55:26Z</time></trkpt><trkpt lat="48.922875875483804" lon="4.366771307253515"><ele>85.0</ele><time>2026-05-01T12:55:27Z</time></trkpt><trkpt lat="48.92280835074048" lon="4.366851589703856"><ele>85.0</ele><time>2026-05-01T12:55:28Z</time></trkpt><trkpt lat="48.92274153622845" lon="4.366912083862562"><ele>85.0</ele><time>2026-05-01T12:55:29Z</time></trkpt><trkpt lat="48.92265569778395" lon="4.367003845390033"><ele>85.0</ele><time>2026-05-01T12:55:30.999Z</time></trkpt><trkpt lat="48.92259344712862" lon="4.36707804239981"><ele>85.0</ele><time>2026-05-01T12:55:32.999Z</time></trkpt><trkpt lat="48.92252145172124" lon="4.367051213852741"><ele>85.0</ele><time>2026-05-01T12:55:34.999Z</time></trkpt><trkpt lat="48.922408992707304" lon="4.3669679200858935"><ele>85.0</ele><time>2026-05-01T12:55:36.999Z</time></trkpt><trkpt lat="48.92233942766936" lon="4.366930105626786"><ele>86.0</ele><time>2026-05-01T12:55:37.999Z</time></trkpt><trkpt lat="48.922217291663536" lon="4.366973162861555"><ele>87.0</ele><time>2026-05-01T12:55:39.999Z</time></trkpt><trkpt lat="48.92213992827845" lon="4.367015516150032"><ele>88.0</ele><time>2026-05-01T12:55:40.999Z</time></trkpt><trkpt lat="48.92203743870801" lon="4.367143351062741"><ele>89.0</ele><time>2026-05-01T12:55:42.999Z</time></trkpt><trkpt lat="48.92198305782238" lon="4.367233447605259"><ele>90.0</ele><time>2026-05-01T12:55:43.999Z</time></trkpt><trkpt lat="48.921928005806656" lon="4.3673220264063195"><ele>90.0</ele><time>2026-05-01T12:55:44.999Z</time></trkpt><trkpt lat="48.92184532447499" lon="4.367453481574178"><ele>90.0</ele><time>2026-05-01T12:55:45.999Z</time></trkpt><trkpt lat="48.92177325190261" lon="4.3675567646039335"><ele>90.0</ele><time>2026-05-01T12:55:46.999Z</time></trkpt><trkpt lat="48.92171529862885" lon="4.367626948950385"><ele>90.0</ele><time>2026-05-01T12:55:47.999Z</time></trkpt><trkpt lat="48.92165249177959" lon="4.3676793863956815"><ele>90.0</ele><time>2026-05-01T12:55:48.999Z</time></trkpt><trkpt lat="48.92153638860038" lon="4.367705509096154"><ele>92.16666666666667</ele><time>2026-05-01T12:55:50.999Z</time></trkpt><trkpt lat="48.92146158020628" lon="4.367686254810741"><ele>94.33333333333334</ele><time>2026-05-01T12:55:51.999Z</time></trkpt><trkpt lat="48.92139702234569" lon="4.367636000547463"><ele>96.5</ele><time>2026-05-01T12:55:52.999Z</time></trkpt><trkpt lat="48.92130844133907" lon="4.367574907656163"><ele>98.66666666666667</ele><time>2026-05-01T12:55:54.999Z</time></trkpt><trkpt lat="48.92123671299041" lon="4.367673810395976"><ele>100.83333333333334</ele><time>2026-05-01T12:55:56.999Z</time></trkpt><trkpt lat="48.9211855624579" lon="4.367760933850169"><ele>103.0</ele><time>2026-05-01T12:55:57.999Z</time></trkpt><trkpt lat="48.92111249720287" lon="4.367871591750267"><ele>103.0</ele><time>2026-05-01T12:55:58.999Z</time></trkpt><trkpt lat="48.92104193780587" lon="4.367983510870631"><ele>103.0</ele><time>2026-05-01T12:55:59.999Z</time></trkpt><trkpt lat="48.92098421088335" lon="4.368075374517278"><ele>103.0</ele><time>2026-05-01T12:56:00.999Z</time></trkpt><trkpt lat="48.92090624998307" lon="4.3682056644543135"><ele>103.0</ele><time>2026-05-01T12:56:01.999Z</time></trkpt><trkpt lat="48.92080767369272" lon="4.368355270629831"><ele>103.0</ele><time>2026-05-01T12:56:02.999Z</time></trkpt><trkpt lat="48.92072864609664" lon="4.368487194932156"><ele>103.5</ele><time>2026-05-01T12:56:03.999Z</time></trkpt><trkpt lat="48.92065736132744" lon="4.368622388313224"><ele>104.0</ele><time>2026-05-01T12:56:04.999Z</time></trkpt><trkpt lat="48.92056771639691" lon="4.36879016286184"><ele>104.5</ele><time>2026-05-01T12:56:05.999Z</time></trkpt><trkpt lat="48.92048064305971" lon="4.368965142803671"><ele>105.0</ele><time>2026-05-01T12:56:06.999Z</time></trkpt><trkpt lat="48.92041212079312" lon="4.369103632991383"><ele>104.0</ele><time>2026-05-01T12:56:07.999Z</time></trkpt><trkpt lat="48.92034918610435" lon="4.369231232815942"><ele>103.0</ele><time>2026-05-01T12:56:08.999Z</time></trkpt><trkpt lat="48.92029786944522" lon="4.369351762403541"><ele>102.0</ele><time>2026-05-01T12:56:09.999Z</time></trkpt><trkpt lat="48.92023593021161" lon="4.369463062993602"><ele>101.0</ele><time>2026-05-01T12:56:10.999Z</time></trkpt><trkpt lat="48.920166561187465" lon="4.3695789083761065"><ele>100.0</ele><time>2026-05-01T12:56:11.999Z</time></trkpt><trkpt lat="48.92010063676959" lon="4.369666444058852"><ele>100.0</ele><time>2026-05-01T12:56:12.999Z</time></trkpt><trkpt lat="48.92003401869958" lon="4.36976896441431"><ele>100.0</ele><time>2026-05-01T12:56:13.999Z</time></trkpt><trkpt lat="48.91996562197291" lon="4.369882903157983"><ele>100.0</ele><time>2026-05-01T12:56:14.999Z</time></trkpt><trkpt lat="48.91987567171867" lon="4.370006093406086"><ele>100.0</ele><time>2026-05-01T12:56:15.999Z</time></trkpt><trkpt lat="48.91979936514063" lon="4.370114724298533"><ele>100.0</ele><time>2026-05-01T12:56:16.999Z</time></trkpt><trkpt lat="48.919726623514784" lon="4.370233247984229"><ele>100.0</ele><time>2026-05-01T12:56:17.999Z</time></trkpt><trkpt lat="48.919635310067676" lon="4.370345288157634"><ele>100.0</ele><time>2026-05-01T12:56:18.999Z</time></trkpt><trkpt lat="48.91955202444887" lon="4.3704093119825185"><ele>100.0</ele><time>2026-05-01T12:56:19.999Z</time></trkpt><trkpt lat="48.91943227658143" lon="4.3704550999875345"><ele>100.0</ele><time>2026-05-01T12:56:20.999Z</time></trkpt><trkpt lat="48.91931494588245" lon="4.370555020244169"><ele>100.6</ele><time>2026-05-01T12:56:21.999Z</time></trkpt><trkpt lat="48.919221771476934" lon="4.370637021567988"><ele>101.2</ele><time>2026-05-01T12:56:22.999Z</time></trkpt><trkpt lat="48.919134149291814" lon="4.370710650856059"><ele>101.80000000000001</ele><time>2026-05-01T12:56:23.999Z</time></trkpt><trkpt lat="48.91904610299281" lon="4.370778382357327"><ele>102.4</ele><time>2026-05-01T12:56:24.999Z</time></trkpt><trkpt lat="48.91895254107378" lon="4.370863082820202"><ele>103.0</ele><time>2026-05-01T12:56:25.998Z</time></trkpt><trkpt lat="48.918851671052465" lon="4.370937186268908"><ele>103.0</ele><time>2026-05-01T12:56:26.998Z</time></trkpt><trkpt lat="48.91874670484493" lon="4.371050595919397"><ele>103.0</ele><time>2026-05-01T12:56:27.998Z</time></trkpt><trkpt lat="48.91863035602371" lon="4.3711655136671155"><ele>103.0</ele><time>2026-05-01T12:56:28.998Z</time></trkpt><trkpt lat="48.91853580687651" lon="4.37128706222317"><ele>103.0</ele><time>2026-05-01T12:56:29.998Z</time></trkpt><trkpt lat="48.918453805213225" lon="4.371391302449159"><ele>103.00000000000001</ele><time>2026-05-01T12:56:30.998Z</time></trkpt><trkpt lat="48.91837974778693" lon="4.371478544717025"><ele>103.0</ele><time>2026-05-01T12:56:31.998Z</time></trkpt><trkpt lat="48.91831877528966" lon="4.371572062670426"><ele>103.0</ele><time>2026-05-01T12:56:32.998Z</time></trkpt><trkpt lat="48.91826918978779" lon="4.37164952606192"><ele>103.0</ele><time>2026-05-01T12:56:33.998Z</time></trkpt><trkpt lat="48.91820810455281" lon="4.3717340471324695"><ele>103.00000000000001</ele><time>2026-05-01T12:56:34.998Z</time></trkpt><trkpt lat="48.91813492700414" lon="4.371838810998497"><ele>103.0</ele><time>2026-05-01T12:56:35.998Z</time></trkpt><trkpt lat="48.91802407141848" lon="4.37191706252018"><ele>103.0</ele><time>2026-05-01T12:56:36.998Z</time></trkpt><trkpt lat="48.91793967780686" lon="4.3720046523184655"><ele>103.0</ele><time>2026-05-01T12:56:37.998Z</time></trkpt><trkpt lat="48.91784585093257" lon="4.372104052781588"><ele>103.0</ele><time>2026-05-01T12:56:38.998Z</time></trkpt><trkpt lat="48.9177575550442" lon="4.372211104516954"><ele>103.0</ele><time>2026-05-01T12:56:39.998Z</time></trkpt><trkpt lat="48.917681863013804" lon="4.372308408594974"><ele>103.0</ele><time>2026-05-01T12:56:40.998Z</time></trkpt><trkpt lat="48.91758996233332" lon="4.372409664304616"><ele>102.75</ele><time>2026-05-01T12:56:41.998Z</time></trkpt><trkpt lat="48.91748683685843" lon="4.372522979210496"><ele>102.5</ele><time>2026-05-01T12:56:42.998Z</time></trkpt><trkpt lat="48.91738585157963" lon="4.372662600605401"><ele>102.25</ele><time>2026-05-01T12:56:43.998Z</time></trkpt><trkpt lat="48.91730597732251" lon="4.372790761925421"><ele>102.0</ele><time>2026-05-01T12:56:44.998Z</time></trkpt><trkpt lat="48.9172248103763" lon="4.372931965002022"><ele>100.8</ele><time>2026-05-01T12:56:45.998Z</time></trkpt><trkpt lat="48.917168460834745" lon="4.373062385868817"><ele>99.6</ele><time>2026-05-01T12:56:46.998Z</time></trkpt><trkpt lat="48.917113305114064" lon="4.3732026613007875"><ele>98.39999999999999</ele><time>2026-05-01T12:56:47.998Z</time></trkpt><trkpt lat="48.917055539257255" lon="4.373332366234571"><ele>97.19999999999999</ele><time>2026-05-01T12:56:48.998Z</time></trkpt><trkpt lat="48.91700560090953" lon="4.373420786479769"><ele>96.0</ele><time>2026-05-01T12:56:49.998Z</time></trkpt><trkpt lat="48.91695033054962" lon="4.373489833984933"><ele>96.0</ele><time>2026-05-01T12:56:51Z</time></trkpt><trkpt lat="48.916879210947315" lon="4.373557460563809"><ele>96.0</ele><time>2026-05-01T12:56:52Z</time></trkpt><trkpt lat="48.91683042588039" lon="4.373619292854523"><ele>96.0</ele><time>2026-05-01T12:56:53Z</time></trkpt><trkpt lat="48.91677017951714" lon="4.373687803143215"><ele>96.0</ele><time>2026-05-01T12:56:54Z</time></trkpt><trkpt lat="48.91670120029363" lon="4.373740909320293"><ele>96.0</ele><time>2026-05-01T12:56:55Z</time></trkpt><trkpt lat="48.91661720829331" lon="4.373784002855948"><ele>96.0</ele><time>2026-05-01T12:56:56Z</time></trkpt><trkpt lat="48.916499796460926" lon="4.373813903340713"><ele>96.4</ele><time>2026-05-01T12:56:57Z</time></trkpt><trkpt lat="48.91639255975923" lon="4.373824343454492"><ele>96.8</ele><time>2026-05-01T12:56:58Z</time></trkpt><trkpt lat="48.91630433874038" lon="4.373824254378119"><ele>97.2</ele><time>2026-05-01T12:56:59Z</time></trkpt><trkpt lat="48.91624008009049" lon="4.3738334660071745"><ele>97.60000000000001</ele><time>2026-05-01T12:57:00Z</time></trkpt><trkpt lat="48.91617400300425" lon="4.3738559410341695"><ele>98.0</ele><time>2026-05-01T12:57:01Z</time></trkpt><trkpt lat="48.916054992960426" lon="4.3739779269919055"><ele>97.99999999999999</ele><time>2026-05-01T12:57:03Z</time></trkpt><trkpt lat="48.9160059798243" lon="4.374080177564399"><ele>98.0</ele><time>2026-05-01T12:57:04Z</time></trkpt><trkpt lat="48.915974455554235" lon="4.374171340844002"><ele>98.0</ele><time>2026-05-01T12:57:05Z</time></trkpt><trkpt lat="48.91597134462905" lon="4.374340589250016"><ele>98.0</ele><time>2026-05-01T12:57:07Z</time></trkpt><trkpt lat="48.91597225868775" lon="4.374479811469496"><ele>97.99999999999999</ele><time>2026-05-01T12:57:08Z</time></trkpt><trkpt lat="48.91596938793369" lon="4.374592900956494"><ele>98.0</ele><time>2026-05-01T12:57:09Z</time></trkpt><trkpt lat="48.91592980317062" lon="4.3747210270016454"><ele>98.60000000000001</ele><time>2026-05-01T12:57:10Z</time></trkpt><trkpt lat="48.91587575478011" lon="4.374821908571877"><ele>99.2</ele><time>2026-05-01T12:57:11Z</time></trkpt><trkpt lat="48.915810215590604" lon="4.374890744968913"><ele>99.8</ele><time>2026-05-01T12:57:12Z</time></trkpt><trkpt lat="48.915730595673324" lon="4.374964935044634"><ele>100.4</ele><time>2026-05-01T12:57:13Z</time></trkpt><trkpt lat="48.91565063070386" lon="4.375035439422371"><ele>101.0</ele><time>2026-05-01T12:57:14Z</time></trkpt><trkpt lat="48.9155244830728" lon="4.37514925766009"><ele>101.0</ele><time>2026-05-01T12:57:15Z</time></trkpt><trkpt lat="48.915383434244596" lon="4.375239100839545"><ele>101.0</ele><time>2026-05-01T12:57:16Z</time></trkpt><trkpt lat="48.91527435492401" lon="4.375326449126603"><ele>101.0</ele><time>2026-05-01T12:57:17Z</time></trkpt><trkpt lat="48.915171473924886" lon="4.375423051948084"><ele>101.0</ele><time>2026-05-01T12:57:18Z</time></trkpt><trkpt lat="48.915108483692094" lon="4.3755070807553285"><ele>101.16666666666666</ele><time>2026-05-01T12:57:19Z</time></trkpt><trkpt lat="48.91504625919118" lon="4.375597033133731"><ele>101.33333333333333</ele><time>2026-05-01T12:57:20Z</time></trkpt><trkpt lat="48.91498504066229" lon="4.375670075913883"><ele>101.5</ele><time>2026-05-01T12:57:21Z</time></trkpt><trkpt lat="48.91491130830104" lon="4.375758452269878"><ele>101.66666666666666</ele><time>2026-05-01T12:57:22Z</time></trkpt><trkpt lat="48.91482673317265" lon="4.375843847075751"><ele>101.83333333333333</ele><time>2026-05-01T12:57:23Z</time></trkpt><trkpt lat="48.9147443238438" lon="4.375895395487887"><ele>102.0</ele><time>2026-05-01T12:57:24Z</time></trkpt><trkpt lat="48.91467047096537" lon="4.375942768293218"><ele>102.0</ele><time>2026-05-01T12:57:25Z</time></trkpt><trkpt lat="48.91458571012165" lon="4.376001841162411"><ele>102.0</ele><time>2026-05-01T12:57:26Z</time></trkpt><trkpt lat="48.91447913604863" lon="4.376073790500051"><ele>102.0</ele><time>2026-05-01T12:57:27Z</time></trkpt><trkpt lat="48.91438644044373" lon="4.3761558731884325"><ele>102.0</ele><time>2026-05-01T12:57:28Z</time></trkpt><trkpt lat="48.9143113130429" lon="4.376221731172809"><ele>102.0</ele><time>2026-05-01T12:57:29Z</time></trkpt><trkpt lat="48.9142189771449" lon="4.376263062434729"><ele>102.33333333333333</ele><time>2026-05-01T12:57:30Z</time></trkpt><trkpt lat="48.91411387691422" lon="4.376283003568846"><ele>102.66666666666666</ele><time>2026-05-01T12:57:30.999Z</time></trkpt><trkpt lat="48.9140248832161" lon="4.376300174980173"><ele>103.0</ele><time>2026-05-01T12:57:31.999Z</time></trkpt><trkpt lat="48.91393994839731" lon="4.376310277880173"><ele>103.33333333333333</ele><time>2026-05-01T12:57:32.999Z</time></trkpt><trkpt lat="48.91387009499211" lon="4.37632419112969"><ele>103.66666666666666</ele><time>2026-05-01T12:57:33.999Z</time></trkpt><trkpt lat="48.913811638269465" lon="4.376389107974224"><ele>104.0</ele><time>2026-05-01T12:57:34.999Z</time></trkpt><trkpt lat="48.91376105169782" lon="4.376480348299142"><ele>104.25</ele><time>2026-05-01T12:57:35.999Z</time></trkpt><trkpt lat="48.913705332877036" lon="4.376635412195552"><ele>104.5</ele><time>2026-05-01T12:57:36.999Z</time></trkpt><trkpt lat="48.91361071552209" lon="4.37676283413838"><ele>104.75</ele><time>2026-05-01T12:57:37.999Z</time></trkpt><trkpt lat="48.913490042614214" lon="4.376865848536467"><ele>105.0</ele><time>2026-05-01T12:57:38.999Z</time></trkpt><trkpt lat="48.913385912361285" lon="4.376975896146885"><ele>105.0</ele><time>2026-05-01T12:57:39.999Z</time></trkpt><trkpt lat="48.91329601732019" lon="4.377069097318525"><ele>105.0</ele><time>2026-05-01T12:57:40.999Z</time></trkpt><trkpt lat="48.91321983148441" lon="4.377156112724064"><ele>105.0</ele><time>2026-05-01T12:57:41.999Z</time></trkpt><trkpt lat="48.91314130437016" lon="4.377252438000491"><ele>105.0</ele><time>2026-05-01T12:57:42.999Z</time></trkpt><trkpt lat="48.91308147519689" lon="4.377368806282637"><ele>105.0</ele><time>2026-05-01T12:57:43.999Z</time></trkpt><trkpt lat="48.91303576557337" lon="4.377503936906872"><ele>104.2</ele><time>2026-05-01T12:57:44.999Z</time></trkpt><trkpt lat="48.91299399689041" lon="4.377638038539809"><ele>103.4</ele><time>2026-05-01T12:57:45.999Z</time></trkpt><trkpt lat="48.91295699550702" lon="4.377754759534838"><ele>102.6</ele><time>2026-05-01T12:57:46.999Z</time></trkpt><trkpt lat="48.91290442303043" lon="4.377888527265924"><ele>101.8</ele><time>2026-05-01T12:57:47.999Z</time></trkpt><trkpt lat="48.91285372573577" lon="4.378017952418966"><ele>101.0</ele><time>2026-05-01T12:57:48.999Z</time></trkpt><trkpt lat="48.912799840689694" lon="4.378153309871713"><ele>101.19999999999999</ele><time>2026-05-01T12:57:49.999Z</time></trkpt><trkpt lat="48.91273254183611" lon="4.378276118128255"><ele>101.39999999999999</ele><time>2026-05-01T12:57:50.999Z</time></trkpt><trkpt lat="48.91268401801035" lon="4.378403159253952"><ele>101.6</ele><time>2026-05-01T12:57:51.999Z</time></trkpt><trkpt lat="48.91262918645655" lon="4.378525339963803"><ele>101.8</ele><time>2026-05-01T12:57:52.999Z</time></trkpt><trkpt lat="48.912577130939525" lon="4.378642871736314"><ele>102.0</ele><time>2026-05-01T12:57:53.999Z</time></trkpt><trkpt lat="48.912526500084425" lon="4.378747169597451"><ele>102.0</ele><time>2026-05-01T12:57:54.999Z</time></trkpt><trkpt lat="48.91248200502644" lon="4.378841846711033"><ele>102.0</ele><time>2026-05-01T12:57:55.999Z</time></trkpt><trkpt lat="48.912429431948595" lon="4.378937802526951"><ele>102.0</ele><time>2026-05-01T12:57:57.999Z</time></trkpt><trkpt lat="48.912361339250104" lon="4.379019368988804"><ele>102.0</ele><time>2026-05-01T12:58:00.999Z</time></trkpt><trkpt lat="48.91231036918387" lon="4.379118455003504"><ele>102.0</ele><time>2026-05-01T12:58:46.998Z</time></trkpt><trkpt lat="48.91229523656956" lon="4.379253305796665"><ele>102.0</ele><time>2026-05-01T12:58:48.998Z</time></trkpt><trkpt lat="48.91225002253339" lon="4.379400169635953"><ele>101.16666666666667</ele><time>2026-05-01T12:58:50.998Z</time></trkpt><trkpt lat="48.91222801301603" lon="4.379494831995789"><ele>100.33333333333334</ele><time>2026-05-01T12:58:51.998Z</time></trkpt><trkpt lat="48.91219977712948" lon="4.379589963889365"><ele>99.5</ele><time>2026-05-01T12:58:52.998Z</time></trkpt><trkpt lat="48.91216212490293" lon="4.379693013160166"><ele>98.66666666666667</ele><time>2026-05-01T12:58:53.998Z</time></trkpt><trkpt lat="48.91210060283367" lon="4.379807355375968"><ele>97.83333333333334</ele><time>2026-05-01T12:58:55.998Z</time></trkpt><trkpt lat="48.91200970705252" lon="4.379951231223056"><ele>97.0</ele><time>2026-05-01T12:58:58Z</time></trkpt><trkpt lat="48.91195737265934" lon="4.380048412657805"><ele>97.0</ele><time>2026-05-01T12:58:59Z</time></trkpt><trkpt lat="48.91189140628144" lon="4.3801626272773735"><ele>97.0</ele><time>2026-05-01T12:59:00Z</time></trkpt><trkpt lat="48.911804944881574" lon="4.380325638905359"><ele>97.0</ele><time>2026-05-01T12:59:01Z</time></trkpt><trkpt lat="48.91171883584075" lon="4.380470826441097"><ele>97.0</ele><time>2026-05-01T12:59:02Z</time></trkpt><trkpt lat="48.9116445215978" lon="4.380598915982862"><ele>95.83333333333334</ele><time>2026-05-01T12:59:03Z</time></trkpt><trkpt lat="48.911582055701786" lon="4.380709895041216"><ele>94.66666666666667</ele><time>2026-05-01T12:59:04Z</time></trkpt><trkpt lat="48.91152381469185" lon="4.380811472329053"><ele>93.5</ele><time>2026-05-01T12:59:05Z</time></trkpt><trkpt lat="48.91145751675145" lon="4.3809050300056525"><ele>92.33333333333334</ele><time>2026-05-01T12:59:06Z</time></trkpt><trkpt lat="48.91140545332564" lon="4.3809755185531785"><ele>91.16666666666667</ele><time>2026-05-01T12:59:07Z</time></trkpt><trkpt lat="48.91134633668434" lon="4.381078890669156"><ele>90.0</ele><time>2026-05-01T12:59:08Z</time></trkpt><trkpt lat="48.91126642140129" lon="4.381214290068856"><ele>90.0</ele><time>2026-05-01T12:59:09Z</time></trkpt><trkpt lat="48.91118799152445" lon="4.381339341143138"><ele>90.0</ele><time>2026-05-01T12:59:10Z</time></trkpt><trkpt lat="48.91111508401495" lon="4.381441365403225"><ele>90.0</ele><time>2026-05-01T12:59:11Z</time></trkpt><trkpt lat="48.911049682082464" lon="4.38153487190949"><ele>90.0</ele><time>2026-05-01T12:59:12Z</time></trkpt><trkpt lat="48.9110037494849" lon="4.381627333052806"><ele>90.0</ele><time>2026-05-01T12:59:13Z</time></trkpt><trkpt lat="48.910956403146194" lon="4.381703735529067"><ele>90.0</ele><time>2026-05-01T12:59:14Z</time></trkpt><trkpt lat="48.91091393638485" lon="4.381782423678024"><ele>90.42857142857143</ele><time>2026-05-01T12:59:15Z</time></trkpt><trkpt lat="48.910869503756075" lon="4.381853649542589"><ele>90.85714285714286</ele><time>2026-05-01T12:59:16Z</time></trkpt><trkpt lat="48.91082596450059" lon="4.381924508300317"><ele>91.28571428571429</ele><time>2026-05-01T12:59:17Z</time></trkpt><trkpt lat="48.9107534449406" lon="4.38203605650844"><ele>91.71428571428572</ele><time>2026-05-01T12:59:19Z</time></trkpt><trkpt lat="48.910704283081095" lon="4.382099857117659"><ele>92.14285714285714</ele><time>2026-05-01T12:59:20Z</time></trkpt><trkpt lat="48.91065766205934" lon="4.382177960139608"><ele>92.57142857142858</ele><time>2026-05-01T12:59:21Z</time></trkpt><trkpt lat="48.91060261432371" lon="4.382267112524882"><ele>93.0</ele><time>2026-05-01T12:59:22Z</time></trkpt><trkpt lat="48.91054310247198" lon="4.382342747839452"><ele>92.0</ele><time>2026-05-01T12:59:23Z</time></trkpt><trkpt lat="48.910494541534455" lon="4.382413052890162"><ele>91.0</ele><time>2026-05-01T12:59:24Z</time></trkpt><trkpt lat="48.91044383788268" lon="4.3824931377052785"><ele>90.0</ele><time>2026-05-01T12:59:25Z</time></trkpt><trkpt lat="48.91033743508732" lon="4.382640153106228"><ele>89.0</ele><time>2026-05-01T12:59:27Z</time></trkpt><trkpt lat="48.91027673419048" lon="4.3827120718843995"><ele>88.0</ele><time>2026-05-01T12:59:28Z</time></trkpt><trkpt lat="48.91021898907089" lon="4.38276994597651"><ele>87.0</ele><time>2026-05-01T12:59:29Z</time></trkpt><trkpt lat="48.91015409832391" lon="4.382846832611425"><ele>87.0</ele><time>2026-05-01T12:59:30Z</time></trkpt><trkpt lat="48.91009643062216" lon="4.3829131486971615"><ele>87.0</ele><time>2026-05-01T12:59:31Z</time></trkpt><trkpt lat="48.91003370178784" lon="4.382983974790366"><ele>87.0</ele><time>2026-05-01T12:59:32Z</time></trkpt><trkpt lat="48.909977959454444" lon="4.383078047615394"><ele>87.0</ele><time>2026-05-01T12:59:33Z</time></trkpt><trkpt lat="48.909933423081014" lon="4.383198765603642"><ele>87.0</ele><time>2026-05-01T12:59:33.999Z</time></trkpt><trkpt lat="48.90989022822495" lon="4.383301491786684"><ele>87.0</ele><time>2026-05-01T12:59:34.999Z</time></trkpt><trkpt lat="48.909838340160306" lon="4.38339666036042"><ele>87.8</ele><time>2026-05-01T12:59:35.999Z</time></trkpt><trkpt lat="48.90979429597578" lon="4.3834734544194305"><ele>88.6</ele><time>2026-05-01T12:59:36.999Z</time></trkpt><trkpt lat="48.90969080662398" lon="4.383589591482085"><ele>89.39999999999999</ele><time>2026-05-01T12:59:38.999Z</time></trkpt><trkpt lat="48.909621751053" lon="4.383663233098175"><ele>90.19999999999999</ele><time>2026-05-01T12:59:39.999Z</time></trkpt><trkpt lat="48.909541005518115" lon="4.383745284742026"><ele>91.0</ele><time>2026-05-01T12:59:40.999Z</time></trkpt><trkpt lat="48.909443453762854" lon="4.383872951350503"><ele>91.6</ele><time>2026-05-01T12:59:41.999Z</time></trkpt><trkpt lat="48.909351170538415" lon="4.383949811691519"><ele>92.19999999999999</ele><time>2026-05-01T12:59:42.999Z</time></trkpt><trkpt lat="48.90925448720052" lon="4.384034812624405"><ele>92.80000000000001</ele><time>2026-05-01T12:59:43.999Z</time></trkpt><trkpt lat="48.9091725528247" lon="4.384126112333348"><ele>93.4</ele><time>2026-05-01T12:59:44.999Z</time></trkpt><trkpt lat="48.90910492715286" lon="4.384191561374342"><ele>94.0</ele><time>2026-05-01T12:59:45.999Z</time></trkpt><trkpt lat="48.90902923439213" lon="4.384269190010998"><ele>94.0</ele><time>2026-05-01T12:59:46.999Z</time></trkpt><trkpt lat="48.90894143369962" lon="4.384345716896015"><ele>94.0</ele><time>2026-05-01T12:59:47.999Z</time></trkpt><trkpt lat="48.908862165781734" lon="4.38442210347184"><ele>94.0</ele><time>2026-05-01T12:59:48.999Z</time></trkpt><trkpt lat="48.90878835144709" lon="4.38449900705285"><ele>94.0</ele><time>2026-05-01T12:59:49.999Z</time></trkpt><trkpt lat="48.90872041034477" lon="4.384572891583854"><ele>94.0</ele><time>2026-05-01T12:59:50.999Z</time></trkpt><trkpt lat="48.90864464055389" lon="4.384651645206908"><ele>94.66666666666666</ele><time>2026-05-01T12:59:51.999Z</time></trkpt><trkpt lat="48.90856824492764" lon="4.384739010358405"><ele>95.33333333333333</ele><time>2026-05-01T12:59:52.999Z</time></trkpt><trkpt lat="48.90851554300264" lon="4.384844935060818"><ele>96.0</ele><time>2026-05-01T12:59:53.999Z</time></trkpt><trkpt lat="48.908463791476656" lon="4.384923635496979"><ele>96.66666666666666</ele><time>2026-05-01T12:59:54.999Z</time></trkpt><trkpt lat="48.908418296990696" lon="4.3849930814736195"><ele>97.33333333333333</ele><time>2026-05-01T12:59:55.999Z</time></trkpt><trkpt lat="48.90837390833861" lon="4.385086949604242"><ele>98.0</ele><time>2026-05-01T12:59:56.999Z</time></trkpt><trkpt lat="48.90832538993816" lon="4.385177982565753"><ele>98.0</ele><time>2026-05-01T12:59:57.999Z</time></trkpt><trkpt lat="48.90827839912881" lon="4.385246719074894"><ele>98.0</ele><time>2026-05-01T12:59:58.999Z</time></trkpt><trkpt lat="48.9082201446151" lon="4.385348762627783"><ele>98.0</ele><time>2026-05-01T12:59:59.999Z</time></trkpt><trkpt lat="48.908168618688286" lon="4.385425241861039"><ele>98.0</ele><time>2026-05-01T13:00:00.999Z</time></trkpt><trkpt lat="48.908125923021046" lon="4.385502215991972"><ele>98.0</ele><time>2026-05-01T13:00:01.999Z</time></trkpt><trkpt lat="48.90808403992969" lon="4.385581755264182"><ele>98.0</ele><time>2026-05-01T13:00:02.999Z</time></trkpt><trkpt lat="48.90804329189977" lon="4.385659247331966"><ele>98.0</ele><time>2026-05-01T13:00:03.999Z</time></trkpt><trkpt lat="48.90799933624964" lon="4.385744754762817"><ele>96.66666666666666</ele><time>2026-05-01T13:00:04.999Z</time></trkpt><trkpt lat="48.90794869436702" lon="4.3858189436840895"><ele>95.33333333333333</ele><time>2026-05-01T13:00:05.999Z</time></trkpt><trkpt lat="48.90790197759259" lon="4.385890400424709"><ele>94.0</ele><time>2026-05-01T13:00:06.999Z</time></trkpt><trkpt lat="48.907840345086" lon="4.386010139889971"><ele>92.66666666666666</ele><time>2026-05-01T13:00:07.999Z</time></trkpt><trkpt lat="48.90778527896316" lon="4.3861337601037045"><ele>91.33333333333333</ele><time>2026-05-01T13:00:08.999Z</time></trkpt><trkpt lat="48.90772462182767" lon="4.386269901426726"><ele>90.0</ele><time>2026-05-01T13:00:09.999Z</time></trkpt><trkpt lat="48.9076749685508" lon="4.386375264240862"><ele>89.0</ele><time>2026-05-01T13:00:10.999Z</time></trkpt><trkpt lat="48.90762968072404" lon="4.3864929113037805"><ele>88.0</ele><time>2026-05-01T13:00:11.999Z</time></trkpt><trkpt lat="48.907582967361414" lon="4.386604059824519"><ele>87.0</ele><time>2026-05-01T13:00:12.999Z</time></trkpt><trkpt lat="48.907534276157165" lon="4.386723986374431"><ele>86.0</ele><time>2026-05-01T13:00:13.999Z</time></trkpt><trkpt lat="48.90748246537642" lon="4.3868582122200666"><ele>85.0</ele><time>2026-05-01T13:00:14.999Z</time></trkpt><trkpt lat="48.90743500801901" lon="4.3869722188529146"><ele>86.66666666666666</ele><time>2026-05-01T13:00:15.999Z</time></trkpt><trkpt lat="48.907399078793965" lon="4.387092671103657"><ele>88.33333333333333</ele><time>2026-05-01T13:00:16.999Z</time></trkpt><trkpt lat="48.90736854839246" lon="4.387198223410205"><ele>90.0</ele><time>2026-05-01T13:00:17.999Z</time></trkpt><trkpt lat="48.90733082046552" lon="4.387314743567469"><ele>91.66666666666667</ele><time>2026-05-01T13:00:18.999Z</time></trkpt><trkpt lat="48.907282853599675" lon="4.3874345851504275"><ele>93.33333333333334</ele><time>2026-05-01T13:00:19.999Z</time></trkpt><trkpt lat="48.907246682598156" lon="4.387548584300637"><ele>95.0</ele><time>2026-05-01T13:00:20.999Z</time></trkpt><trkpt lat="48.90722464382244" lon="4.3876531919214035"><ele>95.0</ele><time>2026-05-01T13:00:21.999Z</time></trkpt><trkpt lat="48.90716633287548" lon="4.387846198209881"><ele>95.0</ele><time>2026-05-01T13:00:23.999Z</time></trkpt><trkpt lat="48.907137594305226" lon="4.387969114894344"><ele>95.0</ele><time>2026-05-01T13:00:24.999Z</time></trkpt><trkpt lat="48.90708004543347" lon="4.388122177619648"><ele>95.0</ele><time>2026-05-01T13:00:26.999Z</time></trkpt><trkpt lat="48.90705239898335" lon="4.388238116363048"><ele>95.0</ele><time>2026-05-01T13:00:27.999Z</time></trkpt><trkpt lat="48.907022222413225" lon="4.388344916699982"><ele>94.0</ele><time>2026-05-01T13:00:28.999Z</time></trkpt><trkpt lat="48.90698992790025" lon="4.388466835969484"><ele>93.0</ele><time>2026-05-01T13:00:29.999Z</time></trkpt><trkpt lat="48.906957041158776" lon="4.388585333117983"><ele>92.0</ele><time>2026-05-01T13:00:30.998Z</time></trkpt><trkpt lat="48.90693046115609" lon="4.388690830984634"><ele>91.0</ele><time>2026-05-01T13:00:31.998Z</time></trkpt><trkpt lat="48.906870964038355" lon="4.388830168629166"><ele>90.0</ele><time>2026-05-01T13:00:32.998Z</time></trkpt><trkpt lat="48.906814612096916" lon="4.388986578331677"><ele>89.16666666666667</ele><time>2026-05-01T13:00:33.998Z</time></trkpt><trkpt lat="48.906768816052995" lon="4.3891123885755"><ele>88.33333333333333</ele><time>2026-05-01T13:00:34.998Z</time></trkpt><trkpt lat="48.90673272326709" lon="4.389212826761489"><ele>87.5</ele><time>2026-05-01T13:00:35.998Z</time></trkpt><trkpt lat="48.90669332016947" lon="4.389290154517368"><ele>86.66666666666666</ele><time>2026-05-01T13:00:36.998Z</time></trkpt><trkpt lat="48.906628160885724" lon="4.389363280033488"><ele>85.83333333333333</ele><time>2026-05-01T13:00:37.998Z</time></trkpt><trkpt lat="48.906599378415265" lon="4.38949140726126"><ele>85.0</ele><time>2026-05-01T13:00:38.998Z</time></trkpt><trkpt lat="48.90658042754742" lon="4.3896305595229554"><ele>88.0</ele><time>2026-05-01T13:00:39.998Z</time></trkpt><trkpt lat="48.90656094388864" lon="4.389771201604973"><ele>91.0</ele><time>2026-05-01T13:00:40.998Z</time></trkpt><trkpt lat="48.90652767248857" lon="4.389897733633686"><ele>94.0</ele><time>2026-05-01T13:00:41.998Z</time></trkpt><trkpt lat="48.906502854792656" lon="4.390033527450707"><ele>97.0</ele><time>2026-05-01T13:00:42.998Z</time></trkpt><trkpt lat="48.90647504238959" lon="4.39016097361007"><ele>100.0</ele><time>2026-05-01T13:00:43.998Z</time></trkpt><trkpt lat="48.90643998689785" lon="4.3902931299036325"><ele>100.00000000000001</ele><time>2026-05-01T13:00:44.998Z</time></trkpt><trkpt lat="48.90640939371435" lon="4.390403776962137"><ele>100.0</ele><time>2026-05-01T13:00:45.998Z</time></trkpt><trkpt lat="48.90637739016204" lon="4.390509053823921"><ele>100.0</ele><time>2026-05-01T13:00:46.998Z</time></trkpt><trkpt lat="48.906315362595194" lon="4.390680175359083"><ele>100.0</ele><time>2026-05-01T13:00:48.998Z</time></trkpt><trkpt lat="48.9062844321644" lon="4.3907648431397375"><ele>100.00000000000001</ele><time>2026-05-01T13:00:49.998Z</time></trkpt><trkpt lat="48.90625308258227" lon="4.390850658299967"><ele>100.0</ele><time>2026-05-01T13:00:50.998Z</time></trkpt><trkpt lat="48.906215311231016" lon="4.390954052201357"><ele>99.16666666666667</ele><time>2026-05-01T13:00:51.998Z</time></trkpt><trkpt lat="48.906187730939855" lon="4.391084660050941"><ele>98.33333333333334</ele><time>2026-05-01T13:00:52.998Z</time></trkpt><trkpt lat="48.90614639270091" lon="4.391200257804576"><ele>97.5</ele><time>2026-05-01T13:00:53.998Z</time></trkpt><trkpt lat="48.90611667301063" lon="4.391294789089591"><ele>96.66666666666667</ele><time>2026-05-01T13:00:54.998Z</time></trkpt><trkpt lat="48.90607877113565" lon="4.391376026599768"><ele>95.83333333333334</ele><time>2026-05-01T13:00:55.998Z</time></trkpt><trkpt lat="48.906049506204695" lon="4.391476907553093"><ele>95.0</ele><time>2026-05-01T13:00:56.998Z</time></trkpt><trkpt lat="48.906019005902024" lon="4.391578742088217"><ele>95.0</ele><time>2026-05-01T13:00:57.998Z</time></trkpt><trkpt lat="48.90598406725845" lon="4.3916770245527825"><ele>95.0</ele><time>2026-05-01T13:00:58.998Z</time></trkpt><trkpt lat="48.9059468075565" lon="4.39177100923063"><ele>95.0</ele><time>2026-05-01T13:00:59.998Z</time></trkpt><trkpt lat="48.905904667608645" lon="4.391873486649609"><ele>95.0</ele><time>2026-05-01T13:01:00.998Z</time></trkpt><trkpt lat="48.905865102110006" lon="4.391969703414385"><ele>95.0</ele><time>2026-05-01T13:01:01.998Z</time></trkpt><trkpt lat="48.90583779541449" lon="4.392077625990466"><ele>95.0</ele><time>2026-05-01T13:01:03Z</time></trkpt><trkpt lat="48.90578956761657" lon="4.392179143838825"><ele>95.0</ele><time>2026-05-01T13:01:04Z</time></trkpt><trkpt lat="48.9057192889314" lon="4.392345232136906"><ele>95.0</ele><time>2026-05-01T13:01:06Z</time></trkpt><trkpt lat="48.905654035386384" lon="4.392428441953272"><ele>95.0</ele><time>2026-05-01T13:01:07Z</time></trkpt><trkpt lat="48.90560749913154" lon="4.392494023520644"><ele>95.0</ele><time>2026-05-01T13:01:08Z</time></trkpt><trkpt lat="48.90555725765026" lon="4.39255662339409"><ele>95.0</ele><time>2026-05-01T13:01:09Z</time></trkpt><trkpt lat="48.90548945962651" lon="4.392626683510228"><ele>95.0</ele><time>2026-05-01T13:01:10Z</time></trkpt><trkpt lat="48.90542245348322" lon="4.39268500472308"><ele>95.0</ele><time>2026-05-01T13:01:11Z</time></trkpt><trkpt lat="48.905363906511546" lon="4.392733940415601"><ele>95.0</ele><time>2026-05-01T13:01:12Z</time></trkpt><trkpt lat="48.90526201114558" lon="4.392853142390683"><ele>95.0</ele><time>2026-05-01T13:01:14Z</time></trkpt><trkpt lat="48.905203717135734" lon="4.392900315993746"><ele>95.0</ele><time>2026-05-01T13:01:15Z</time></trkpt><trkpt lat="48.90514578934158" lon="4.392955929220025"><ele>95.0</ele><time>2026-05-01T13:01:18Z</time></trkpt><trkpt lat="48.90508304969841" lon="4.393062253341697"><ele>95.0</ele><time>2026-05-01T13:02:51.998Z</time></trkpt><trkpt lat="48.905018857227724" lon="4.393137514965832"><ele>95.8</ele><time>2026-05-01T13:02:53.998Z</time></trkpt><trkpt lat="48.904933221125056" lon="4.393242403838947"><ele>96.6</ele><time>2026-05-01T13:02:55.998Z</time></trkpt><trkpt lat="48.90485504054324" lon="4.393267824136688"><ele>97.4</ele><time>2026-05-01T13:02:57.998Z</time></trkpt><trkpt lat="48.90477171906059" lon="4.393353464033044"><ele>98.2</ele><time>2026-05-01T13:02:59.998Z</time></trkpt><trkpt lat="48.90469939056613" lon="4.393401778139358"><ele>99.0</ele><time>2026-05-01T13:03:01.998Z</time></trkpt><trkpt lat="48.90461247730007" lon="4.39343871028138"><ele>99.0</ele><time>2026-05-01T13:03:03.998Z</time></trkpt><trkpt lat="48.904547702333026" lon="4.393460144119792"><ele>99.0</ele><time>2026-05-01T13:03:05.998Z</time></trkpt><trkpt lat="48.90446452352112" lon="4.393499506131831"><ele>99.0</ele><time>2026-05-01T13:03:07.998Z</time></trkpt><trkpt lat="48.904381725711545" lon="4.393599594083461"><ele>99.0</ele><time>2026-05-01T13:03:10Z</time></trkpt><trkpt lat="48.904343128047095" lon="4.393758995737056"><ele>99.0</ele><time>2026-05-01T13:03:12Z</time></trkpt><trkpt lat="48.90430090345746" lon="4.39388483618551"><ele>99.6</ele><time>2026-05-01T13:03:14Z</time></trkpt><trkpt lat="48.90425589576685" lon="4.394037119237635"><ele>100.2</ele><time>2026-05-01T13:03:16Z</time></trkpt><trkpt lat="48.904204006226614" lon="4.394187623794933"><ele>100.8</ele><time>2026-05-01T13:03:18Z</time></trkpt><trkpt lat="48.904144474144196" lon="4.394349874675797"><ele>101.39999999999999</ele><time>2026-05-01T13:03:20Z</time></trkpt><trkpt lat="48.904112471609466" lon="4.3944414706454475"><ele>102.0</ele><time>2026-05-01T13:03:21Z</time></trkpt><trkpt lat="48.90408305067651" lon="4.394539886432096"><ele>102.0</ele><time>2026-05-01T13:03:22Z</time></trkpt><trkpt lat="48.90405147892588" lon="4.394628386248633"><ele>102.0</ele><time>2026-05-01T13:03:23Z</time></trkpt><trkpt lat="48.904026626604846" lon="4.39472057645588"><ele>102.0</ele><time>2026-05-01T13:03:24Z</time></trkpt><trkpt lat="48.90399282087498" lon="4.394860965098753"><ele>102.0</ele><time>2026-05-01T13:03:26Z</time></trkpt><trkpt lat="48.90395749380448" lon="4.394972865283378"><ele>102.0</ele><time>2026-05-01T13:03:28Z</time></trkpt><trkpt lat="48.90389752455446" lon="4.395133495746854"><ele>102.0</ele><time>2026-05-01T13:03:30Z</time></trkpt><trkpt lat="48.903829338438264" lon="4.395237769666234"><ele>99.6</ele><time>2026-05-01T13:03:32Z</time></trkpt><trkpt lat="48.90374362558568" lon="4.395328308693374"><ele>97.19999999999999</ele><time>2026-05-01T13:03:34Z</time></trkpt><trkpt lat="48.903651108446475" lon="4.3954418645794595"><ele>94.8</ele><time>2026-05-01T13:03:36Z</time></trkpt><trkpt lat="48.9035683064673" lon="4.395562647859903"><ele>92.4</ele><time>2026-05-01T13:03:38Z</time></trkpt><trkpt lat="48.90348027965474" lon="4.395665611279477"><ele>90.0</ele><time>2026-05-01T13:03:40Z</time></trkpt><trkpt lat="48.90342645329251" lon="4.395739625924318"><ele>90.2</ele><time>2026-05-01T13:03:42Z</time></trkpt><trkpt lat="48.90334484962703" lon="4.39580835028881"><ele>90.4</ele><time>2026-05-01T13:03:45Z</time></trkpt><trkpt lat="48.90329127130152" lon="4.395873223258974"><ele>90.6</ele><time>2026-05-01T13:03:47Z</time></trkpt><trkpt lat="48.903144720637194" lon="4.39609234799467"><ele>90.8</ele><time>2026-05-01T13:03:56.999Z</time></trkpt><trkpt lat="48.90308469652325" lon="4.396132456690122"><ele>91.0</ele><time>2026-05-01T13:03:57.999Z</time></trkpt><trkpt lat="48.90300517337104" lon="4.39623168795152"><ele>90.16666666666666</ele><time>2026-05-01T13:03:59.999Z</time></trkpt><trkpt lat="48.90291439232916" lon="4.396348271825865"><ele>89.33333333333333</ele><time>2026-05-01T13:04:01.999Z</time></trkpt><trkpt lat="48.90285962264" lon="4.396420792189501"><ele>88.5</ele><time>2026-05-01T13:04:02.999Z</time></trkpt><trkpt lat="48.90279037550727" lon="4.396515443475774"><ele>87.66666666666667</ele><time>2026-05-01T13:04:04.999Z</time></trkpt><trkpt lat="48.90274231035868" lon="4.396581143022818"><ele>86.83333333333334</ele><time>2026-05-01T13:04:05.999Z</time></trkpt><trkpt lat="48.90269123406638" lon="4.396665990994585"><ele>86.0</ele><time>2026-05-01T13:04:06.999Z</time></trkpt><trkpt lat="48.90264044289888" lon="4.396741787026841"><ele>86.19999999999999</ele><time>2026-05-01T13:04:07.999Z</time></trkpt><trkpt lat="48.90257203935647" lon="4.396870214134541"><ele>86.39999999999999</ele><time>2026-05-01T13:04:09.999Z</time></trkpt><trkpt lat="48.90251727906355" lon="4.396941185828388"><ele>86.6</ele><time>2026-05-01T13:04:10.999Z</time></trkpt><trkpt lat="48.902439863189365" lon="4.397051846212835"><ele>86.8</ele><time>2026-05-01T13:04:12.999Z</time></trkpt><trkpt lat="48.90235640173746" lon="4.397174924652467"><ele>87.0</ele><time>2026-05-01T13:04:14.999Z</time></trkpt><trkpt lat="48.9023013374326" lon="4.397257240385024"><ele>86.5</ele><time>2026-05-01T13:04:15.999Z</time></trkpt><trkpt lat="48.90224564174446" lon="4.397327931514862"><ele>86.0</ele><time>2026-05-01T13:04:16.999Z</time></trkpt><trkpt lat="48.90218200194145" lon="4.397408793676598"><ele>85.5</ele><time>2026-05-01T13:04:17.999Z</time></trkpt><trkpt lat="48.902122401562835" lon="4.397527729426164"><ele>85.0</ele><time>2026-05-01T13:04:18.999Z</time></trkpt><trkpt lat="48.902092359087334" lon="4.397656446386692"><ele>84.5</ele><time>2026-05-01T13:04:19.999Z</time></trkpt><trkpt lat="48.90206859315526" lon="4.397799224871853"><ele>84.0</ele><time>2026-05-01T13:04:20.999Z</time></trkpt><trkpt lat="48.9020467879858" lon="4.397988052023559"><ele>84.0</ele><time>2026-05-01T13:04:21.999Z</time></trkpt><trkpt lat="48.902017282174995" lon="4.398191050070997"><ele>84.0</ele><time>2026-05-01T13:04:22.999Z</time></trkpt><trkpt lat="48.90197365423003" lon="4.39841102883657"><ele>84.0</ele><time>2026-05-01T13:04:23.999Z</time></trkpt><trkpt lat="48.90193077734167" lon="4.398610590024581"><ele>84.0</ele><time>2026-05-01T13:04:24.999Z</time></trkpt><trkpt lat="48.901900769779836" lon="4.398771617795177"><ele>84.2</ele><time>2026-05-01T13:04:25.999Z</time></trkpt><trkpt lat="48.90187919391295" lon="4.398912853592874"><ele>84.4</ele><time>2026-05-01T13:04:26.999Z</time></trkpt><trkpt lat="48.90185403085039" lon="4.399052148498046"><ele>84.6</ele><time>2026-05-01T13:04:27.999Z</time></trkpt><trkpt lat="48.90182667035404" lon="4.399192616785691"><ele>84.8</ele><time>2026-05-01T13:04:28.999Z</time></trkpt><trkpt lat="48.90180006105123" lon="4.39933516357787"><ele>85.0</ele><time>2026-05-01T13:04:29.999Z</time></trkpt><trkpt lat="48.90176798962871" lon="4.399467274350035"><ele>86.16666666666666</ele><time>2026-05-01T13:04:30.999Z</time></trkpt><trkpt lat="48.901725825617966" lon="4.399601196500982"><ele>87.33333333333333</ele><time>2026-05-01T13:04:31.999Z</time></trkpt><trkpt lat="48.901689820678065" lon="4.399715752535915"><ele>88.5</ele><time>2026-05-01T13:04:32.999Z</time></trkpt><trkpt lat="48.90162634040269" lon="4.399791663064447"><ele>89.66666666666667</ele><time>2026-05-01T13:04:33.999Z</time></trkpt><trkpt lat="48.90158216476029" lon="4.399898935863198"><ele>90.83333333333334</ele><time>2026-05-01T13:04:34.999Z</time></trkpt><trkpt lat="48.90150068893489" lon="4.399990026154894"><ele>92.0</ele><time>2026-05-01T13:04:35.999Z</time></trkpt><trkpt lat="48.90142192470787" lon="4.400102547817907"><ele>92.0</ele><time>2026-05-01T13:04:36.999Z</time></trkpt><trkpt lat="48.901341845300784" lon="4.40021005697355"><ele>92.0</ele><time>2026-05-01T13:04:37.999Z</time></trkpt><trkpt lat="48.901255024046364" lon="4.400320126705729"><ele>92.0</ele><time>2026-05-01T13:04:38.999Z</time></trkpt><trkpt lat="48.90116148185797" lon="4.400416036620519"><ele>92.0</ele><time>2026-05-01T13:04:39.999Z</time></trkpt><trkpt lat="48.901082855135456" lon="4.400509545874262"><ele>92.0</ele><time>2026-05-01T13:04:40.999Z</time></trkpt><trkpt lat="48.90100921186507" lon="4.400593898561724"><ele>91.83333333333334</ele><time>2026-05-01T13:04:41.999Z</time></trkpt><trkpt lat="48.90093822845024" lon="4.400666210147788"><ele>91.66666666666667</ele><time>2026-05-01T13:04:42.999Z</time></trkpt><trkpt lat="48.9008566788614" lon="4.400726197723931"><ele>91.5</ele><time>2026-05-01T13:04:43.999Z</time></trkpt><trkpt lat="48.90079234141169" lon="4.4008010769234485"><ele>91.33333333333333</ele><time>2026-05-01T13:04:44.999Z</time></trkpt><trkpt lat="48.90072747263053" lon="4.400856057364262"><ele>91.16666666666666</ele><time>2026-05-01T13:04:46.999Z</time></trkpt><trkpt lat="48.900620421762554" lon="4.400883462265137"><ele>91.0</ele><time>2026-05-01T13:04:48.999Z</time></trkpt><trkpt lat="48.90053770444619" lon="4.400908698629768"><ele>94.0</ele><time>2026-05-01T13:04:50.999Z</time></trkpt><trkpt lat="48.9004614101548" lon="4.40130644562242"><ele>97.0</ele><time>2026-05-01T13:04:52.998Z</time></trkpt><trkpt lat="48.90038961239064" lon="4.401408818358649"><ele>100.0</ele><time>2026-05-01T13:04:53.998Z</time></trkpt><trkpt lat="48.90030611603662" lon="4.401547230466658"><ele>100.0</ele><time>2026-05-01T13:04:55.998Z</time></trkpt><trkpt lat="48.90017802878664" lon="4.40129322376203"><ele>100.0</ele><time>2026-05-01T13:04:56.998Z</time></trkpt><trkpt lat="48.90011649548963" lon="4.401330517533469"><ele>100.0</ele><time>2026-05-01T13:04:57.998Z</time></trkpt><trkpt lat="48.90016349551404" lon="4.401759668478231"><ele>100.0</ele><time>2026-05-01T13:04:58.998Z</time></trkpt><trkpt lat="48.90008449952373" lon="4.401883507593373"><ele>100.0</ele><time>2026-05-01T13:05:00.998Z</time></trkpt><trkpt lat="48.90001699643237" lon="4.401992608254759"><ele>100.0</ele><time>2026-05-01T13:05:02.998Z</time></trkpt><trkpt lat="48.89993024527083" lon="4.4021182843761295"><ele>100.0</ele><time>2026-05-01T13:05:04.998Z</time></trkpt><trkpt lat="48.89985077468275" lon="4.4022445681234155"><ele>100.0</ele><time>2026-05-01T13:05:06.998Z</time></trkpt><trkpt lat="48.89977265431383" lon="4.40236097813192"><ele>100.0</ele><time>2026-05-01T13:05:08.998Z</time></trkpt><trkpt lat="48.89969919925086" lon="4.402467298921847"><ele>100.0</ele><time>2026-05-01T13:05:10.998Z</time></trkpt><trkpt lat="48.899629236976125" lon="4.402569359464127"><ele>100.0</ele><time>2026-05-01T13:05:12.998Z</time></trkpt><trkpt lat="48.89955809227698" lon="4.402700589664068"><ele>100.0</ele><time>2026-05-01T13:05:15Z</time></trkpt><trkpt lat="48.89954797497068" lon="4.402823480891712"><ele>100.0</ele><time>2026-05-01T13:05:17Z</time></trkpt><trkpt lat="48.89960212592878" lon="4.40294719082903"><ele>99.8</ele><time>2026-05-01T13:05:19Z</time></trkpt><trkpt lat="48.89968366552389" lon="4.403066974017643"><ele>99.6</ele><time>2026-05-01T13:05:21Z</time></trkpt><trkpt lat="48.89975906776888" lon="4.4031935606537305"><ele>99.4</ele><time>2026-05-01T13:05:23Z</time></trkpt><trkpt lat="48.899799294373175" lon="4.403275115016074"><ele>99.2</ele><time>2026-05-01T13:05:24Z</time></trkpt><trkpt lat="48.89986415944154" lon="4.403371025049645"><ele>99.0</ele><time>2026-05-01T13:05:25Z</time></trkpt><trkpt lat="48.899917186589505" lon="4.40345761047767"><ele>99.0</ele><time>2026-05-01T13:05:26Z</time></trkpt><trkpt lat="48.89996308510547" lon="4.40352433922226"><ele>99.0</ele><time>2026-05-01T13:05:27Z</time></trkpt><trkpt lat="48.90002970844223" lon="4.403654174318499"><ele>99.0</ele><time>2026-05-01T13:05:29Z</time></trkpt><trkpt lat="48.90006304744104" lon="4.4037456447414645"><ele>99.0</ele><time>2026-05-01T13:05:31Z</time></trkpt><trkpt lat="48.90004125611656" lon="4.403848526742594"><ele>99.0</ele><time>2026-05-01T13:05:33Z</time></trkpt><trkpt lat="48.89998825475396" lon="4.40398511588782"><ele>99.0</ele><time>2026-05-01T13:05:35Z</time></trkpt><trkpt lat="48.89993250270711" lon="4.404084526251278"><ele>98.0</ele><time>2026-05-01T13:05:37Z</time></trkpt><trkpt lat="48.89986270446078" lon="4.404180748631824"><ele>97.0</ele><time>2026-05-01T13:05:39Z</time></trkpt><trkpt lat="48.89980560945343" lon="4.404249149681272"><ele>96.0</ele><time>2026-05-01T13:05:41Z</time></trkpt><trkpt lat="48.89972997233535" lon="4.4043478099528865"><ele>95.0</ele><time>2026-05-01T13:05:43Z</time></trkpt><trkpt lat="48.89964276673532" lon="4.404447177934726"><ele>94.0</ele><time>2026-05-01T13:05:45Z</time></trkpt><trkpt lat="48.89956432631385" lon="4.404568493482342"><ele>93.0</ele><time>2026-05-01T13:05:47Z</time></trkpt><trkpt lat="48.89946772965621" lon="4.404678049563063"><ele>92.0</ele><time>2026-05-01T13:05:49Z</time></trkpt><trkpt lat="48.89938735649549" lon="4.404807882548391"><ele>91.0</ele><time>2026-05-01T13:05:51Z</time></trkpt><trkpt lat="48.899316629363575" lon="4.40493023472685"><ele>90.0</ele><time>2026-05-01T13:05:53Z</time></trkpt><trkpt lat="48.899235846211724" lon="4.405046899157644"><ele>90.0</ele><time>2026-05-01T13:05:55Z</time></trkpt><trkpt lat="48.899155266442996" lon="4.4051696650428775"><ele>90.0</ele><time>2026-05-01T13:05:57Z</time></trkpt><trkpt lat="48.89905858934601" lon="4.405303412435888"><ele>90.0</ele><time>2026-05-01T13:05:59Z</time></trkpt><trkpt lat="48.89896520311649" lon="4.4054023306952645"><ele>90.0</ele><time>2026-05-01T13:06:00.999Z</time></trkpt><trkpt lat="48.89887675153258" lon="4.405448588898823"><ele>88.8</ele><time>2026-05-01T13:06:02.999Z</time></trkpt><trkpt lat="48.89877128913846" lon="4.405528031966226"><ele>87.6</ele><time>2026-05-01T13:06:04.999Z</time></trkpt><trkpt lat="48.89865793420489" lon="4.4056051833723044"><ele>86.4</ele><time>2026-05-01T13:06:06.999Z</time></trkpt><trkpt lat="48.898579416483166" lon="4.4056467402923"><ele>85.2</ele><time>2026-05-01T13:06:08.999Z</time></trkpt><trkpt lat="48.89852737546412" lon="4.405702560931819"><ele>84.0</ele><time>2026-05-01T13:06:10.999Z</time></trkpt><trkpt lat="48.89849853521332" lon="4.4058083904160865"><ele>84.0</ele><time>2026-05-01T13:06:12.999Z</time></trkpt><trkpt lat="48.89849626585719" lon="4.405929648249722"><ele>84.0</ele><time>2026-05-01T13:06:14.999Z</time></trkpt><trkpt lat="48.898506401827156" lon="4.406025647535666"><ele>84.0</ele><time>2026-05-01T13:06:15.999Z</time></trkpt><trkpt lat="48.89852435748273" lon="4.406123350288191"><ele>84.0</ele><time>2026-05-01T13:06:16.999Z</time></trkpt><trkpt lat="48.89853867268844" lon="4.40629665025778"><ele>84.0</ele><time>2026-05-01T13:06:18.999Z</time></trkpt><trkpt lat="48.89852698390127" lon="4.4064472757088975"><ele>84.0</ele><time>2026-05-01T13:06:20.999Z</time></trkpt><trkpt lat="48.8984621465797" lon="4.406625522510744"><ele>84.0</ele><time>2026-05-01T13:06:22.999Z</time></trkpt><trkpt lat="48.898417275567354" lon="4.406697039707243"><ele>84.0</ele><time>2026-05-01T13:06:23.999Z</time></trkpt><trkpt lat="48.89836011556449" lon="4.4067646851686115"><ele>84.0</ele><time>2026-05-01T13:06:24.999Z</time></trkpt><trkpt lat="48.898302299235795" lon="4.406840939943413"><ele>84.0</ele><time>2026-05-01T13:06:25.999Z</time></trkpt><trkpt lat="48.89824477345656" lon="4.406913079076205"><ele>84.0</ele><time>2026-05-01T13:06:26.999Z</time></trkpt><trkpt lat="48.898189986736874" lon="4.40699535425015"><ele>84.0</ele><time>2026-05-01T13:06:27.999Z</time></trkpt><trkpt lat="48.89812190463161" lon="4.4070845704696575"><ele>83.83333333333333</ele><time>2026-05-01T13:06:28.999Z</time></trkpt><trkpt lat="48.89806491388202" lon="4.407163644999807"><ele>83.66666666666667</ele><time>2026-05-01T13:06:29.999Z</time></trkpt><trkpt lat="48.898008029404515" lon="4.4072481447216845"><ele>83.5</ele><time>2026-05-01T13:06:30.999Z</time></trkpt><trkpt lat="48.897940278463636" lon="4.407334206393285"><ele>83.33333333333334</ele><time>2026-05-01T13:06:31.999Z</time></trkpt><trkpt lat="48.89787837425001" lon="4.407427256442421"><ele>83.16666666666667</ele><time>2026-05-01T13:06:32.999Z</time></trkpt><trkpt lat="48.89781454718923" lon="4.407522927314807"><ele>83.0</ele><time>2026-05-01T13:06:33.999Z</time></trkpt><trkpt lat="48.89776446924418" lon="4.40758613229524"><ele>83.0</ele><time>2026-05-01T13:06:34.999Z</time></trkpt><trkpt lat="48.8976681000774" lon="4.407723644363416"><ele>83.0</ele><time>2026-05-01T13:06:36.999Z</time></trkpt><trkpt lat="48.8976217970529" lon="4.407791374111538"><ele>83.0</ele><time>2026-05-01T13:06:37.999Z</time></trkpt><trkpt lat="48.897531118127255" lon="4.407932941103492"><ele>83.0</ele><time>2026-05-01T13:06:39.999Z</time></trkpt><trkpt lat="48.897479725324885" lon="4.407999523296434"><ele>83.0</ele><time>2026-05-01T13:06:40.999Z</time></trkpt><trkpt lat="48.89741130439815" lon="4.4080768935864"><ele>83.2</ele><time>2026-05-01T13:06:41.999Z</time></trkpt><trkpt lat="48.89735090902377" lon="4.408160537608444"><ele>83.4</ele><time>2026-05-01T13:06:42.999Z</time></trkpt><trkpt lat="48.89729969898269" lon="4.40824646786687"><ele>83.60000000000001</ele><time>2026-05-01T13:06:43.999Z</time></trkpt><trkpt lat="48.897233289161456" lon="4.408351801195513"><ele>83.80000000000001</ele><time>2026-05-01T13:06:44.999Z</time></trkpt><trkpt lat="48.897164614098614" lon="4.40845068905152"><ele>84.0</ele><time>2026-05-01T13:06:45.999Z</time></trkpt><trkpt lat="48.897073275492794" lon="4.408568799743956"><ele>84.0</ele><time>2026-05-01T13:06:47.999Z</time></trkpt><trkpt lat="48.89702151537371" lon="4.408625811676068"><ele>84.0</ele><time>2026-05-01T13:06:48.999Z</time></trkpt><trkpt lat="48.89695001385371" lon="4.408704450380336"><ele>84.0</ele><time>2026-05-01T13:06:49.999Z</time></trkpt><trkpt lat="48.896888101912744" lon="4.408755417564238"><ele>84.0</ele><time>2026-05-01T13:06:50.999Z</time></trkpt><trkpt lat="48.89676154026045" lon="4.408780624989732"><ele>84.0</ele><time>2026-05-01T13:06:52.999Z</time></trkpt><trkpt lat="48.896699404178804" lon="4.408807394173365"><ele>84.0</ele><time>2026-05-01T13:06:53.999Z</time></trkpt><trkpt lat="48.896637803201415" lon="4.408869353049007"><ele>84.80000000000001</ele><time>2026-05-01T13:06:54.999Z</time></trkpt><trkpt lat="48.89657044901614" lon="4.408930669580224"><ele>85.60000000000001</ele><time>2026-05-01T13:06:55.999Z</time></trkpt><trkpt lat="48.896508550766725" lon="4.409023250860488"><ele>86.4</ele><time>2026-05-01T13:06:56.999Z</time></trkpt><trkpt lat="48.89643273723708" lon="4.409137966866561"><ele>87.2</ele><time>2026-05-01T13:06:57.999Z</time></trkpt><trkpt lat="48.89633475671613" lon="4.40928833627392"><ele>88.0</ele><time>2026-05-01T13:06:58.998Z</time></trkpt><trkpt lat="48.896221680781046" lon="4.40945121206185"><ele>88.0</ele><time>2026-05-01T13:06:59.998Z</time></trkpt><trkpt lat="48.89612357389041" lon="4.409582534316969"><ele>88.0</ele><time>2026-05-01T13:07:00.998Z</time></trkpt><trkpt lat="48.896041406917846" lon="4.409684517951422"><ele>88.0</ele><time>2026-05-01T13:07:01.998Z</time></trkpt><trkpt lat="48.895963035559504" lon="4.4097806207302614"><ele>88.0</ele><time>2026-05-01T13:07:02.998Z</time></trkpt><trkpt lat="48.895883488854" lon="4.409880190786761"><ele>88.0</ele><time>2026-05-01T13:07:03.998Z</time></trkpt><trkpt lat="48.89579028336789" lon="4.409970424980467"><ele>88.75</ele><time>2026-05-01T13:07:04.998Z</time></trkpt><trkpt lat="48.89568663325378" lon="4.41004534627501"><ele>89.5</ele><time>2026-05-01T13:07:05.998Z</time></trkpt><trkpt lat="48.895566215395036" lon="4.410117217192216"><ele>90.25</ele><time>2026-05-01T13:07:06.998Z</time></trkpt><trkpt lat="48.895427997872964" lon="4.410209965893049"><ele>91.0</ele><time>2026-05-01T13:07:07.998Z</time></trkpt><trkpt lat="48.895309647204954" lon="4.41029786939587"><ele>91.0</ele><time>2026-05-01T13:07:08.998Z</time></trkpt><trkpt lat="48.8952175412663" lon="4.41037437489937"><ele>91.0</ele><time>2026-05-01T13:07:09.998Z</time></trkpt><trkpt lat="48.895140311752826" lon="4.4104223165094325"><ele>91.0</ele><time>2026-05-01T13:07:10.998Z</time></trkpt><trkpt lat="48.89504410184038" lon="4.410471114293211"><ele>91.0</ele><time>2026-05-01T13:07:11.998Z</time></trkpt><trkpt lat="48.894952333742005" lon="4.410548639200331"><ele>91.0</ele><time>2026-05-01T13:07:12.998Z</time></trkpt><trkpt lat="48.89486059411564" lon="4.4106406022794475"><ele>91.83333333333333</ele><time>2026-05-01T13:07:13.998Z</time></trkpt><trkpt lat="48.89476354063276" lon="4.410717439990084"><ele>92.66666666666666</ele><time>2026-05-01T13:07:14.998Z</time></trkpt><trkpt lat="48.89468484313246" lon="4.410782023320366"><ele>93.5</ele><time>2026-05-01T13:07:15.998Z</time></trkpt><trkpt lat="48.894613794127416" lon="4.4108345139672585"><ele>94.33333333333333</ele><time>2026-05-01T13:07:16.998Z</time></trkpt><trkpt lat="48.89454820759543" lon="4.410882433979736"><ele>95.16666666666667</ele><time>2026-05-01T13:07:17.998Z</time></trkpt><trkpt lat="48.89448042834923" lon="4.410953521869414"><ele>96.0</ele><time>2026-05-01T13:07:18.998Z</time></trkpt><trkpt lat="48.89440908228231" lon="4.411001325214493"><ele>96.0</ele><time>2026-05-01T13:07:19.998Z</time></trkpt><trkpt lat="48.8943299534485" lon="4.411025818033857"><ele>96.0</ele><time>2026-05-01T13:07:21Z</time></trkpt><trkpt lat="48.89425402710835" lon="4.411035733540318"><ele>96.0</ele><time>2026-05-01T13:07:22Z</time></trkpt><trkpt lat="48.894191486689444" lon="4.411049708916024"><ele>96.0</ele><time>2026-05-01T13:07:23Z</time></trkpt><trkpt lat="48.89412953648852" lon="4.4110772854371385"><ele>96.0</ele><time>2026-05-01T13:07:24Z</time></trkpt><trkpt lat="48.89406027407161" lon="4.41112804126064"><ele>96.0</ele><time>2026-05-01T13:07:25Z</time></trkpt><trkpt lat="48.89396855138098" lon="4.411215398921402"><ele>95.8</ele><time>2026-05-01T13:07:27Z</time></trkpt><trkpt lat="48.893859484680085" lon="4.41131217706377"><ele>95.6</ele><time>2026-05-01T13:07:29Z</time></trkpt><trkpt lat="48.893787200086166" lon="4.4113839924704665"><ele>95.4</ele><time>2026-05-01T13:07:30Z</time></trkpt><trkpt lat="48.89370532662077" lon="4.411450409752069"><ele>95.2</ele><time>2026-05-01T13:07:31Z</time></trkpt><trkpt lat="48.89361895667194" lon="4.4115214608995315"><ele>95.0</ele><time>2026-05-01T13:07:32Z</time></trkpt><trkpt lat="48.89353517428934" lon="4.411575192466258"><ele>95.0</ele><time>2026-05-01T13:07:33Z</time></trkpt><trkpt lat="48.89346197479113" lon="4.411631821926635"><ele>95.0</ele><time>2026-05-01T13:07:34Z</time></trkpt><trkpt lat="48.893377934335355" lon="4.411689672623494"><ele>95.0</ele><time>2026-05-01T13:07:35Z</time></trkpt><trkpt lat="48.893306260578875" lon="4.411748535519167"><ele>95.0</ele><time>2026-05-01T13:07:36Z</time></trkpt><trkpt lat="48.893243157561535" lon="4.411791946598685"><ele>95.0</ele><time>2026-05-01T13:07:37Z</time></trkpt><trkpt lat="48.893177657393814" lon="4.411829091793529"><ele>95.0</ele><time>2026-05-01T13:07:38Z</time></trkpt><trkpt lat="48.89311325986043" lon="4.411876432861844"><ele>95.6</ele><time>2026-05-01T13:07:39Z</time></trkpt><trkpt lat="48.89304149927166" lon="4.411916051646441"><ele>96.2</ele><time>2026-05-01T13:07:40Z</time></trkpt><trkpt lat="48.89298430357687" lon="4.411975071966523"><ele>96.80000000000001</ele><time>2026-05-01T13:07:41Z</time></trkpt><trkpt lat="48.89290109084684" lon="4.41203160347857"><ele>97.4</ele><time>2026-05-01T13:07:42Z</time></trkpt><trkpt lat="48.89280658912421" lon="4.412105891650429"><ele>98.0</ele><time>2026-05-01T13:07:43Z</time></trkpt><trkpt lat="48.892711266582474" lon="4.412180664582804"><ele>96.0</ele><time>2026-05-01T13:07:44Z</time></trkpt><trkpt lat="48.892610214509375" lon="4.412259752988818"><ele>94.0</ele><time>2026-05-01T13:07:45Z</time></trkpt><trkpt lat="48.892501786634426" lon="4.412355942142499"><ele>92.0</ele><time>2026-05-01T13:07:46Z</time></trkpt><trkpt lat="48.892394235204456" lon="4.41243971890175"><ele>90.0</ele><time>2026-05-01T13:07:47Z</time></trkpt><trkpt lat="48.892288366226445" lon="4.412524916019342"><ele>90.0</ele><time>2026-05-01T13:07:48Z</time></trkpt><trkpt lat="48.89217260640877" lon="4.412595478873498"><ele>90.0</ele><time>2026-05-01T13:07:49Z</time></trkpt><trkpt lat="48.89205025515008" lon="4.412667757513017"><ele>90.0</ele><time>2026-05-01T13:07:50Z</time></trkpt><trkpt lat="48.89192628828399" lon="4.412742333917405"><ele>90.0</ele><time>2026-05-01T13:07:51Z</time></trkpt><trkpt lat="48.89181210159595" lon="4.412806663720406"><ele>89.83333333333333</ele><time>2026-05-01T13:07:52Z</time></trkpt><trkpt lat="48.89171212338926" lon="4.412849805069491"><ele>89.66666666666667</ele><time>2026-05-01T13:07:53Z</time></trkpt><trkpt lat="48.89161834757598" lon="4.412895574408464"><ele>89.5</ele><time>2026-05-01T13:07:54Z</time></trkpt><trkpt lat="48.89153927537852" lon="4.41293969049086"><ele>89.33333333333334</ele><time>2026-05-01T13:07:55Z</time></trkpt><trkpt lat="48.89146793701427" lon="4.412990822385086"><ele>89.16666666666667</ele><time>2026-05-01T13:07:56Z</time></trkpt><trkpt lat="48.89140152723385" lon="4.413021494484863"><ele>89.0</ele><time>2026-05-01T13:07:57Z</time></trkpt><trkpt lat="48.89132358244553" lon="4.413070874756069"><ele>88.5</ele><time>2026-05-01T13:07:58Z</time></trkpt><trkpt lat="48.89124186592521" lon="4.413114005566353"><ele>88.0</ele><time>2026-05-01T13:07:59Z</time></trkpt><trkpt lat="48.891177023158306" lon="4.413144165141173"><ele>87.5</ele><time>2026-05-01T13:08:00Z</time></trkpt><trkpt lat="48.89111719950478" lon="4.413174061081761"><ele>87.0</ele><time>2026-05-01T13:08:01Z</time></trkpt><trkpt lat="48.89103413706867" lon="4.413205195060111"><ele>86.5</ele><time>2026-05-01T13:08:02Z</time></trkpt><trkpt lat="48.89095497572705" lon="4.413248214457237"><ele>86.0</ele><time>2026-05-01T13:08:03Z</time></trkpt><trkpt lat="48.89086653988966" lon="4.413297245905761"><ele>86.0</ele><time>2026-05-01T13:08:04Z</time></trkpt><trkpt lat="48.890802929819905" lon="4.413349876602418"><ele>86.0</ele><time>2026-05-01T13:08:05Z</time></trkpt><trkpt lat="48.890709109179106" lon="4.4134007342289365"><ele>86.0</ele><time>2026-05-01T13:08:06.999Z</time></trkpt><trkpt lat="48.89060388443701" lon="4.413454318552305"><ele>86.0</ele><time>2026-05-01T13:08:08.999Z</time></trkpt><trkpt lat="48.89049134505802" lon="4.413509905397806"><ele>86.0</ele><time>2026-05-01T13:08:10.999Z</time></trkpt><trkpt lat="48.8904266243395" lon="4.413535906036418"><ele>86.0</ele><time>2026-05-01T13:08:11.999Z</time></trkpt><trkpt lat="48.89035604996235" lon="4.413578649851624"><ele>86.0</ele><time>2026-05-01T13:08:12.999Z</time></trkpt><trkpt lat="48.89027308513468" lon="4.413612956480784"><ele>86.0</ele><time>2026-05-01T13:08:13.999Z</time></trkpt><trkpt lat="48.8901848027454" lon="4.413655850229933"><ele>86.0</ele><time>2026-05-01T13:08:14.999Z</time></trkpt><trkpt lat="48.89008094592871" lon="4.4137093212297405"><ele>86.0</ele><time>2026-05-01T13:08:15.999Z</time></trkpt><trkpt lat="48.88995538443322" lon="4.413754782763572"><ele>86.5</ele><time>2026-05-01T13:08:16.999Z</time></trkpt><trkpt lat="48.88983722981469" lon="4.413797878395019"><ele>87.0</ele><time>2026-05-01T13:08:17.999Z</time></trkpt><trkpt lat="48.889716966032786" lon="4.413843472544753"><ele>87.5</ele><time>2026-05-01T13:08:18.999Z</time></trkpt><trkpt lat="48.889603422396675" lon="4.413885076256962"><ele>88.0</ele><time>2026-05-01T13:08:19.999Z</time></trkpt><trkpt lat="48.88948657347052" lon="4.413929076124122"><ele>88.0</ele><time>2026-05-01T13:08:20.999Z</time></trkpt><trkpt lat="48.889386619866684" lon="4.413964812823903"><ele>88.0</ele><time>2026-05-01T13:08:21.999Z</time></trkpt><trkpt lat="48.88930489758563" lon="4.41398350050941"><ele>88.0</ele><time>2026-05-01T13:08:22.999Z</time></trkpt><trkpt lat="48.88923105889676" lon="4.414002930069291"><ele>88.0</ele><time>2026-05-01T13:08:23.999Z</time></trkpt><trkpt lat="48.88916395126048" lon="4.414018379655969"><ele>88.0</ele><time>2026-05-01T13:08:24.999Z</time></trkpt><trkpt lat="48.88909950246325" lon="4.414031956805837"><ele>88.0</ele><time>2026-05-01T13:08:25.999Z</time></trkpt><trkpt lat="48.88899046917985" lon="4.414058225874176"><ele>88.0</ele><time>2026-05-01T13:08:27.999Z</time></trkpt><trkpt lat="48.88888724032664" lon="4.414090845435361"><ele>88.0</ele><time>2026-05-01T13:08:29.999Z</time></trkpt><trkpt lat="48.88882289572433" lon="4.4141052470539215"><ele>88.0</ele><time>2026-05-01T13:08:30.999Z</time></trkpt><trkpt lat="48.88872733375457" lon="4.4141313439354155"><ele>88.0</ele><time>2026-05-01T13:08:32.999Z</time></trkpt><trkpt lat="48.88861436403987" lon="4.414146716905951"><ele>88.0</ele><time>2026-05-01T13:08:34.999Z</time></trkpt><trkpt lat="48.888528726715975" lon="4.414141841084769"><ele>88.0</ele><time>2026-05-01T13:08:36.999Z</time></trkpt><trkpt lat="48.88842345899715" lon="4.41414427772086"><ele>88.0</ele><time>2026-05-01T13:08:38.999Z</time></trkpt><trkpt lat="48.88832211633535" lon="4.414122871714801"><ele>88.0</ele><time>2026-05-01T13:08:40.999Z</time></trkpt><trkpt lat="48.88823486163694" lon="4.414104509279383"><ele>88.0</ele><time>2026-05-01T13:08:42.999Z</time></trkpt><trkpt lat="48.88816880158898" lon="4.414102132154033"><ele>88.0</ele><time>2026-05-01T13:08:44.999Z</time></trkpt><trkpt lat="48.888077466225184" lon="4.414097465136073"><ele>88.0</ele><time>2026-05-01T13:08:47.999Z</time></trkpt><trkpt lat="48.88800927176791" lon="4.414099530509513"><ele>88.0</ele><time>2026-05-01T13:08:49.999Z</time></trkpt><trkpt lat="48.8879364701107" lon="4.4141045718079495"><ele>88.0</ele><time>2026-05-01T13:08:50.999Z</time></trkpt><trkpt lat="48.88784096868932" lon="4.414090229551323"><ele>88.0</ele><time>2026-05-01T13:08:51.999Z</time></trkpt><trkpt lat="48.887716854717965" lon="4.41409637392918"><ele>88.0</ele><time>2026-05-01T13:08:52.999Z</time></trkpt><trkpt lat="48.88757482821174" lon="4.414078535539694"><ele>88.0</ele><time>2026-05-01T13:08:53.999Z</time></trkpt><trkpt lat="48.887456804102406" lon="4.414049620432808"><ele>88.0</ele><time>2026-05-01T13:08:54.999Z</time></trkpt><trkpt lat="48.88735996370172" lon="4.4140392745667505"><ele>88.0</ele><time>2026-05-01T13:08:55.999Z</time></trkpt><trkpt lat="48.88728216503594" lon="4.414033298545393"><ele>88.0</ele><time>2026-05-01T13:08:56.999Z</time></trkpt><trkpt lat="48.887184491397946" lon="4.413996550853466"><ele>88.0</ele><time>2026-05-01T13:08:58.999Z</time></trkpt><trkpt lat="48.88710515737196" lon="4.413949995428587"><ele>88.0</ele><time>2026-05-01T13:09:01.999Z</time></trkpt><trkpt lat="48.8870526654399" lon="4.413888831149603"><ele>88.0</ele><time>2026-05-01T13:15:35.998Z</time></trkpt><trkpt lat="48.886965645168736" lon="4.413886528845229"><ele>88.0</ele><time>2026-05-01T13:15:39.998Z</time></trkpt><trkpt lat="48.88687492326336" lon="4.413818550867783"><ele>88.0</ele><time>2026-05-01T13:15:41.998Z</time></trkpt><trkpt lat="48.886770091978775" lon="4.413736847780509"><ele>88.0</ele><time>2026-05-01T13:15:43.998Z</time></trkpt><trkpt lat="48.886713655796676" lon="4.413691978394122"><ele>88.0</ele><time>2026-05-01T13:15:46Z</time></trkpt><trkpt lat="48.88664165645676" lon="4.413649148794951"><ele>88.0</ele><time>2026-05-01T13:15:48Z</time></trkpt><trkpt lat="48.8865854371642" lon="4.4135889183218815"><ele>88.0</ele><time>2026-05-01T13:15:50Z</time></trkpt><trkpt lat="48.88648792765254" lon="4.413501959211177"><ele>88.0</ele><time>2026-05-01T13:15:52Z</time></trkpt><trkpt lat="48.88639161059074" lon="4.413421487890527"><ele>88.0</ele><time>2026-05-01T13:15:54Z</time></trkpt><trkpt lat="48.88630760045818" lon="4.413334248466151"><ele>88.0</ele><time>2026-05-01T13:15:56Z</time></trkpt><trkpt lat="48.88622729129132" lon="4.413275907395263"><ele>88.0</ele><time>2026-05-01T13:15:58Z</time></trkpt><trkpt lat="48.88614478817816" lon="4.413197412932648"><ele>88.0</ele><time>2026-05-01T13:16:00Z</time></trkpt><trkpt lat="48.88606909663265" lon="4.413158972227141"><ele>88.0</ele><time>2026-05-01T13:16:02Z</time></trkpt><trkpt lat="48.886001770283606" lon="4.413099682888629"><ele>88.0</ele><time>2026-05-01T13:16:04Z</time></trkpt><trkpt lat="48.88591817749683" lon="4.413040277479981"><ele>88.0</ele><time>2026-05-01T13:16:06Z</time></trkpt><trkpt lat="48.88585324079478" lon="4.412998376853228"><ele>88.0</ele><time>2026-05-01T13:16:08Z</time></trkpt><trkpt lat="48.88576665985495" lon="4.412940679676772"><ele>87.80000000000001</ele><time>2026-05-01T13:16:10Z</time></trkpt><trkpt lat="48.885665000278806" lon="4.41289019141091"><ele>87.6</ele><time>2026-05-01T13:16:12Z</time></trkpt><trkpt lat="48.88557199658212" lon="4.412855733339401"><ele>87.4</ele><time>2026-05-01T13:16:15Z</time></trkpt><trkpt lat="48.885617261129944" lon="4.413018603946009"><ele>87.19999999999999</ele><time>2026-05-01T13:16:20Z</time></trkpt><trkpt lat="48.88569313243544" lon="4.413097993446244"><ele>87.0</ele><time>2026-05-01T13:16:22Z</time></trkpt><trkpt lat="48.885805354950215" lon="4.413158705082412"><ele>86.8</ele><time>2026-05-01T13:16:24Z</time></trkpt><trkpt lat="48.88590340519281" lon="4.413212098483252"><ele>86.6</ele><time>2026-05-01T13:16:26Z</time></trkpt><trkpt lat="48.88600559236035" lon="4.413303674663016"><ele>86.39999999999999</ele><time>2026-05-01T13:16:28Z</time></trkpt><trkpt lat="48.886105547473065" lon="4.413373565758048"><ele>86.19999999999999</ele><time>2026-05-01T13:16:30Z</time></trkpt><trkpt lat="48.886187806600304" lon="4.413457962370089"><ele>86.0</ele><time>2026-05-01T13:16:32Z</time></trkpt><trkpt lat="48.88628798360073" lon="4.413525195269847"><ele>86.4</ele><time>2026-05-01T13:16:34Z</time></trkpt><trkpt lat="48.886363992481144" lon="4.41359505937176"><ele>86.8</ele><time>2026-05-01T13:16:35.999Z</time></trkpt><trkpt lat="48.88646527760911" lon="4.413676862058311"><ele>87.2</ele><time>2026-05-01T13:16:38.999Z</time></trkpt><trkpt lat="48.88655553683492" lon="4.413759744085005"><ele>87.60000000000001</ele><time>2026-05-01T13:16:40.999Z</time></trkpt><trkpt lat="48.88664331379712" lon="4.413823046781068"><ele>88.0</ele><time>2026-05-01T13:16:42.999Z</time></trkpt><trkpt lat="48.88674809359673" lon="4.413853826697952"><ele>88.0</ele><time>2026-05-01T13:16:46.999Z</time></trkpt><trkpt lat="48.88687605613026" lon="4.41395100250843"><ele>88.0</ele><time>2026-05-01T13:16:48.999Z</time></trkpt><trkpt lat="48.88693505236646" lon="4.413998160063006"><ele>88.0</ele><time>2026-05-01T13:16:49.999Z</time></trkpt><trkpt lat="48.88699951655353" lon="4.414032978347208"><ele>88.0</ele><time>2026-05-01T13:16:50.999Z</time></trkpt><trkpt lat="48.887092173226364" lon="4.414129809760308"><ele>88.0</ele><time>2026-05-01T13:16:52.999Z</time></trkpt><trkpt lat="48.88719179790483" lon="4.414196681414052"><ele>88.0</ele><time>2026-05-01T13:16:54.999Z</time></trkpt><trkpt lat="48.88728444853101" lon="4.4142636455922935"><ele>88.0</ele><time>2026-05-01T13:16:56.999Z</time></trkpt><trkpt lat="48.887366476770914" lon="4.414321276892096"><ele>88.0</ele><time>2026-05-01T13:16:58.999Z</time></trkpt><trkpt lat="48.887435187564165" lon="4.414368626457365"><ele>88.0</ele><time>2026-05-01T13:17:00.999Z</time></trkpt><trkpt lat="48.887530415897494" lon="4.414446304009205"><ele>88.0</ele><time>2026-05-01T13:17:02.999Z</time></trkpt><trkpt lat="48.88760090609015" lon="4.4144789800011575"><ele>88.0</ele><time>2026-05-01T13:17:04.999Z</time></trkpt><trkpt lat="48.88767052411716" lon="4.414510139687917"><ele>88.0</ele><time>2026-05-01T13:17:06.999Z</time></trkpt><trkpt lat="48.88777586369029" lon="4.41452172211655"><ele>88.0</ele><time>2026-05-01T13:17:08.999Z</time></trkpt><trkpt lat="48.887887201255964" lon="4.4145128067364405"><ele>88.0</ele><time>2026-05-01T13:17:12.999Z</time></trkpt><trkpt lat="48.88795297103143" lon="4.414583881954271"><ele>88.0</ele><time>2026-05-01T13:17:15.999Z</time></trkpt><trkpt lat="48.888006427280175" lon="4.414644403695324"><ele>88.0</ele><time>2026-05-01T13:17:17.999Z</time></trkpt><trkpt lat="48.88808181362035" lon="4.414734651449353"><ele>87.5</ele><time>2026-05-01T13:17:19.999Z</time></trkpt><trkpt lat="48.88812934301969" lon="4.414843989063669"><ele>87.0</ele><time>2026-05-01T13:17:21.999Z</time></trkpt><trkpt lat="48.88816203226876" lon="4.4149566608487305"><ele>86.5</ele><time>2026-05-01T13:17:23.999Z</time></trkpt><trkpt lat="48.888192119384534" lon="4.4150654679088905"><ele>86.0</ele><time>2026-05-01T13:17:25.999Z</time></trkpt><trkpt lat="48.88823222748074" lon="4.415221014440915"><ele>85.5</ele><time>2026-05-01T13:17:27.999Z</time></trkpt><trkpt lat="48.88825665343117" lon="4.4153207931110945"><ele>85.0</ele><time>2026-05-01T13:17:31.999Z</time></trkpt><trkpt lat="48.888234449332344" lon="4.415462700443897"><ele>84.83333333333333</ele><time>2026-05-01T13:18:43Z</time></trkpt><trkpt lat="48.888179140732554" lon="4.4156123838511085"><ele>84.66666666666666</ele><time>2026-05-01T13:18:45Z</time></trkpt><trkpt lat="48.888162658286085" lon="4.415717309702787"><ele>84.5</ele><time>2026-05-01T13:18:47Z</time></trkpt><trkpt lat="48.888165459498694" lon="4.415830580617857"><ele>84.33333333333333</ele><time>2026-05-01T13:18:48Z</time></trkpt><trkpt lat="48.888178126784524" lon="4.415950947558494"><ele>84.16666666666667</ele><time>2026-05-01T13:18:49Z</time></trkpt><trkpt lat="48.88819844596492" lon="4.416080125347494"><ele>84.0</ele><time>2026-05-01T13:18:50Z</time></trkpt><trkpt lat="48.88821720768203" lon="4.416183395577517"><ele>84.0</ele><time>2026-05-01T13:18:51Z</time></trkpt><trkpt lat="48.88824868146577" lon="4.416310393270504"><ele>84.0</ele><time>2026-05-01T13:18:53Z</time></trkpt><trkpt lat="48.888252126526766" lon="4.416478472388248"><ele>84.0</ele><time>2026-05-01T13:18:54.999Z</time></trkpt><trkpt lat="48.8882724166693" lon="4.416598827857822"><ele>84.0</ele><time>2026-05-01T13:18:56.999Z</time></trkpt><trkpt lat="48.88828195601882" lon="4.416731798487054"><ele>84.0</ele><time>2026-05-01T13:18:58.999Z</time></trkpt><trkpt lat="48.888283197245954" lon="4.416845661247287"><ele>84.0</ele><time>2026-05-01T13:19:06.999Z</time></trkpt><trkpt lat="48.88830708874597" lon="4.416972583586404"><ele>83.83333333333333</ele><time>2026-05-01T13:19:08.999Z</time></trkpt><trkpt lat="48.88832151763639" lon="4.417107608263709"><ele>83.66666666666667</ele><time>2026-05-01T13:19:10.999Z</time></trkpt><trkpt lat="48.8883414233952" lon="4.4172120690766725"><ele>83.5</ele><time>2026-05-01T13:19:12.999Z</time></trkpt><trkpt lat="48.888364069507325" lon="4.41733801528432"><ele>83.33333333333334</ele><time>2026-05-01T13:19:14.999Z</time></trkpt><trkpt lat="48.88838541960925" lon="4.417478135938545"><ele>83.16666666666667</ele><time>2026-05-01T13:19:16.999Z</time></trkpt><trkpt lat="48.88840310402802" lon="4.417601113370538"><ele>83.0</ele><time>2026-05-01T13:19:18.999Z</time></trkpt><trkpt lat="48.888412214874954" lon="4.417706120146102"><ele>82.80000000000001</ele><time>2026-05-01T13:19:20.999Z</time></trkpt><trkpt lat="48.888450026858024" lon="4.4178592149005596"><ele>82.6</ele><time>2026-05-01T13:19:22.999Z</time></trkpt><trkpt lat="48.88845629744722" lon="4.417991849830314"><ele>82.4</ele><time>2026-05-01T13:19:24.999Z</time></trkpt><trkpt lat="48.888469476971444" lon="4.418111684672045"><ele>82.19999999999999</ele><time>2026-05-01T13:19:26.999Z</time></trkpt><trkpt lat="48.888499331769374" lon="4.418292140282142"><ele>82.0</ele><time>2026-05-01T13:19:28.999Z</time></trkpt><trkpt lat="48.88851856401071" lon="4.418444442466142"><ele>81.8</ele><time>2026-05-01T13:19:30.999Z</time></trkpt><trkpt lat="48.88853519302443" lon="4.418590873560563"><ele>81.6</ele><time>2026-05-01T13:19:32.999Z</time></trkpt><trkpt lat="48.88854521990129" lon="4.418724413498225"><ele>81.39999999999999</ele><time>2026-05-01T13:19:34.999Z</time></trkpt><trkpt lat="48.8885558853694" lon="4.4188790906058095"><ele>81.19999999999999</ele><time>2026-05-01T13:19:36.999Z</time></trkpt><trkpt lat="48.88857149881063" lon="4.418982122261755"><ele>81.0</ele><time>2026-05-01T13:19:38.999Z</time></trkpt><trkpt lat="48.88855551969726" lon="4.419130181387478"><ele>81.6</ele><time>2026-05-01T13:19:41.999Z</time></trkpt><trkpt lat="48.888564869330686" lon="4.419320496818154"><ele>82.19999999999999</ele><time>2026-05-01T13:19:43.999Z</time></trkpt><trkpt lat="48.88857102283302" lon="4.419484687202873"><ele>82.80000000000001</ele><time>2026-05-01T13:19:45.999Z</time></trkpt><trkpt lat="48.88857093386043" lon="4.4196141749936135"><ele>83.4</ele><time>2026-05-01T13:19:48.999Z</time></trkpt><trkpt lat="48.88857320945957" lon="4.419731973894066"><ele>84.0</ele><time>2026-05-01T13:19:50.999Z</time></trkpt><trkpt lat="48.88857217836278" lon="4.419856857160022"><ele>84.0</ele><time>2026-05-01T13:19:52.999Z</time></trkpt><trkpt lat="48.88856986591993" lon="4.420006111941394"><ele>84.0</ele><time>2026-05-01T13:19:54.999Z</time></trkpt><trkpt lat="48.888566161525496" lon="4.420118978449503"><ele>84.0</ele><time>2026-05-01T13:19:57Z</time></trkpt><trkpt lat="48.8885664063851" lon="4.420284247849121"><ele>84.0</ele><time>2026-05-01T13:19:59Z</time></trkpt><trkpt lat="48.88857115068591" lon="4.420434157951547"><ele>84.0</ele><time>2026-05-01T13:20:01Z</time></trkpt><trkpt lat="48.88856385312768" lon="4.420544686501623"><ele>83.83333333333333</ele><time>2026-05-01T13:20:03Z</time></trkpt><trkpt lat="48.88856799361765" lon="4.42064996343466"><ele>83.66666666666667</ele><time>2026-05-01T13:20:05Z</time></trkpt><trkpt lat="48.888549827120556" lon="4.420745881972937"><ele>83.5</ele><time>2026-05-01T13:20:07Z</time></trkpt><trkpt lat="48.888478595390154" lon="4.420785613926587"><ele>83.33333333333334</ele><time>2026-05-01T13:20:35Z</time></trkpt><trkpt lat="48.888407029731994" lon="4.4207934718328765"><ele>83.16666666666667</ele><time>2026-05-01T13:20:37Z</time></trkpt><trkpt lat="48.888336236422475" lon="4.420780815417778"><ele>83.0</ele><time>2026-05-01T13:20:39Z</time></trkpt><trkpt lat="48.88824178738123" lon="4.4207552209236"><ele>83.0</ele><time>2026-05-01T13:20:41Z</time></trkpt><trkpt lat="48.88815521887995" lon="4.420732269675533"><ele>83.0</ele><time>2026-05-01T13:20:43Z</time></trkpt><trkpt lat="48.88806281804327" lon="4.420704440288344"><ele>83.0</ele><time>2026-05-01T13:20:45Z</time></trkpt><trkpt lat="48.88796867723679" lon="4.420685976463084"><ele>83.0</ele><time>2026-05-01T13:20:47Z</time></trkpt><trkpt lat="48.88788136215555" lon="4.420653335466964"><ele>83.0</ele><time>2026-05-01T13:20:49Z</time></trkpt><trkpt lat="48.88779159119699" lon="4.420626252882281"><ele>83.0</ele><time>2026-05-01T13:20:51Z</time></trkpt><trkpt lat="48.88770637262987" lon="4.4205987912343"><ele>83.0</ele><time>2026-05-01T13:20:53Z</time></trkpt><trkpt lat="48.88761759637021" lon="4.420565532147315"><ele>83.0</ele><time>2026-05-01T13:20:54.999Z</time></trkpt><trkpt lat="48.88753759166446" lon="4.420539749533821"><ele>83.0</ele><time>2026-05-01T13:20:56.999Z</time></trkpt><trkpt lat="48.887459879653264" lon="4.420518537946699"><ele>83.0</ele><time>2026-05-01T13:20:58.999Z</time></trkpt><trkpt lat="48.887370735126844" lon="4.420487186633975"><ele>83.0</ele><time>2026-05-01T13:21:00.999Z</time></trkpt><trkpt lat="48.88730688357297" lon="4.420465758268903"><ele>83.4</ele><time>2026-05-01T13:21:01.999Z</time></trkpt><trkpt lat="48.88723903267697" lon="4.420433346381781"><ele>83.80000000000001</ele><time>2026-05-01T13:21:02.999Z</time></trkpt><trkpt lat="48.887142991288634" lon="4.420386211452457"><ele>84.2</ele><time>2026-05-01T13:21:04.999Z</time></trkpt><trkpt lat="48.88702720405252" lon="4.42033649807392"><ele>84.6</ele><time>2026-05-01T13:21:06.999Z</time></trkpt><trkpt lat="48.88692555132076" lon="4.420301344108856"><ele>85.0</ele><time>2026-05-01T13:21:08.999Z</time></trkpt><trkpt lat="48.88682236419883" lon="4.420301108022843"><ele>84.6</ele><time>2026-05-01T13:21:10.999Z</time></trkpt><trkpt lat="48.886752148510915" lon="4.420299590040243"><ele>84.2</ele><time>2026-05-01T13:21:11.999Z</time></trkpt><trkpt lat="48.886685203028236" lon="4.420301020078333"><ele>83.80000000000001</ele><time>2026-05-01T13:21:12.999Z</time></trkpt><trkpt lat="48.886580894333825" lon="4.420291172147153"><ele>83.4</ele><time>2026-05-01T13:21:14.999Z</time></trkpt><trkpt lat="48.88646822140164" lon="4.420260955591607"><ele>83.0</ele><time>2026-05-01T13:21:16.999Z</time></trkpt><trkpt lat="48.886365120891085" lon="4.420228905347562"><ele>83.0</ele><time>2026-05-01T13:21:18.999Z</time></trkpt><trkpt lat="48.88629586720797" lon="4.4202016473431875"><ele>83.0</ele><time>2026-05-01T13:21:19.999Z</time></trkpt><trkpt lat="48.88621049706518" lon="4.420170734240729"><ele>83.0</ele><time>2026-05-01T13:21:20.999Z</time></trkpt><trkpt lat="48.88611296903494" lon="4.420133024440645"><ele>83.0</ele><time>2026-05-01T13:21:21.999Z</time></trkpt><trkpt lat="48.8860238603764" lon="4.420102308326758"><ele>83.0</ele><time>2026-05-01T13:21:22.999Z</time></trkpt><trkpt lat="48.88595440083447" lon="4.420079691640693"><ele>83.0</ele><time>2026-05-01T13:21:23.999Z</time></trkpt><trkpt lat="48.885882150376425" lon="4.420056609948135"><ele>83.16666666666667</ele><time>2026-05-01T13:21:24.999Z</time></trkpt><trkpt lat="48.8858057068606" lon="4.420034883254471"><ele>83.33333333333334</ele><time>2026-05-01T13:21:25.999Z</time></trkpt><trkpt lat="48.88574030414979" lon="4.420019547012719"><ele>83.5</ele><time>2026-05-01T13:21:26.999Z</time></trkpt><trkpt lat="48.88567721479592" lon="4.420014451601703"><ele>83.66666666666667</ele><time>2026-05-01T13:21:27.999Z</time></trkpt><trkpt lat="48.88558702991578" lon="4.419984024815789"><ele>83.83333333333333</ele><time>2026-05-01T13:21:29.999Z</time></trkpt><trkpt lat="48.88549398831621" lon="4.419967527728797"><ele>84.0</ele><time>2026-05-01T13:21:30.999Z</time></trkpt><trkpt lat="48.885367394562884" lon="4.419918578131984"><ele>84.0</ele><time>2026-05-01T13:21:31.999Z</time></trkpt><trkpt lat="48.8852456035422" lon="4.4198889501551655"><ele>84.0</ele><time>2026-05-01T13:21:32.999Z</time></trkpt><trkpt lat="48.88516674665203" lon="4.419871142659991"><ele>84.0</ele><time>2026-05-01T13:21:33.999Z</time></trkpt><trkpt lat="48.885084555458555" lon="4.4198462186171295"><ele>84.0</ele><time>2026-05-01T13:21:34.999Z</time></trkpt><trkpt lat="48.88501285548965" lon="4.419820884899464"><ele>84.0</ele><time>2026-05-01T13:21:35.999Z</time></trkpt><trkpt lat="48.88494642488952" lon="4.419799821104404"><ele>84.0</ele><time>2026-05-01T13:21:36.999Z</time></trkpt><trkpt lat="48.88487796810438" lon="4.419783275915622"><ele>84.2</ele><time>2026-05-01T13:21:37.999Z</time></trkpt><trkpt lat="48.884780817020705" lon="4.419737466631504"><ele>84.4</ele><time>2026-05-01T13:21:39.999Z</time></trkpt><trkpt lat="48.88468629717081" lon="4.419672834503085"><ele>84.6</ele><time>2026-05-01T13:21:41.999Z</time></trkpt><trkpt lat="48.88460618494563" lon="4.419538290703533"><ele>84.8</ele><time>2026-05-01T13:21:43.999Z</time></trkpt><trkpt lat="48.88455734930773" lon="4.419398847526311"><ele>85.0</ele><time>2026-05-01T13:21:45.999Z</time></trkpt><trkpt lat="48.884539517453426" lon="4.4192867613342885"><ele>85.0</ele><time>2026-05-01T13:21:48.999Z</time></trkpt><trkpt lat="48.884474483376" lon="4.419221000175457"><ele>85.0</ele><time>2026-05-01T13:21:51.999Z</time></trkpt><trkpt lat="48.88440916825272" lon="4.4192297248593455"><ele>85.0</ele><time>2026-05-01T13:21:54.999Z</time></trkpt><trkpt lat="48.88422304545426" lon="4.419344260530479"><ele>85.0</ele><time>2026-05-01T13:23:22.999Z</time></trkpt><trkpt lat="48.884157800275865" lon="4.419423430993332"><ele>85.0</ele><time>2026-05-01T13:23:24.999Z</time></trkpt><trkpt lat="48.88409961315837" lon="4.419481759546253"><ele>85.0</ele><time>2026-05-01T13:23:25.999Z</time></trkpt><trkpt lat="48.88404299067895" lon="4.419536406327439"><ele>85.0</ele><time>2026-05-01T13:23:26.999Z</time></trkpt><trkpt lat="48.88395923966898" lon="4.419629139322836"><ele>85.0</ele><time>2026-05-01T13:23:28.999Z</time></trkpt><trkpt lat="48.8838990853497" lon="4.4196849230786635"><ele>85.0</ele><time>2026-05-01T13:23:29.999Z</time></trkpt><trkpt lat="48.88384362171631" lon="4.41974351011647"><ele>85.0</ele><time>2026-05-01T13:23:30.999Z</time></trkpt><trkpt lat="48.883767510614625" lon="4.419837126256118"><ele>85.0</ele><time>2026-05-01T13:23:32.999Z</time></trkpt><trkpt lat="48.88370440933119" lon="4.4199114072757455"><ele>85.0</ele><time>2026-05-01T13:23:34.999Z</time></trkpt><trkpt lat="48.883644988096385" lon="4.419962022445226"><ele>85.0</ele><time>2026-05-01T13:23:35.999Z</time></trkpt><trkpt lat="48.88358370802581" lon="4.420012223121769"><ele>85.0</ele><time>2026-05-01T13:23:36.999Z</time></trkpt><trkpt lat="48.88351995179142" lon="4.420066285469359"><ele>85.0</ele><time>2026-05-01T13:23:37.999Z</time></trkpt><trkpt lat="48.883419983645005" lon="4.420101105762305"><ele>85.0</ele><time>2026-05-01T13:23:38.999Z</time></trkpt><trkpt lat="48.883302920165086" lon="4.420171713976119"><ele>85.0</ele><time>2026-05-01T13:23:39.999Z</time></trkpt><trkpt lat="48.883189024087095" lon="4.4202348483882075"><ele>85.66666666666666</ele><time>2026-05-01T13:23:40.999Z</time></trkpt><trkpt lat="48.88298326213325" lon="4.4203280388997035"><ele>86.33333333333333</ele><time>2026-05-01T13:23:41.999Z</time></trkpt><trkpt lat="48.882854571846515" lon="4.420416465779268"><ele>87.0</ele><time>2026-05-01T13:23:42.999Z</time></trkpt><trkpt lat="48.88274413100141" lon="4.420480829188568"><ele>86.8</ele><time>2026-05-01T13:23:43.999Z</time></trkpt><trkpt lat="48.88264074034222" lon="4.420520654655225"><ele>86.6</ele><time>2026-05-01T13:23:44.999Z</time></trkpt><trkpt lat="48.88253972197763" lon="4.420587013491176"><ele>86.39999999999999</ele><time>2026-05-01T13:23:45.999Z</time></trkpt><trkpt lat="48.88244534105178" lon="4.420642085617224"><ele>86.19999999999999</ele><time>2026-05-01T13:23:46.999Z</time></trkpt><trkpt lat="48.8823484071696" lon="4.420694621343046"><ele>86.0</ele><time>2026-05-01T13:23:47.999Z</time></trkpt><trkpt lat="48.88225966616835" lon="4.42074048306075"><ele>85.66666666666667</ele><time>2026-05-01T13:23:48.999Z</time></trkpt><trkpt lat="48.88217470069059" lon="4.42077016062869"><ele>85.33333333333334</ele><time>2026-05-01T13:23:49.999Z</time></trkpt><trkpt lat="48.882099319041394" lon="4.420815507990708"><ele>85.0</ele><time>2026-05-01T13:23:50.999Z</time></trkpt><trkpt lat="48.882026762927936" lon="4.420854559932767"><ele>84.66666666666667</ele><time>2026-05-01T13:23:51.999Z</time></trkpt><trkpt lat="48.88194801256277" lon="4.420879720857896"><ele>84.33333333333333</ele><time>2026-05-01T13:23:52.999Z</time></trkpt><trkpt lat="48.881867396493746" lon="4.42090210407822"><ele>84.0</ele><time>2026-05-01T13:23:53.999Z</time></trkpt><trkpt lat="48.881784154873245" lon="4.420936788675304"><ele>84.16666666666667</ele><time>2026-05-01T13:23:54.999Z</time></trkpt><trkpt lat="48.881709582825984" lon="4.420946052414116"><ele>84.33333333333333</ele><time>2026-05-01T13:23:55.999Z</time></trkpt><trkpt lat="48.8816301490812" lon="4.420951496546993"><ele>84.5</ele><time>2026-05-01T13:23:56.999Z</time></trkpt><trkpt lat="48.881537307141535" lon="4.420953397268411"><ele>84.66666666666666</ele><time>2026-05-01T13:23:57.999Z</time></trkpt><trkpt lat="48.881462735034894" lon="4.420958628977741"><ele>84.83333333333333</ele><time>2026-05-01T13:23:58.999Z</time></trkpt><trkpt lat="48.88134099842014" lon="4.420957319900035"><ele>85.0</ele><time>2026-05-01T13:24:00.999Z</time></trkpt><trkpt lat="48.88126083953097" lon="4.420962344497491"><ele>85.0</ele><time>2026-05-01T13:24:01.999Z</time></trkpt><trkpt lat="48.88118827727847" lon="4.420968000744532"><ele>85.0</ele><time>2026-05-01T13:24:02.999Z</time></trkpt><trkpt lat="48.88111264925183" lon="4.42096360616363"><ele>85.0</ele><time>2026-05-01T13:24:03.999Z</time></trkpt><trkpt lat="48.88104719444467" lon="4.420936811222477"><ele>85.0</ele><time>2026-05-01T13:24:04.999Z</time></trkpt><trkpt lat="48.880969916753166" lon="4.420937294287889"><ele>85.0</ele><time>2026-05-01T13:24:05.999Z</time></trkpt><trkpt lat="48.880853912594894" lon="4.420968853626292"><ele>85.0</ele><time>2026-05-01T13:24:07.999Z</time></trkpt><trkpt lat="48.88074726848615" lon="4.420942540819033"><ele>85.2</ele><time>2026-05-01T13:24:10Z</time></trkpt><trkpt lat="48.880646388188815" lon="4.420954793836247"><ele>85.4</ele><time>2026-05-01T13:24:12Z</time></trkpt><trkpt lat="48.88053028627104" lon="4.4209629588644965"><ele>85.6</ele><time>2026-05-01T13:24:14Z</time></trkpt><trkpt lat="48.88045475305384" lon="4.420971096790018"><ele>85.8</ele><time>2026-05-01T13:24:15Z</time></trkpt><trkpt lat="48.88032594770577" lon="4.42095444980422"><ele>86.0</ele><time>2026-05-01T13:24:17Z</time></trkpt><trkpt lat="48.88021296824582" lon="4.4209582281758335"><ele>86.0</ele><time>2026-05-01T13:24:19Z</time></trkpt><trkpt lat="48.88011116063676" lon="4.420959580702231"><ele>86.0</ele><time>2026-05-01T13:24:21Z</time></trkpt><trkpt lat="48.880041547244076" lon="4.420974425200245"><ele>86.0</ele><time>2026-05-01T13:24:22Z</time></trkpt><trkpt lat="48.87994602496757" lon="4.420984434280938"><ele>86.0</ele><time>2026-05-01T13:24:24Z</time></trkpt><trkpt lat="48.87984358489572" lon="4.421008743615797"><ele>86.0</ele><time>2026-05-01T13:24:26Z</time></trkpt><trkpt lat="48.87974896281227" lon="4.421019004686148"><ele>86.0</ele><time>2026-05-01T13:24:29Z</time></trkpt><trkpt lat="48.87966450183079" lon="4.421070828740298"><ele>86.0</ele><time>2026-05-01T13:24:31Z</time></trkpt><trkpt lat="48.879600214134946" lon="4.42112155557951"><ele>86.0</ele><time>2026-05-01T13:24:33Z</time></trkpt><trkpt lat="48.879523022767046" lon="4.421148720690248"><ele>86.0</ele><time>2026-05-01T13:24:36Z</time></trkpt><trkpt lat="48.87945957931422" lon="4.4211525653442205"><ele>86.0</ele><time>2026-05-01T13:24:38Z</time></trkpt><trkpt lat="48.879378472688536" lon="4.421205485742021"><ele>86.0</ele><time>2026-05-01T13:24:41Z</time></trkpt><trkpt lat="48.87930122589486" lon="4.421231451834099"><ele>85.6</ele><time>2026-05-01T13:24:43Z</time></trkpt><trkpt lat="48.879212784788756" lon="4.421258558786716"><ele>85.19999999999999</ele><time>2026-05-01T13:24:45Z</time></trkpt><trkpt lat="48.879139142727105" lon="4.421265791542124"><ele>84.80000000000001</ele><time>2026-05-01T13:24:46Z</time></trkpt><trkpt lat="48.879039128154886" lon="4.421295767300593"><ele>84.4</ele><time>2026-05-01T13:24:47Z</time></trkpt><trkpt lat="48.878915967245966" lon="4.421327316895432"><ele>84.0</ele><time>2026-05-01T13:24:48Z</time></trkpt><trkpt lat="48.878797426851435" lon="4.421359871916609"><ele>84.0</ele><time>2026-05-01T13:24:49Z</time></trkpt><trkpt lat="48.87867267049856" lon="4.421406886780535"><ele>84.0</ele><time>2026-05-01T13:24:50Z</time></trkpt><trkpt lat="48.878582690805224" lon="4.421419786099948"><ele>84.0</ele><time>2026-05-01T13:24:51Z</time></trkpt><trkpt lat="48.878503726242414" lon="4.421439741697598"><ele>84.0</ele><time>2026-05-01T13:24:52Z</time></trkpt><trkpt lat="48.87841372053961" lon="4.421474467848365"><ele>84.0</ele><time>2026-05-01T13:24:53Z</time></trkpt><trkpt lat="48.8783369230779" lon="4.421500009739815"><ele>84.4</ele><time>2026-05-01T13:24:54Z</time></trkpt><trkpt lat="48.878271561875174" lon="4.421524314654606"><ele>84.80000000000001</ele><time>2026-05-01T13:24:55Z</time></trkpt><trkpt lat="48.878166717729165" lon="4.421587112053822"><ele>85.19999999999999</ele><time>2026-05-01T13:24:57Z</time></trkpt><trkpt lat="48.8781035605307" lon="4.421629722009366"><ele>85.6</ele><time>2026-05-01T13:24:58Z</time></trkpt><trkpt lat="48.877998749390954" lon="4.4217259469369905"><ele>86.0</ele><time>2026-05-01T13:25:00Z</time></trkpt><trkpt lat="48.877910013455185" lon="4.421786775844278"><ele>86.0</ele><time>2026-05-01T13:25:02Z</time></trkpt><trkpt lat="48.8778449349251" lon="4.421823108142469"><ele>86.0</ele><time>2026-05-01T13:25:04Z</time></trkpt><trkpt lat="48.87773989300417" lon="4.422043851461952"><ele>86.0</ele><time>2026-05-01T13:25:15.999Z</time></trkpt><trkpt lat="48.87772455201887" lon="4.42215613175289"><ele>86.0</ele><time>2026-05-01T13:25:16.999Z</time></trkpt><trkpt lat="48.87770852280389" lon="4.422276068382471"><ele>86.0</ele><time>2026-05-01T13:25:17.999Z</time></trkpt><trkpt lat="48.87774488291279" lon="4.42240213553512"><ele>85.66666666666667</ele><time>2026-05-01T13:25:18.999Z</time></trkpt><trkpt lat="48.877792667359735" lon="4.42263548722208"><ele>85.33333333333333</ele><time>2026-05-01T13:25:19.999Z</time></trkpt><trkpt lat="48.87781133688635" lon="4.422847345946581"><ele>85.0</ele><time>2026-05-01T13:25:20.999Z</time></trkpt><trkpt lat="48.87781519260315" lon="4.423101708582863"><ele>85.0</ele><time>2026-05-01T13:25:21.999Z</time></trkpt><trkpt lat="48.87784360591903" lon="4.423362719112804"><ele>85.0</ele><time>2026-05-01T13:25:22.999Z</time></trkpt><trkpt lat="48.87786552611813" lon="4.423636012762412"><ele>85.0</ele><time>2026-05-01T13:25:23.999Z</time></trkpt><trkpt lat="48.87786326143422" lon="4.423871577024678"><ele>85.0</ele><time>2026-05-01T13:25:24.999Z</time></trkpt><trkpt lat="48.87787911572213" lon="4.424014701147116"><ele>85.0</ele><time>2026-05-01T13:25:25.999Z</time></trkpt><trkpt lat="48.87789361142115" lon="4.4241226769789455"><ele>85.0</ele><time>2026-05-01T13:25:26.999Z</time></trkpt><trkpt lat="48.877904460510514" lon="4.424229819511412"><ele>85.0</ele><time>2026-05-01T13:25:28.999Z</time></trkpt><trkpt lat="48.877829566589746" lon="4.424260089545936"><ele>85.0</ele><time>2026-05-01T13:25:31.999Z</time></trkpt><trkpt lat="48.87776348223735" lon="4.424192366784834"><ele>85.0</ele><time>2026-05-01T13:25:34.999Z</time></trkpt><trkpt lat="48.87775320054457" lon="4.4240977105095975"><ele>85.0</ele><time>2026-05-01T13:25:37.999Z</time></trkpt><trkpt lat="48.87772250993395" lon="4.4239377240601"><ele>85.0</ele><time>2026-05-01T13:25:48.999Z</time></trkpt><trkpt lat="48.87790058451148" lon="4.42384432338044"><ele>85.0</ele><time>2026-05-01T13:25:49.999Z</time></trkpt><trkpt lat="48.877894028972655" lon="4.4237404720892"><ele>85.0</ele><time>2026-05-01T13:25:50.999Z</time></trkpt><trkpt lat="48.877887507773266" lon="4.423634816556921"><ele>85.0</ele><time>2026-05-01T13:25:51.999Z</time></trkpt><trkpt lat="48.87787751429314" lon="4.423472904053296"><ele>85.0</ele><time>2026-05-01T13:25:53.999Z</time></trkpt><trkpt lat="48.877870152179185" lon="4.423353624289434"><ele>85.0</ele><time>2026-05-01T13:25:55.999Z</time></trkpt><trkpt lat="48.87736812741797" lon="4.423397991158237"><ele>84.83333333333333</ele><time>2026-05-01T13:25:58.999Z</time></trkpt><trkpt lat="48.877264359841945" lon="4.423410800726543"><ele>84.66666666666666</ele><time>2026-05-01T13:26:00.999Z</time></trkpt><trkpt lat="48.87719424852855" lon="4.423432546055975"><ele>84.5</ele><time>2026-05-01T13:26:01.999Z</time></trkpt><trkpt lat="48.87710915171972" lon="4.423450849569123"><ele>84.33333333333333</ele><time>2026-05-01T13:26:02.999Z</time></trkpt><trkpt lat="48.877024117202915" lon="4.423458202016276"><ele>84.16666666666667</ele><time>2026-05-01T13:26:03.999Z</time></trkpt><trkpt lat="48.87693291855069" lon="4.423494913043305"><ele>84.0</ele><time>2026-05-01T13:26:04.999Z</time></trkpt><trkpt lat="48.87683901448543" lon="4.423518817209689"><ele>84.0</ele><time>2026-05-01T13:26:05.999Z</time></trkpt><trkpt lat="48.87674134907771" lon="4.423565805983643"><ele>84.0</ele><time>2026-05-01T13:26:06.999Z</time></trkpt><trkpt lat="48.87665714704502" lon="4.423600766605613"><ele>84.0</ele><time>2026-05-01T13:26:07.999Z</time></trkpt><trkpt lat="48.87657611371267" lon="4.423643796125513"><ele>84.0</ele><time>2026-05-01T13:26:08.999Z</time></trkpt><trkpt lat="48.87649064809259" lon="4.4236926713396185"><ele>84.0</ele><time>2026-05-01T13:26:09.999Z</time></trkpt><trkpt lat="48.876400110868865" lon="4.423752127861566"><ele>84.0</ele><time>2026-05-01T13:26:10.999Z</time></trkpt><trkpt lat="48.876325306286525" lon="4.423809010401224"><ele>84.0</ele><time>2026-05-01T13:26:11.999Z</time></trkpt><trkpt lat="48.87625729670079" lon="4.423881163242905"><ele>84.0</ele><time>2026-05-01T13:26:12.999Z</time></trkpt><trkpt lat="48.87618686793986" lon="4.423936471687906"><ele>84.0</ele><time>2026-05-01T13:26:13.999Z</time></trkpt><trkpt lat="48.87610370817966" lon="4.424014746220591"><ele>84.0</ele><time>2026-05-01T13:26:15.001Z</time></trkpt><trkpt lat="48.876011614332725" lon="4.424116974263711"><ele>84.0</ele><time>2026-05-01T13:26:16.001Z</time></trkpt><trkpt lat="48.875927167715325" lon="4.42424432419583"><ele>84.0</ele><time>2026-05-01T13:26:17Z</time></trkpt><trkpt lat="48.87585844419904" lon="4.424334348875129"><ele>84.0</ele><time>2026-05-01T13:26:18Z</time></trkpt><trkpt lat="48.87580825842587" lon="4.424417958365178"><ele>84.0</ele><time>2026-05-01T13:26:19.001Z</time></trkpt><trkpt lat="48.875723538141" lon="4.424519604432816"><ele>84.0</ele><time>2026-05-01T13:26:21Z</time></trkpt><trkpt lat="48.875628155411746" lon="4.4245757445672"><ele>84.0</ele><time>2026-05-01T13:26:23Z</time></trkpt><trkpt lat="48.87557144080364" lon="4.424482369020564"><ele>84.0</ele><time>2026-05-01T13:26:24Z</time></trkpt><trkpt lat="48.87551213692068" lon="4.424420432043064"><ele>84.0</ele><time>2026-05-01T13:26:25Z</time></trkpt><trkpt lat="48.875428378702246" lon="4.424277380973036"><ele>84.0</ele><time>2026-05-01T13:26:27Z</time></trkpt><trkpt lat="48.875417919644626" lon="4.424166613131912"><ele>84.0</ele><time>2026-05-01T13:26:28Z</time></trkpt><trkpt lat="48.87537338383719" lon="4.423973595537168"><ele>84.0</ele><time>2026-05-01T13:26:30Z</time></trkpt><trkpt lat="48.875294133641546" lon="4.423920054874754"><ele>84.0</ele><time>2026-05-01T13:26:32Z</time></trkpt><trkpt lat="48.875195216197554" lon="4.423931303120704"><ele>84.0</ele><time>2026-05-01T13:26:34Z</time></trkpt><trkpt lat="48.875135423084984" lon="4.423980936888892"><ele>84.0</ele><time>2026-05-01T13:26:35Z</time></trkpt><trkpt lat="48.87507086128654" lon="4.424030009910242"><ele>84.0</ele><time>2026-05-01T13:26:36Z</time></trkpt><trkpt lat="48.875005976737896" lon="4.424073614818922"><ele>84.0</ele><time>2026-05-01T13:26:37Z</time></trkpt><trkpt lat="48.874933814643214" lon="4.424102646952362"><ele>84.0</ele><time>2026-05-01T13:26:39Z</time></trkpt><trkpt lat="48.874868707733164" lon="4.424175672515091"><ele>84.0</ele><time>2026-05-01T13:26:41Z</time></trkpt><trkpt lat="48.87480927245364" lon="4.424222353048558"><ele>84.0</ele><time>2026-05-01T13:26:45Z</time></trkpt><trkpt lat="48.8747235912215" lon="4.424317190986875"><ele>84.0</ele><time>2026-05-01T13:26:47Z</time></trkpt><trkpt lat="48.87463893177309" lon="4.424388425843538"><ele>84.0</ele><time>2026-05-01T13:26:49Z</time></trkpt><trkpt lat="48.874552698747216" lon="4.424463856568895"><ele>84.0</ele><time>2026-05-01T13:26:51Z</time></trkpt><trkpt lat="48.87449437993296" lon="4.424527962968739"><ele>84.0</ele><time>2026-05-01T13:26:52Z</time></trkpt><trkpt lat="48.87442989021167" lon="4.424572907329296"><ele>84.0</ele><time>2026-05-01T13:26:53Z</time></trkpt><trkpt lat="48.87437213289658" lon="4.424619819464394"><ele>84.0</ele><time>2026-05-01T13:26:54Z</time></trkpt><trkpt lat="48.874270885400165" lon="4.424696222058597"><ele>84.0</ele><time>2026-05-01T13:26:56Z</time></trkpt><trkpt lat="48.87418691867607" lon="4.4247581978397115"><ele>84.0</ele><time>2026-05-01T13:26:57Z</time></trkpt><trkpt lat="48.874098240310104" lon="4.424836847912157"><ele>83.75</ele><time>2026-05-01T13:26:58Z</time></trkpt><trkpt lat="48.87399070800159" lon="4.424935652700156"><ele>83.5</ele><time>2026-05-01T13:26:59Z</time></trkpt><trkpt lat="48.87388339115131" lon="4.425064197030498"><ele>83.25</ele><time>2026-05-01T13:27:00Z</time></trkpt><trkpt lat="48.87379507991087" lon="4.425158713021873"><ele>83.0</ele><time>2026-05-01T13:27:01Z</time></trkpt><trkpt lat="48.87372843970273" lon="4.425240919498714"><ele>83.0</ele><time>2026-05-01T13:27:02Z</time></trkpt><trkpt lat="48.873663418952106" lon="4.425337109982359"><ele>83.0</ele><time>2026-05-01T13:27:03Z</time></trkpt><trkpt lat="48.87360992287579" lon="4.425423910931839"><ele>83.0</ele><time>2026-05-01T13:27:04Z</time></trkpt><trkpt lat="48.873562006329514" lon="4.425505565566661"><ele>83.0</ele><time>2026-05-01T13:27:05Z</time></trkpt><trkpt lat="48.873519732586004" lon="4.4256008764263655"><ele>83.0</ele><time>2026-05-01T13:27:06Z</time></trkpt><trkpt lat="48.87344155900762" lon="4.425731136716726"><ele>83.0</ele><time>2026-05-01T13:27:08Z</time></trkpt><trkpt lat="48.87331203073706" lon="4.425822075771096"><ele>83.0</ele><time>2026-05-01T13:27:10Z</time></trkpt><trkpt lat="48.87321359981072" lon="4.425917404236467"><ele>83.0</ele><time>2026-05-01T13:27:11Z</time></trkpt><trkpt lat="48.87311722065409" lon="4.425968549095256"><ele>83.0</ele><time>2026-05-01T13:27:12Z</time></trkpt><trkpt lat="48.873018110880516" lon="4.426028493887981"><ele>83.0</ele><time>2026-05-01T13:27:13Z</time></trkpt><trkpt lat="48.87289570487252" lon="4.426104172137482"><ele>83.0</ele><time>2026-05-01T13:27:14Z</time></trkpt><trkpt lat="48.8727690755684" lon="4.42617636240248"><ele>83.0</ele><time>2026-05-01T13:27:15Z</time></trkpt><trkpt lat="48.87262826968598" lon="4.426250984486528"><ele>83.0</ele><time>2026-05-01T13:27:16Z</time></trkpt><trkpt lat="48.87249177856777" lon="4.426319130439127"><ele>83.0</ele><time>2026-05-01T13:27:17Z</time></trkpt><trkpt lat="48.87239438614483" lon="4.426351216757449"><ele>83.25</ele><time>2026-05-01T13:27:18Z</time></trkpt><trkpt lat="48.87228953503687" lon="4.4263974570338025"><ele>83.5</ele><time>2026-05-01T13:27:19Z</time></trkpt><trkpt lat="48.87217336475781" lon="4.426438531291977"><ele>83.75</ele><time>2026-05-01T13:27:20Z</time></trkpt><trkpt lat="48.872067343297424" lon="4.426478240936876"><ele>84.0</ele><time>2026-05-01T13:27:21Z</time></trkpt><trkpt lat="48.87195592938353" lon="4.426516347645789"><ele>84.0</ele><time>2026-05-01T13:27:22Z</time></trkpt><trkpt lat="48.87183210764868" lon="4.42654614773335"><ele>84.0</ele><time>2026-05-01T13:27:22.999Z</time></trkpt><trkpt lat="48.87171219426987" lon="4.426586579831222"><ele>84.0</ele><time>2026-05-01T13:27:23.999Z</time></trkpt><trkpt lat="48.87160998341672" lon="4.426632909370069"><ele>84.0</ele><time>2026-05-01T13:27:24.999Z</time></trkpt><trkpt lat="48.871497269206394" lon="4.426680510484364"><ele>84.0</ele><time>2026-05-01T13:27:25.999Z</time></trkpt><trkpt lat="48.87140589685739" lon="4.426696360899278"><ele>84.0</ele><time>2026-05-01T13:27:26.999Z</time></trkpt><trkpt lat="48.87132116206682" lon="4.426753697299696"><ele>84.0</ele><time>2026-05-01T13:27:27.999Z</time></trkpt><trkpt lat="48.87123582636566" lon="4.426781845190253"><ele>84.0</ele><time>2026-05-01T13:27:28.999Z</time></trkpt><trkpt lat="48.87115603707287" lon="4.426829899539582"><ele>84.0</ele><time>2026-05-01T13:27:29.999Z</time></trkpt><trkpt lat="48.87109444056682" lon="4.4268601667119105"><ele>84.0</ele><time>2026-05-01T13:27:30.999Z</time></trkpt><trkpt lat="48.871007685442656" lon="4.426907568147926"><ele>84.0</ele><time>2026-05-01T13:27:32.999Z</time></trkpt><trkpt lat="48.87091778758164" lon="4.42694585275176"><ele>84.0</ele><time>2026-05-01T13:27:34.999Z</time></trkpt><trkpt lat="48.870836712485904" lon="4.426987625367088"><ele>84.0</ele><time>2026-05-01T13:27:36.999Z</time></trkpt><trkpt lat="48.87074833179498" lon="4.42703983678715"><ele>84.0</ele><time>2026-05-01T13:27:38.999Z</time></trkpt><trkpt lat="48.87071054598237" lon="4.427125937951787"><ele>84.0</ele><time>2026-05-01T13:27:40.999Z</time></trkpt><trkpt lat="48.870693693267654" lon="4.42723396356164"><ele>84.0</ele><time>2026-05-01T13:27:43.999Z</time></trkpt><trkpt lat="48.870650082302426" lon="4.427445793082529"><ele>84.0</ele><time>2026-05-01T13:28:13.999Z</time></trkpt><trkpt lat="48.870660783753024" lon="4.427617243696618"><ele>84.0</ele><time>2026-05-01T13:28:15.999Z</time></trkpt><trkpt lat="48.87068240389875" lon="4.427722301109741"><ele>84.0</ele><time>2026-05-01T13:28:17.999Z</time></trkpt><trkpt lat="48.87074477213115" lon="4.42780336162081"><ele>84.0</ele><time>2026-05-01T13:28:21.001Z</time></trkpt><trkpt lat="48.870830428585705" lon="4.427862301902572"><ele>84.0</ele><time>2026-05-01T13:28:25.001Z</time></trkpt><trkpt lat="48.87090923033684" lon="4.427871335924114"><ele>84.0</ele><time>2026-05-01T13:28:27.001Z</time></trkpt><trkpt lat="48.87098605061317" lon="4.427896906978109"><ele>84.0</ele><time>2026-05-01T13:28:29.001Z</time></trkpt><trkpt lat="48.87109159512653" lon="4.427932713528663"><ele>84.0</ele><time>2026-05-01T13:28:31.001Z</time></trkpt><trkpt lat="48.87121253343593" lon="4.4279777221689445"><ele>84.0</ele><time>2026-05-01T13:28:33.001Z</time></trkpt><trkpt lat="48.871302747038825" lon="4.428018004047132"><ele>84.0</ele><time>2026-05-01T13:28:35.001Z</time></trkpt><trkpt lat="48.87136347115022" lon="4.428051188889573"><ele>84.0</ele><time>2026-05-01T13:28:38Z</time></trkpt><trkpt lat="48.87142225569489" lon="4.4281133135087805"><ele>84.2</ele><time>2026-05-01T13:30:03.999Z</time></trkpt><trkpt lat="48.871501053602366" lon="4.428207741687231"><ele>84.4</ele><time>2026-05-01T13:30:05.999Z</time></trkpt><trkpt lat="48.871576293907204" lon="4.428305803606102"><ele>84.6</ele><time>2026-05-01T13:30:07.999Z</time></trkpt><trkpt lat="48.87164374034774" lon="4.428403682443278"><ele>84.8</ele><time>2026-05-01T13:30:09.999Z</time></trkpt><trkpt lat="48.87171688882205" lon="4.428518972515406"><ele>85.0</ele><time>2026-05-01T13:30:11.999Z</time></trkpt><trkpt lat="48.87174595482381" lon="4.428609236262665"><ele>85.0</ele><time>2026-05-01T13:30:13.999Z</time></trkpt><trkpt lat="48.87179036018433" lon="4.428776664690272"><ele>85.0</ele><time>2026-05-01T13:30:15.999Z</time></trkpt><trkpt lat="48.87182223277765" lon="4.4289065309546745"><ele>85.0</ele><time>2026-05-01T13:30:17.999Z</time></trkpt><trkpt lat="48.87185387347159" lon="4.429013180376288"><ele>85.0</ele><time>2026-05-01T13:30:19.999Z</time></trkpt><trkpt lat="48.871975780774875" lon="4.429034625126524"><ele>85.0</ele><time>2026-05-01T13:31:32.999Z</time></trkpt><trkpt lat="48.871931154187706" lon="4.42895500384276"><ele>85.0</ele><time>2026-05-01T13:31:34.999Z</time></trkpt><trkpt lat="48.87186239791409" lon="4.428923438992829"><ele>85.0</ele><time>2026-05-01T13:31:36.999Z</time></trkpt><trkpt lat="48.87183537938725" lon="4.428828879108223"><ele>85.0</ele><time>2026-05-01T13:31:38.999Z</time></trkpt><trkpt lat="48.871792069595415" lon="4.428664825331175"><ele>85.0</ele><time>2026-05-01T13:31:40.999Z</time></trkpt><trkpt lat="48.87176065676576" lon="4.428581072905444"><ele>85.0</ele><time>2026-05-01T13:31:41.999Z</time></trkpt><trkpt lat="48.87172582932713" lon="4.428486936094728"><ele>85.0</ele><time>2026-05-01T13:31:42.999Z</time></trkpt><trkpt lat="48.871651004613355" lon="4.4283524318654495"><ele>85.0</ele><time>2026-05-01T13:31:44.999Z</time></trkpt><trkpt lat="48.87157732697177" lon="4.428244393671891"><ele>85.0</ele><time>2026-05-01T13:31:46.999Z</time></trkpt><trkpt lat="48.87148874499695" lon="4.42812901924018"><ele>85.0</ele><time>2026-05-01T13:31:48.999Z</time></trkpt><trkpt lat="48.87143434294966" lon="4.428043955453157"><ele>85.0</ele><time>2026-05-01T13:31:50.999Z</time></trkpt><trkpt lat="48.87133426713954" lon="4.427967046233119"><ele>85.0</ele><time>2026-05-01T13:31:52.999Z</time></trkpt><trkpt lat="48.871240510687215" lon="4.4279246439042375"><ele>84.83333333333333</ele><time>2026-05-01T13:31:54.999Z</time></trkpt><trkpt lat="48.871177806137204" lon="4.4279000120380045"><ele>84.66666666666666</ele><time>2026-05-01T13:31:56.999Z</time></trkpt><trkpt lat="48.87107509265399" lon="4.427868678870519"><ele>84.5</ele><time>2026-05-01T13:31:58.999Z</time></trkpt><trkpt lat="48.87095968654631" lon="4.427826004764376"><ele>84.33333333333333</ele><time>2026-05-01T13:32:00.999Z</time></trkpt><trkpt lat="48.87089593909115" lon="4.427803742039675"><ele>84.16666666666667</ele><time>2026-05-01T13:32:01.999Z</time></trkpt><trkpt lat="48.87080454285043" lon="4.427772705088206"><ele>84.0</ele><time>2026-05-01T13:32:03.999Z</time></trkpt><trkpt lat="48.87071961613521" lon="4.427727956705177"><ele>84.0</ele><time>2026-05-01T13:32:05.999Z</time></trkpt><trkpt lat="48.87067667010329" lon="4.42762703152106"><ele>84.0</ele><time>2026-05-01T13:32:07.999Z</time></trkpt><trkpt lat="48.870684128318906" lon="4.427492477347922"><ele>84.0</ele><time>2026-05-01T13:32:09.999Z</time></trkpt><trkpt lat="48.870685053275814" lon="4.427355603973024"><ele>84.0</ele><time>2026-05-01T13:32:11.999Z</time></trkpt><trkpt lat="48.870694432604644" lon="4.427186392435097"><ele>84.0</ele><time>2026-05-01T13:32:13.999Z</time></trkpt><trkpt lat="48.87073696536317" lon="4.42708802218151"><ele>84.0</ele><time>2026-05-01T13:32:15.998Z</time></trkpt><trkpt lat="48.870803179554095" lon="4.426985699451248"><ele>84.0</ele><time>2026-05-01T13:32:17.998Z</time></trkpt><trkpt lat="48.87086387642104" lon="4.426951808670581"><ele>84.0</ele><time>2026-05-01T13:32:18.998Z</time></trkpt><trkpt lat="48.87096501490709" lon="4.426904642950642"><ele>84.0</ele><time>2026-05-01T13:32:20.998Z</time></trkpt><trkpt lat="48.87108073885095" lon="4.4268583071016705"><ele>84.0</ele><time>2026-05-01T13:32:22.998Z</time></trkpt><trkpt lat="48.871175253530815" lon="4.426812696029428"><ele>84.0</ele><time>2026-05-01T13:32:24.998Z</time></trkpt><trkpt lat="48.871260578809746" lon="4.42678343416729"><ele>84.0</ele><time>2026-05-01T13:32:26.998Z</time></trkpt><trkpt lat="48.87137728842403" lon="4.426744940520528"><ele>84.0</ele><time>2026-05-01T13:32:28.998Z</time></trkpt><trkpt lat="48.87148989382212" lon="4.426697080921424"><ele>84.0</ele><time>2026-05-01T13:32:30.998Z</time></trkpt><trkpt lat="48.871578352525674" lon="4.426648869654665"><ele>84.0</ele><time>2026-05-01T13:32:33Z</time></trkpt><trkpt lat="48.87164236823267" lon="4.426622752025907"><ele>84.0</ele><time>2026-05-01T13:32:34Z</time></trkpt><trkpt lat="48.8717169495681" lon="4.426597009560302"><ele>84.0</ele><time>2026-05-01T13:32:35Z</time></trkpt><trkpt lat="48.87180879448459" lon="4.426572286503274"><ele>84.0</ele><time>2026-05-01T13:32:36Z</time></trkpt><trkpt lat="48.871884952826285" lon="4.426546716727983"><ele>84.0</ele><time>2026-05-01T13:32:37Z</time></trkpt><trkpt lat="48.87195158863804" lon="4.426528395357652"><ele>84.0</ele><time>2026-05-01T13:32:38Z</time></trkpt><trkpt lat="48.87203369534784" lon="4.426503346691028"><ele>84.0</ele><time>2026-05-01T13:32:39Z</time></trkpt><trkpt lat="48.87211282832886" lon="4.426468768013524"><ele>84.0</ele><time>2026-05-01T13:32:40Z</time></trkpt><trkpt lat="48.87221002943427" lon="4.426435181252777"><ele>84.0</ele><time>2026-05-01T13:32:41Z</time></trkpt><trkpt lat="48.872278045803306" lon="4.42642273834711"><ele>84.0</ele><time>2026-05-01T13:32:42Z</time></trkpt><trkpt lat="48.87234382883113" lon="4.426400465438512"><ele>84.0</ele><time>2026-05-01T13:32:43Z</time></trkpt><trkpt lat="48.87242151499939" lon="4.426367228792175"><ele>84.0</ele><time>2026-05-01T13:32:44Z</time></trkpt><trkpt lat="48.87249209045052" lon="4.426343536584121"><ele>84.0</ele><time>2026-05-01T13:32:45Z</time></trkpt><trkpt lat="48.872561074119815" lon="4.426314902322775"><ele>84.0</ele><time>2026-05-01T13:32:46Z</time></trkpt><trkpt lat="48.87263682526292" lon="4.426274603486583"><ele>84.0</ele><time>2026-05-01T13:32:47Z</time></trkpt><trkpt lat="48.87271130223352" lon="4.42623308187305"><ele>83.83333333333333</ele><time>2026-05-01T13:32:48Z</time></trkpt><trkpt lat="48.87278934557104" lon="4.426197653900831"><ele>83.66666666666667</ele><time>2026-05-01T13:32:49Z</time></trkpt><trkpt lat="48.87287438392425" lon="4.426151860146795"><ele>83.5</ele><time>2026-05-01T13:32:50Z</time></trkpt><trkpt lat="48.872940305417146" lon="4.426111308944309"><ele>83.33333333333334</ele><time>2026-05-01T13:32:51Z</time></trkpt><trkpt lat="48.87300124999799" lon="4.426068511023714"><ele>83.16666666666667</ele><time>2026-05-01T13:32:52Z</time></trkpt><trkpt lat="48.873118897564424" lon="4.425982950254739"><ele>83.0</ele><time>2026-05-01T13:32:54Z</time></trkpt><trkpt lat="48.87322428651387" lon="4.425902840515167"><ele>83.0</ele><time>2026-05-01T13:32:56Z</time></trkpt><trkpt lat="48.873329147772715" lon="4.425829010744574"><ele>83.0</ele><time>2026-05-01T13:32:58Z</time></trkpt><trkpt lat="48.87340147406609" lon="4.425763721546747"><ele>83.0</ele><time>2026-05-01T13:33:00Z</time></trkpt><trkpt lat="48.873466665373016" lon="4.4256931977592755"><ele>83.0</ele><time>2026-05-01T13:33:03Z</time></trkpt><trkpt lat="48.87353125102624" lon="4.4255303551279"><ele>83.0</ele><time>2026-05-01T13:35:11Z</time></trkpt><trkpt lat="48.87359586469344" lon="4.4254014075048955"><ele>83.0</ele><time>2026-05-01T13:35:14Z</time></trkpt><trkpt lat="48.873643432805366" lon="4.425315384352152"><ele>83.0</ele><time>2026-05-01T13:35:16Z</time></trkpt><trkpt lat="48.87370929554342" lon="4.425262426246813"><ele>83.0</ele><time>2026-05-01T13:35:19.999Z</time></trkpt><trkpt lat="48.87376724326626" lon="4.425173065282892"><ele>83.0</ele><time>2026-05-01T13:35:21.999Z</time></trkpt><trkpt lat="48.873867154404394" lon="4.4250916111501795"><ele>83.0</ele><time>2026-05-01T13:35:24.999Z</time></trkpt><trkpt lat="48.873942867356405" lon="4.425015578627469"><ele>83.0</ele><time>2026-05-01T13:35:26.999Z</time></trkpt><trkpt lat="48.87403891663696" lon="4.424916404601129"><ele>83.0</ele><time>2026-05-01T13:35:28.999Z</time></trkpt><trkpt lat="48.87412453237001" lon="4.424829154122149"><ele>83.0</ele><time>2026-05-01T13:35:30.999Z</time></trkpt><trkpt lat="48.87418429273279" lon="4.424770830080897"><ele>83.0</ele><time>2026-05-01T13:35:31.999Z</time></trkpt><trkpt lat="48.87425299244207" lon="4.424710055792468"><ele>83.0</ele><time>2026-05-01T13:35:32.999Z</time></trkpt><trkpt lat="48.87431810152807" lon="4.424652084514101"><ele>83.0</ele><time>2026-05-01T13:35:33.999Z</time></trkpt><trkpt lat="48.87442952293433" lon="4.424600105030529"><ele>83.0</ele><time>2026-05-01T13:35:34.999Z</time></trkpt><trkpt lat="48.874527412082756" lon="4.424529469627016"><ele>83.2</ele><time>2026-05-01T13:35:35.999Z</time></trkpt><trkpt lat="48.874620993752465" lon="4.424462321683321"><ele>83.4</ele><time>2026-05-01T13:35:36.999Z</time></trkpt><trkpt lat="48.87470047638001" lon="4.424391942944933"><ele>83.60000000000001</ele><time>2026-05-01T13:35:37.999Z</time></trkpt><trkpt lat="48.874778989831285" lon="4.424325535468099"><ele>83.80000000000001</ele><time>2026-05-01T13:35:38.999Z</time></trkpt><trkpt lat="48.8748426569371" lon="4.424237867756915"><ele>84.0</ele><time>2026-05-01T13:35:39.999Z</time></trkpt><trkpt lat="48.874906164917995" lon="4.424164298864939"><ele>84.0</ele><time>2026-05-01T13:35:40.999Z</time></trkpt><trkpt lat="48.87496432571559" lon="4.424107157779568"><ele>84.0</ele><time>2026-05-01T13:35:41.999Z</time></trkpt><trkpt lat="48.87503413882284" lon="4.424054718404222"><ele>84.0</ele><time>2026-05-01T13:35:42.999Z</time></trkpt><trkpt lat="48.87511538338666" lon="4.424033877141429"><ele>84.0</ele><time>2026-05-01T13:35:43.999Z</time></trkpt><trkpt lat="48.87521322022955" lon="4.423980607734734"><ele>84.0</ele><time>2026-05-01T13:35:45.999Z</time></trkpt><trkpt lat="48.87526935179144" lon="4.423936719735923"><ele>84.0</ele><time>2026-05-01T13:35:47.999Z</time></trkpt><trkpt lat="48.87533231849606" lon="4.423931419897105"><ele>84.0</ele><time>2026-05-01T13:35:49.999Z</time></trkpt><trkpt lat="48.87541017641309" lon="4.423941116963872"><ele>84.0</ele><time>2026-05-01T13:35:51.999Z</time></trkpt><trkpt lat="48.87540863440718" lon="4.424090218603003"><ele>84.0</ele><time>2026-05-01T13:35:53.999Z</time></trkpt><trkpt lat="48.875465821126014" lon="4.424225477149858"><ele>84.0</ele><time>2026-05-01T13:35:54.999Z</time></trkpt><trkpt lat="48.87549976581514" lon="4.424315824747775"><ele>84.0</ele><time>2026-05-01T13:35:55.999Z</time></trkpt><trkpt lat="48.87559784579482" lon="4.424385742145478"><ele>84.0</ele><time>2026-05-01T13:35:57.999Z</time></trkpt><trkpt lat="48.87567682447175" lon="4.42442037986937"><ele>84.0</ele><time>2026-05-01T13:35:58.999Z</time></trkpt><trkpt lat="48.87577963785911" lon="4.424457923486036"><ele>84.0</ele><time>2026-05-01T13:36:00.999Z</time></trkpt><trkpt lat="48.87587225022537" lon="4.424377611641124"><ele>84.0</ele><time>2026-05-01T13:36:02.999Z</time></trkpt><trkpt lat="48.87593890305712" lon="4.424263921426806"><ele>84.0</ele><time>2026-05-01T13:36:03.999Z</time></trkpt><trkpt lat="48.87599882735135" lon="4.424155484757576"><ele>84.0</ele><time>2026-05-01T13:36:04.999Z</time></trkpt><trkpt lat="48.87605590553788" lon="4.424087740449019"><ele>84.0</ele><time>2026-05-01T13:36:05.999Z</time></trkpt><trkpt lat="48.876119690726874" lon="4.4240261017576685"><ele>84.0</ele><time>2026-05-01T13:36:06.999Z</time></trkpt><trkpt lat="48.87620627209081" lon="4.423938422074712"><ele>84.0</ele><time>2026-05-01T13:36:07.999Z</time></trkpt><trkpt lat="48.87626549909843" lon="4.423850088202886"><ele>84.0</ele><time>2026-05-01T13:36:08.999Z</time></trkpt><trkpt lat="48.87632979008804" lon="4.423770479295733"><ele>84.0</ele><time>2026-05-01T13:36:09.999Z</time></trkpt><trkpt lat="48.87641381483575" lon="4.423712751058811"><ele>84.0</ele><time>2026-05-01T13:36:10.999Z</time></trkpt><trkpt lat="48.87651034639036" lon="4.42366629831525"><ele>84.0</ele><time>2026-05-01T13:36:11.999Z</time></trkpt><trkpt lat="48.87660352442056" lon="4.423607781150852"><ele>84.0</ele><time>2026-05-01T13:36:12.999Z</time></trkpt><trkpt lat="48.87669298325718" lon="4.423573240584663"><ele>84.0</ele><time>2026-05-01T13:36:13.999Z</time></trkpt><trkpt lat="48.876788876196464" lon="4.423540749744364"><ele>84.0</ele><time>2026-05-01T13:36:14.999Z</time></trkpt><trkpt lat="48.87688014909914" lon="4.423510563501129"><ele>84.0</ele><time>2026-05-01T13:36:15.999Z</time></trkpt><trkpt lat="48.87697048111424" lon="4.423491700045473"><ele>84.0</ele><time>2026-05-01T13:36:16.999Z</time></trkpt><trkpt lat="48.87705018938812" lon="4.4234634198773755"><ele>84.0</ele><time>2026-05-01T13:36:17.999Z</time></trkpt><trkpt lat="48.87713799541659" lon="4.423442807911366"><ele>84.0</ele><time>2026-05-01T13:36:18.999Z</time></trkpt><trkpt lat="48.87726735660171" lon="4.423414259147896"><ele>84.0</ele><time>2026-05-01T13:36:20.999Z</time></trkpt><trkpt lat="48.877351074039154" lon="4.423404076221174"><ele>84.0</ele><time>2026-05-01T13:36:21.998Z</time></trkpt><trkpt lat="48.87746403841361" lon="4.4234063569023485"><ele>84.0</ele><time>2026-05-01T13:36:23.998Z</time></trkpt><trkpt lat="48.87755568670727" lon="4.423436312096375"><ele>84.0</ele><time>2026-05-01T13:36:25.998Z</time></trkpt><trkpt lat="48.877635879493845" lon="4.423524751403542"><ele>84.0</ele><time>2026-05-01T13:36:27.998Z</time></trkpt><trkpt lat="48.87768948956022" lon="4.423698703975587"><ele>84.0</ele><time>2026-05-01T13:36:29.998Z</time></trkpt><trkpt lat="48.87772076372973" lon="4.423803555021808"><ele>84.16666666666667</ele><time>2026-05-01T13:36:30.998Z</time></trkpt><trkpt lat="48.877811607409804" lon="4.423889892475397"><ele>84.33333333333333</ele><time>2026-05-01T13:36:31.998Z</time></trkpt><trkpt lat="48.87782336627499" lon="4.424070918885032"><ele>84.5</ele><time>2026-05-01T13:36:33.998Z</time></trkpt><trkpt lat="48.877831741398694" lon="4.424199852217465"><ele>84.66666666666666</ele><time>2026-05-01T13:36:34.998Z</time></trkpt><trkpt lat="48.87783857345641" lon="4.424298111107989"><ele>84.83333333333333</ele><time>2026-05-01T13:36:36.998Z</time></trkpt><trkpt lat="48.87790097737838" lon="4.424335094354276"><ele>85.0</ele><time>2026-05-01T13:36:38.998Z</time></trkpt><trkpt lat="48.87788917051754" lon="4.4241832829909695"><ele>85.0</ele><time>2026-05-01T13:36:41.998Z</time></trkpt><trkpt lat="48.877881220730686" lon="4.424060896979204"><ele>85.0</ele><time>2026-05-01T13:36:42.998Z</time></trkpt><trkpt lat="48.87787081177197" lon="4.423900652258617"><ele>85.0</ele><time>2026-05-01T13:36:43.998Z</time></trkpt><trkpt lat="48.8778597553509" lon="4.423730439894758"><ele>85.0</ele><time>2026-05-01T13:36:45Z</time></trkpt><trkpt lat="48.87788712488302" lon="4.423538882332721"><ele>85.0</ele><time>2026-05-01T13:36:46Z</time></trkpt><trkpt lat="48.87787442337305" lon="4.42332446467504"><ele>85.0</ele><time>2026-05-01T13:36:47Z</time></trkpt><trkpt lat="48.87785606203524" lon="4.423117844416242"><ele>85.0</ele><time>2026-05-01T13:36:48Z</time></trkpt><trkpt lat="48.877826716958786" lon="4.422889032524164"><ele>85.0</ele><time>2026-05-01T13:36:49Z</time></trkpt><trkpt lat="48.8778267849272" lon="4.422645832453622"><ele>85.0</ele><time>2026-05-01T13:36:50Z</time></trkpt><trkpt lat="48.877799462967126" lon="4.422452958489052"><ele>85.0</ele><time>2026-05-01T13:36:51Z</time></trkpt><trkpt lat="48.87778820397267" lon="4.422277557949705"><ele>85.0</ele><time>2026-05-01T13:36:52Z</time></trkpt><trkpt lat="48.87778070214467" lon="4.422118608671635"><ele>85.0</ele><time>2026-05-01T13:36:53Z</time></trkpt><trkpt lat="48.87778804637775" lon="4.421987731174088"><ele>85.0</ele><time>2026-05-01T13:36:54Z</time></trkpt><trkpt lat="48.87782348616275" lon="4.421868856481928"><ele>85.25</ele><time>2026-05-01T13:36:56Z</time></trkpt><trkpt lat="48.87786108514644" lon="4.421739891887695"><ele>85.5</ele><time>2026-05-01T13:36:58Z</time></trkpt><trkpt lat="48.87787140423585" lon="4.421605145187719"><ele>85.75</ele><time>2026-05-01T13:36:59Z</time></trkpt><trkpt lat="48.877945583655936" lon="4.421363667027067"><ele>86.0</ele><time>2026-05-01T13:37:00Z</time></trkpt><trkpt lat="48.87807316756974" lon="4.421235101503533"><ele>86.75</ele><time>2026-05-01T13:37:01Z</time></trkpt><trkpt lat="48.87821668315823" lon="4.421141384030053"><ele>87.5</ele><time>2026-05-01T13:37:02Z</time></trkpt><trkpt lat="48.87835484373241" lon="4.421074403434513"><ele>88.25</ele><time>2026-05-01T13:37:03Z</time></trkpt><trkpt lat="48.87847494365619" lon="4.42101714122313"><ele>89.0</ele><time>2026-05-01T13:37:04Z</time></trkpt><trkpt lat="48.878571777443426" lon="4.420968175862052"><ele>89.0</ele><time>2026-05-01T13:37:05Z</time></trkpt><trkpt lat="48.87865931227172" lon="4.420924024882951"><ele>89.0</ele><time>2026-05-01T13:37:06Z</time></trkpt><trkpt lat="48.878756485796266" lon="4.42087501225251"><ele>89.0</ele><time>2026-05-01T13:37:07Z</time></trkpt><trkpt lat="48.87884869133235" lon="4.420828042439405"><ele>89.0</ele><time>2026-05-01T13:37:08Z</time></trkpt><trkpt lat="48.87894595328267" lon="4.420777072908919"><ele>89.0</ele><time>2026-05-01T13:37:09Z</time></trkpt><trkpt lat="48.87904820436943" lon="4.4207234888810465"><ele>89.0</ele><time>2026-05-01T13:37:10Z</time></trkpt><trkpt lat="48.87915223425429" lon="4.4206689726828445"><ele>89.0</ele><time>2026-05-01T13:37:11Z</time></trkpt><trkpt lat="48.879274364899835" lon="4.42060563183865"><ele>89.0</ele><time>2026-05-01T13:37:12Z</time></trkpt><trkpt lat="48.87939073875807" lon="4.4205456763429645"><ele>89.0</ele><time>2026-05-01T13:37:13Z</time></trkpt><trkpt lat="48.879480835638056" lon="4.420500099930535"><ele>89.5</ele><time>2026-05-01T13:37:14Z</time></trkpt><trkpt lat="48.8795520452815" lon="4.420464077823047"><ele>90.0</ele><time>2026-05-01T13:37:15Z</time></trkpt><trkpt lat="48.87961557035465" lon="4.420431943041156"><ele>90.5</ele><time>2026-05-01T13:37:16Z</time></trkpt><trkpt lat="48.87968442615689" lon="4.420397111642987"><ele>91.0</ele><time>2026-05-01T13:37:17Z</time></trkpt><trkpt lat="48.879751195314995" lon="4.420363335805374"><ele>91.5</ele><time>2026-05-01T13:37:18Z</time></trkpt><trkpt lat="48.87986458280641" lon="4.42030597765423"><ele>92.0</ele><time>2026-05-01T13:37:20Z</time></trkpt><trkpt lat="48.879964398108015" lon="4.420295578665991"><ele>92.0</ele><time>2026-05-01T13:37:22Z</time></trkpt><trkpt lat="48.88005120151983" lon="4.420334392694853"><ele>92.0</ele><time>2026-05-01T13:37:24Z</time></trkpt><trkpt lat="48.88031458436131" lon="4.420378463114954"><ele>92.0</ele><time>2026-05-01T13:37:28.999Z</time></trkpt><trkpt lat="48.88040656639137" lon="4.420443958715372"><ele>89.0</ele><time>2026-05-01T13:37:30.999Z</time></trkpt><trkpt lat="48.88066935262937" lon="4.420963970054806"><ele>86.0</ele><time>2026-05-01T13:37:32.999Z</time></trkpt><trkpt lat="48.88079098004814" lon="4.420976782203554"><ele>86.0</ele><time>2026-05-01T13:37:34.999Z</time></trkpt><trkpt lat="48.88091575264168" lon="4.420982692402449"><ele>86.0</ele><time>2026-05-01T13:37:36.999Z</time></trkpt><trkpt lat="48.88098521739962" lon="4.420987296750746"><ele>86.0</ele><time>2026-05-01T13:37:37.999Z</time></trkpt><trkpt lat="48.88106261889038" lon="4.4209943677464025"><ele>86.0</ele><time>2026-05-01T13:37:38.999Z</time></trkpt><trkpt lat="48.8811463558421" lon="4.420995737956754"><ele>86.0</ele><time>2026-05-01T13:37:39.999Z</time></trkpt><trkpt lat="48.88121433038134" lon="4.420980833357506"><ele>86.0</ele><time>2026-05-01T13:37:40.999Z</time></trkpt><trkpt lat="48.88128444289891" lon="4.420978206174438"><ele>85.75</ele><time>2026-05-01T13:37:41.999Z</time></trkpt><trkpt lat="48.88153755655565" lon="4.420973466228728"><ele>85.5</ele><time>2026-05-01T13:37:45.999Z</time></trkpt><trkpt lat="48.88161736110406" lon="4.420961365484847"><ele>85.25</ele><time>2026-05-01T13:37:46.999Z</time></trkpt><trkpt lat="48.88170470466184" lon="4.420945457041951"><ele>85.0</ele><time>2026-05-01T13:37:47.999Z</time></trkpt><trkpt lat="48.88178491142202" lon="4.4209304623539625"><ele>84.83333333333333</ele><time>2026-05-01T13:37:48.999Z</time></trkpt><trkpt lat="48.88186347248217" lon="4.420917711759791"><ele>84.66666666666666</ele><time>2026-05-01T13:37:49.999Z</time></trkpt><trkpt lat="48.88193575784261" lon="4.420895014091086"><ele>84.5</ele><time>2026-05-01T13:37:50.999Z</time></trkpt><trkpt lat="48.88201467190534" lon="4.420861920912804"><ele>84.33333333333333</ele><time>2026-05-01T13:37:51.999Z</time></trkpt><trkpt lat="48.882145876911444" lon="4.420803142507946"><ele>84.16666666666667</ele><time>2026-05-01T13:37:53.999Z</time></trkpt><trkpt lat="48.8822156762851" lon="4.420768988666409"><ele>84.0</ele><time>2026-05-01T13:37:54.999Z</time></trkpt><trkpt lat="48.882304159601404" lon="4.420736020506792"><ele>84.0</ele><time>2026-05-01T13:37:55.999Z</time></trkpt><trkpt lat="48.882378161407296" lon="4.420693531441449"><ele>84.0</ele><time>2026-05-01T13:37:56.999Z</time></trkpt><trkpt lat="48.88246160456589" lon="4.420660743037685"><ele>84.0</ele><time>2026-05-01T13:37:57.999Z</time></trkpt><trkpt lat="48.882550952758024" lon="4.4206099759928765"><ele>84.0</ele><time>2026-05-01T13:37:58.999Z</time></trkpt><trkpt lat="48.88263129534601" lon="4.420567784672161"><ele>84.0</ele><time>2026-05-01T13:37:59.999Z</time></trkpt><trkpt lat="48.8827183374116" lon="4.420523559758439"><ele>84.0</ele><time>2026-05-01T13:38:00.999Z</time></trkpt><trkpt lat="48.88279806668254" lon="4.420470712614381"><ele>84.6</ele><time>2026-05-01T13:38:01.999Z</time></trkpt><trkpt lat="48.88291506442946" lon="4.420402505035212"><ele>85.2</ele><time>2026-05-01T13:38:02.999Z</time></trkpt><trkpt lat="48.8830163421906" lon="4.420354029423042"><ele>85.8</ele><time>2026-05-01T13:38:03.999Z</time></trkpt><trkpt lat="48.88309948766221" lon="4.42030719012415"><ele>86.39999999999999</ele><time>2026-05-01T13:38:04.999Z</time></trkpt><trkpt lat="48.88316618771726" lon="4.420266939341914"><ele>87.0</ele><time>2026-05-01T13:38:05.999Z</time></trkpt><trkpt lat="48.88329796457862" lon="4.4202105327913515"><ele>87.0</ele><time>2026-05-01T13:38:07.999Z</time></trkpt><trkpt lat="48.883362731723736" lon="4.420188868086516"><ele>87.0</ele><time>2026-05-01T13:38:08.999Z</time></trkpt><trkpt lat="48.8834293874648" lon="4.420163260302567"><ele>87.0</ele><time>2026-05-01T13:38:09.999Z</time></trkpt><trkpt lat="48.883508457266814" lon="4.420121719178338"><ele>87.0</ele><time>2026-05-01T13:38:10.999Z</time></trkpt><trkpt lat="48.88356952531925" lon="4.420071778667583"><ele>87.0</ele><time>2026-05-01T13:38:11.999Z</time></trkpt><trkpt lat="48.883695074060476" lon="4.419984617919952"><ele>87.0</ele><time>2026-05-01T13:38:13.999Z</time></trkpt><trkpt lat="48.8837654584626" lon="4.419913700398607"><ele>86.66666666666667</ele><time>2026-05-01T13:38:14.999Z</time></trkpt><trkpt lat="48.883836764140106" lon="4.419881988320018"><ele>86.33333333333333</ele><time>2026-05-01T13:38:15.999Z</time></trkpt><trkpt lat="48.88390831554868" lon="4.419798987699757"><ele>86.0</ele><time>2026-05-01T13:38:16.999Z</time></trkpt><trkpt lat="48.883968135594124" lon="4.419710861839472"><ele>85.66666666666666</ele><time>2026-05-01T13:38:17.999Z</time></trkpt><trkpt lat="48.88403971440791" lon="4.419635750928199"><ele>85.33333333333333</ele><time>2026-05-01T13:38:18.999Z</time></trkpt><trkpt lat="48.88410428278545" lon="4.419557062690721"><ele>85.0</ele><time>2026-05-01T13:38:19.999Z</time></trkpt><trkpt lat="48.884159317753785" lon="4.419464765336086"><ele>85.0</ele><time>2026-05-01T13:38:20.999Z</time></trkpt><trkpt lat="48.88424285168" lon="4.419345777919067"><ele>85.0</ele><time>2026-05-01T13:38:22.999Z</time></trkpt><trkpt lat="48.88429997717721" lon="4.419299363907596"><ele>85.0</ele><time>2026-05-01T13:38:23.999Z</time></trkpt><trkpt lat="48.88440199624197" lon="4.419283309341732"><ele>85.0</ele><time>2026-05-01T13:38:25.999Z</time></trkpt><trkpt lat="48.88447574726529" lon="4.419310460767348"><ele>85.0</ele><time>2026-05-01T13:38:27.999Z</time></trkpt><trkpt lat="48.88453812305599" lon="4.4193890945172285"><ele>85.0</ele><time>2026-05-01T13:38:29.999Z</time></trkpt><trkpt lat="48.88458483975445" lon="4.419536032425975"><ele>85.0</ele><time>2026-05-01T13:38:31.998Z</time></trkpt><trkpt lat="48.88462804004709" lon="4.419632895170131"><ele>85.0</ele><time>2026-05-01T13:38:33.998Z</time></trkpt><trkpt lat="48.88470430002928" lon="4.4197142443291595"><ele>85.0</ele><time>2026-05-01T13:38:35.998Z</time></trkpt><trkpt lat="48.88480395282766" lon="4.419771095660762"><ele>85.0</ele><time>2026-05-01T13:38:37.998Z</time></trkpt><trkpt lat="48.88492138256971" lon="4.419800539481499"><ele>85.0</ele><time>2026-05-01T13:38:39.998Z</time></trkpt><trkpt lat="48.885023211511815" lon="4.419837320150494"><ele>84.75</ele><time>2026-05-01T13:38:41.998Z</time></trkpt><trkpt lat="48.88513749754454" lon="4.41986928219321"><ele>84.5</ele><time>2026-05-01T13:38:43.998Z</time></trkpt><trkpt lat="48.8852647915182" lon="4.419912383524625"><ele>84.25</ele><time>2026-05-01T13:38:45.998Z</time></trkpt><trkpt lat="48.88540240572015" lon="4.419962080875628"><ele>84.0</ele><time>2026-05-01T13:38:47.998Z</time></trkpt><trkpt lat="48.885468207759054" lon="4.419976929645951"><ele>84.0</ele><time>2026-05-01T13:38:48.998Z</time></trkpt><trkpt lat="48.885543112722516" lon="4.420005792157269"><ele>84.0</ele><time>2026-05-01T13:38:49.998Z</time></trkpt><trkpt lat="48.885605832683" lon="4.420023744155147"><ele>84.0</ele><time>2026-05-01T13:38:51Z</time></trkpt><trkpt lat="48.88567853824942" lon="4.420046610909247"><ele>84.0</ele><time>2026-05-01T13:38:52Z</time></trkpt><trkpt lat="48.88577895770187" lon="4.420077435644803"><ele>84.0</ele><time>2026-05-01T13:38:54Z</time></trkpt><trkpt lat="48.88590091529212" lon="4.4200982605487535"><ele>84.0</ele><time>2026-05-01T13:38:56Z</time></trkpt><trkpt lat="48.885970825243135" lon="4.420117421764748"><ele>83.83333333333333</ele><time>2026-05-01T13:38:57Z</time></trkpt><trkpt lat="48.88603342277286" lon="4.420145428887644"><ele>83.66666666666667</ele><time>2026-05-01T13:38:58Z</time></trkpt><trkpt lat="48.8860972161802" lon="4.420167290144806"><ele>83.5</ele><time>2026-05-01T13:38:59Z</time></trkpt><trkpt lat="48.886164045462046" lon="4.420192739007414"><ele>83.33333333333334</ele><time>2026-05-01T13:39:00Z</time></trkpt><trkpt lat="48.88623171504636" lon="4.420216822280323"><ele>83.16666666666667</ele><time>2026-05-01T13:39:01Z</time></trkpt><trkpt lat="48.88629489283431" lon="4.4202383773432565"><ele>83.0</ele><time>2026-05-01T13:39:02Z</time></trkpt><trkpt lat="48.88642664727792" lon="4.420284197106636"><ele>83.0</ele><time>2026-05-01T13:39:04Z</time></trkpt><trkpt lat="48.886505680932764" lon="4.420298769695511"><ele>83.0</ele><time>2026-05-01T13:39:05Z</time></trkpt><trkpt lat="48.88658647464554" lon="4.4203074623028655"><ele>83.0</ele><time>2026-05-01T13:39:06Z</time></trkpt><trkpt lat="48.88666374361002" lon="4.420311853835585"><ele>83.0</ele><time>2026-05-01T13:39:07Z</time></trkpt><trkpt lat="48.886727086481365" lon="4.420319578141729"><ele>83.0</ele><time>2026-05-01T13:39:08Z</time></trkpt><trkpt lat="48.88679681908009" lon="4.420329788508872"><ele>83.0</ele><time>2026-05-01T13:39:09Z</time></trkpt><trkpt lat="48.88686907121882" lon="4.420321126472193"><ele>83.0</ele><time>2026-05-01T13:39:10Z</time></trkpt><trkpt lat="48.88693467220296" lon="4.420320771393405"><ele>83.0</ele><time>2026-05-01T13:39:11Z</time></trkpt><trkpt lat="48.88700384186433" lon="4.4203364827861"><ele>83.0</ele><time>2026-05-01T13:39:12Z</time></trkpt><trkpt lat="48.8871284333139" lon="4.420372878571635"><ele>83.0</ele><time>2026-05-01T13:39:14Z</time></trkpt><trkpt lat="48.887189050468386" lon="4.420419849759853"><ele>83.0</ele><time>2026-05-01T13:39:15Z</time></trkpt><trkpt lat="48.88731198186737" lon="4.420473940418369"><ele>83.0</ele><time>2026-05-01T13:39:17Z</time></trkpt><trkpt lat="48.88743296388367" lon="4.420512277549772"><ele>83.0</ele><time>2026-05-01T13:39:19Z</time></trkpt><trkpt lat="48.887505274360805" lon="4.420533559827001"><ele>83.0</ele><time>2026-05-01T13:39:20Z</time></trkpt><trkpt lat="48.88757026796574" lon="4.420538359383447"><ele>83.0</ele><time>2026-05-01T13:39:21Z</time></trkpt><trkpt lat="48.88764359626305" lon="4.420560817572788"><ele>83.0</ele><time>2026-05-01T13:39:22Z</time></trkpt><trkpt lat="48.88771386787212" lon="4.420583936414776"><ele>83.0</ele><time>2026-05-01T13:39:23Z</time></trkpt><trkpt lat="48.88778549484133" lon="4.42059891356872"><ele>83.0</ele><time>2026-05-01T13:39:24Z</time></trkpt><trkpt lat="48.887862183627995" lon="4.4206298560129325"><ele>83.0</ele><time>2026-05-01T13:39:25Z</time></trkpt><trkpt lat="48.887943880089466" lon="4.420642537277319"><ele>83.0</ele><time>2026-05-01T13:39:26Z</time></trkpt><trkpt lat="48.88802281850249" lon="4.42068942131954"><ele>83.0</ele><time>2026-05-01T13:39:27Z</time></trkpt><trkpt lat="48.888129230476885" lon="4.4207169127916055"><ele>83.0</ele><time>2026-05-01T13:39:28Z</time></trkpt><trkpt lat="48.88821174792761" lon="4.420733058112411"><ele>83.0</ele><time>2026-05-01T13:39:29Z</time></trkpt><trkpt lat="48.88833728562205" lon="4.4207801296834415"><ele>83.0</ele><time>2026-05-01T13:39:31Z</time></trkpt><trkpt lat="48.8884515226289" lon="4.42081988174909"><ele>83.2</ele><time>2026-05-01T13:39:33Z</time></trkpt><trkpt lat="48.888540011235" lon="4.420848874313887"><ele>83.4</ele><time>2026-05-01T13:39:35Z</time></trkpt><trkpt lat="48.88853480572581" lon="4.420703036360362"><ele>83.60000000000001</ele><time>2026-05-01T13:39:37Z</time></trkpt><trkpt lat="48.88856809186283" lon="4.420552023651662"><ele>83.80000000000001</ele><time>2026-05-01T13:39:39Z</time></trkpt><trkpt lat="48.88856495484087" lon="4.420352644354545"><ele>84.0</ele><time>2026-05-01T13:39:41Z</time></trkpt><trkpt lat="48.888569862787115" lon="4.420219905831346"><ele>84.0</ele><time>2026-05-01T13:39:42Z</time></trkpt><trkpt lat="48.88856931688834" lon="4.420045343315486"><ele>84.0</ele><time>2026-05-01T13:39:43Z</time></trkpt><trkpt lat="48.8885679971311" lon="4.419854077853395"><ele>84.0</ele><time>2026-05-01T13:39:43.999Z</time></trkpt><trkpt lat="48.88857330618906" lon="4.419660016336456"><ele>84.0</ele><time>2026-05-01T13:39:44.999Z</time></trkpt><trkpt lat="48.888576639130534" lon="4.4194576263677785"><ele>84.0</ele><time>2026-05-01T13:39:45.999Z</time></trkpt><trkpt lat="48.88857900201662" lon="4.419268621305399"><ele>84.0</ele><time>2026-05-01T13:39:46.999Z</time></trkpt><trkpt lat="48.88857760125722" lon="4.4191027441240704"><ele>84.0</ele><time>2026-05-01T13:39:47.999Z</time></trkpt><trkpt lat="48.888576840113764" lon="4.4189047038084155"><ele>84.0</ele><time>2026-05-01T13:39:48.999Z</time></trkpt><trkpt lat="48.88856889727316" lon="4.418703861139925"><ele>83.4</ele><time>2026-05-01T13:39:49.999Z</time></trkpt><trkpt lat="48.88855503798177" lon="4.41853908046853"><ele>82.80000000000001</ele><time>2026-05-01T13:39:50.999Z</time></trkpt><trkpt lat="48.88854462288475" lon="4.418414760796739"><ele>82.19999999999999</ele><time>2026-05-01T13:39:51.999Z</time></trkpt><trkpt lat="48.88852851158491" lon="4.4182917391265235"><ele>81.6</ele><time>2026-05-01T13:39:52.999Z</time></trkpt><trkpt lat="48.88850711888421" lon="4.418147536864874"><ele>81.0</ele><time>2026-05-01T13:39:53.999Z</time></trkpt><trkpt lat="48.88849341563756" lon="4.418019085025383"><ele>81.19999999999999</ele><time>2026-05-01T13:39:54.999Z</time></trkpt><trkpt lat="48.88847519470748" lon="4.417880480360462"><ele>81.39999999999999</ele><time>2026-05-01T13:39:55.999Z</time></trkpt><trkpt lat="48.8884508418306" lon="4.4177331688703845"><ele>81.6</ele><time>2026-05-01T13:39:56.999Z</time></trkpt><trkpt lat="48.8884218402998" lon="4.417600362302842"><ele>81.8</ele><time>2026-05-01T13:39:57.999Z</time></trkpt><trkpt lat="48.88839013707734" lon="4.417445038343527"><ele>82.0</ele><time>2026-05-01T13:39:58.999Z</time></trkpt><trkpt lat="48.88836397346678" lon="4.417285034623368"><ele>82.19999999999999</ele><time>2026-05-01T13:39:59.999Z</time></trkpt><trkpt lat="48.88834594067412" lon="4.417143597447609"><ele>82.4</ele><time>2026-05-01T13:40:00.999Z</time></trkpt><trkpt lat="48.88832955347664" lon="4.417005696557971"><ele>82.6</ele><time>2026-05-01T13:40:01.999Z</time></trkpt><trkpt lat="48.888309611613074" lon="4.416851526793164"><ele>82.80000000000001</ele><time>2026-05-01T13:40:02.999Z</time></trkpt><trkpt lat="48.888298555299215" lon="4.41672932017074"><ele>83.0</ele><time>2026-05-01T13:40:03.999Z</time></trkpt><trkpt lat="48.88827559500812" lon="4.416558410557974"><ele>83.0</ele><time>2026-05-01T13:40:05.999Z</time></trkpt><trkpt lat="48.88827325625581" lon="4.416411607322664"><ele>83.0</ele><time>2026-05-01T13:40:07.999Z</time></trkpt><trkpt lat="48.88825719339224" lon="4.416244686539321"><ele>83.0</ele><time>2026-05-01T13:40:09.999Z</time></trkpt><trkpt lat="48.88824186546282" lon="4.416145248469629"><ele>83.0</ele><time>2026-05-01T13:40:10.999Z</time></trkpt><trkpt lat="48.88822363868995" lon="4.416052414776452"><ele>83.0</ele><time>2026-05-01T13:40:11.999Z</time></trkpt><trkpt lat="48.8881813702517" lon="4.415896831972469"><ele>83.0</ele><time>2026-05-01T13:40:13.999Z</time></trkpt><trkpt lat="48.88815471354246" lon="4.415744307227232"><ele>83.16666666666667</ele><time>2026-05-01T13:40:15.999Z</time></trkpt><trkpt lat="48.888171551424456" lon="4.41562963234674"><ele>83.33333333333334</ele><time>2026-05-01T13:40:17.999Z</time></trkpt><trkpt lat="48.88822266408741" lon="4.41548988745338"><ele>83.5</ele><time>2026-05-01T13:40:19.999Z</time></trkpt><trkpt lat="48.888245126091" lon="4.4153793781755795"><ele>83.66666666666667</ele><time>2026-05-01T13:40:21.999Z</time></trkpt><trkpt lat="48.88826955602947" lon="4.415302156697048"><ele>83.83333333333333</ele><time>2026-05-01T13:47:13.999Z</time></trkpt><trkpt lat="48.888353346346165" lon="4.415231088946299"><ele>84.0</ele><time>2026-05-01T13:47:15.999Z</time></trkpt><trkpt lat="48.888462886589735" lon="4.415198356619663"><ele>84.0</ele><time>2026-05-01T13:47:17.999Z</time></trkpt><trkpt lat="48.888539991428615" lon="4.415116783804357"><ele>84.0</ele><time>2026-05-01T13:47:19.999Z</time></trkpt><trkpt lat="48.88860437958501" lon="4.415096284151432"><ele>84.0</ele><time>2026-05-01T13:47:20.999Z</time></trkpt><trkpt lat="48.8887025157516" lon="4.41506709984375"><ele>84.0</ele><time>2026-05-01T13:47:22.999Z</time></trkpt><trkpt lat="48.88879044631479" lon="4.415051723965401"><ele>84.0</ele><time>2026-05-01T13:47:24.999Z</time></trkpt><trkpt lat="48.88889246260706" lon="4.414975961030264"><ele>84.0</ele><time>2026-05-01T13:47:26.999Z</time></trkpt><trkpt lat="48.889025986790365" lon="4.41487383377516"><ele>84.0</ele><time>2026-05-01T13:47:28.999Z</time></trkpt><trkpt lat="48.88909764779445" lon="4.414829954353091"><ele>84.0</ele><time>2026-05-01T13:47:29.999Z</time></trkpt><trkpt lat="48.88919946742402" lon="4.4147394647653435"><ele>84.0</ele><time>2026-05-01T13:47:31.999Z</time></trkpt><trkpt lat="48.88930736515956" lon="4.414648288463271"><ele>84.80000000000001</ele><time>2026-05-01T13:47:33.999Z</time></trkpt><trkpt lat="48.88944946884293" lon="4.4145745895458095"><ele>85.60000000000001</ele><time>2026-05-01T13:47:35.999Z</time></trkpt><trkpt lat="48.889506842532114" lon="4.414530147741976"><ele>86.4</ele><time>2026-05-01T13:47:36.999Z</time></trkpt><trkpt lat="48.88957214284333" lon="4.414496441206182"><ele>87.2</ele><time>2026-05-01T13:47:37.999Z</time></trkpt><trkpt lat="48.88970325546798" lon="4.414426667094854"><ele>88.0</ele><time>2026-05-01T13:47:39.999Z</time></trkpt><trkpt lat="48.88977175236016" lon="4.414409876265546"><ele>88.0</ele><time>2026-05-01T13:47:40.999Z</time></trkpt><trkpt lat="48.889878439904095" lon="4.414382406704951"><ele>88.0</ele><time>2026-05-01T13:47:42.999Z</time></trkpt><trkpt lat="48.8899461594692" lon="4.4143760930734475"><ele>88.0</ele><time>2026-05-01T13:47:43.999Z</time></trkpt><trkpt lat="48.89005305971024" lon="4.4143372322376555"><ele>88.0</ele><time>2026-05-01T13:47:45.999Z</time></trkpt><trkpt lat="48.89016523425643" lon="4.414286812251738"><ele>88.0</ele><time>2026-05-01T13:47:47.999Z</time></trkpt><trkpt lat="48.89026287792807" lon="4.414224804988261"><ele>87.0</ele><time>2026-05-01T13:47:49.999Z</time></trkpt><trkpt lat="48.89043524050124" lon="4.41423910796907"><ele>86.0</ele><time>2026-05-01T13:47:54.999Z</time></trkpt><trkpt lat="48.890474122157244" lon="4.41432436168301"><ele>85.0</ele><time>2026-05-01T13:47:56.999Z</time></trkpt><trkpt lat="48.89050873516399" lon="4.414461905179027"><ele>84.0</ele><time>2026-05-01T13:47:58.999Z</time></trkpt><trkpt lat="48.89052683338087" lon="4.414573560947802"><ele>83.0</ele><time>2026-05-01T13:48:00.999Z</time></trkpt><trkpt lat="48.89052117925786" lon="4.414709895890862"><ele>83.0</ele><time>2026-05-01T13:48:02.999Z</time></trkpt><trkpt lat="48.890571702934324" lon="4.414787086209458"><ele>83.0</ele><time>2026-05-01T13:48:04.999Z</time></trkpt><trkpt lat="48.8906340392154" lon="4.414814259541084"><ele>83.0</ele><time>2026-05-01T13:48:06.999Z</time></trkpt><trkpt lat="48.890711680363594" lon="4.414793484799967"><ele>83.0</ele><time>2026-05-01T13:48:08.999Z</time></trkpt><trkpt lat="48.890787361537456" lon="4.4147824709577455"><ele>83.0</ele><time>2026-05-01T13:48:10.999Z</time></trkpt><trkpt lat="48.89087951178331" lon="4.4147918048664785"><ele>83.0</ele><time>2026-05-01T13:48:13.999Z</time></trkpt><trkpt lat="48.89093225967427" lon="4.414679116289722"><ele>83.0</ele><time>2026-05-01T13:48:34.999Z</time></trkpt><trkpt lat="48.890921898606216" lon="4.4145633563753535"><ele>83.0</ele><time>2026-05-01T13:48:36.999Z</time></trkpt><trkpt lat="48.890968002084065" lon="4.414416794476364"><ele>83.0</ele><time>2026-05-01T13:48:39.999Z</time></trkpt><trkpt lat="48.891008484360285" lon="4.414337521410852"><ele>83.0</ele><time>2026-05-01T13:48:42.999Z</time></trkpt><trkpt lat="48.891060731178975" lon="4.414246274217694"><ele>83.0</ele><time>2026-05-01T13:48:45.999Z</time></trkpt><trkpt lat="48.891129636320294" lon="4.414189422630616"><ele>83.0</ele><time>2026-05-01T13:48:47.999Z</time></trkpt><trkpt lat="48.89119786435017" lon="4.414154301897675"><ele>82.83333333333334</ele><time>2026-05-01T13:48:49.999Z</time></trkpt><trkpt lat="48.89127415514852" lon="4.414051727591359"><ele>82.66666666666667</ele><time>2026-05-01T13:48:52.998Z</time></trkpt><trkpt lat="48.89131971643912" lon="4.413980425865871"><ele>82.5</ele><time>2026-05-01T13:48:54.998Z</time></trkpt><trkpt lat="48.891397407183966" lon="4.413924355614506"><ele>82.33333333333333</ele><time>2026-05-01T13:48:58Z</time></trkpt><trkpt lat="48.891453011459035" lon="4.413873224859893"><ele>82.16666666666666</ele><time>2026-05-01T13:49:00Z</time></trkpt><trkpt lat="48.891523311012676" lon="4.413835195476737"><ele>82.0</ele><time>2026-05-01T13:49:03Z</time></trkpt><trkpt lat="48.891578565520334" lon="4.413753756369617"><ele>82.33333333333333</ele><time>2026-05-01T13:49:06Z</time></trkpt><trkpt lat="48.89163609889002" lon="4.413676171947556"><ele>82.66666666666666</ele><time>2026-05-01T13:49:09Z</time></trkpt><trkpt lat="48.89167119892602" lon="4.413573609133237"><ele>83.0</ele><time>2026-05-01T13:49:12Z</time></trkpt><trkpt lat="48.891735478171945" lon="4.4134949876769705"><ele>83.33333333333333</ele><time>2026-05-01T13:49:15Z</time></trkpt><trkpt lat="48.89179916698487" lon="4.413494861837681"><ele>83.66666666666667</ele><time>2026-05-01T13:49:18Z</time></trkpt><trkpt lat="48.891875507828566" lon="4.413447123079186"><ele>84.0</ele><time>2026-05-01T13:49:22Z</time></trkpt><trkpt lat="48.891935816120146" lon="4.413390043232077"><ele>84.14285714285714</ele><time>2026-05-01T13:49:25Z</time></trkpt><trkpt lat="48.89202266111351" lon="4.413357748498941"><ele>84.28571428571428</ele><time>2026-05-01T13:49:29Z</time></trkpt><trkpt lat="48.892084130455366" lon="4.413321563216184"><ele>84.42857142857143</ele><time>2026-05-01T13:49:32Z</time></trkpt><trkpt lat="48.89214034818351" lon="4.413258541971377"><ele>84.57142857142857</ele><time>2026-05-01T13:49:34Z</time></trkpt><trkpt lat="48.892204645139294" lon="4.41325209827919"><ele>84.71428571428571</ele><time>2026-05-01T13:49:38Z</time></trkpt><trkpt lat="48.89223120375083" lon="4.413164084514309"><ele>84.85714285714286</ele><time>2026-05-01T13:49:50Z</time></trkpt><trkpt lat="48.892220254264394" lon="4.413058115188458"><ele>85.0</ele><time>2026-05-01T13:49:54Z</time></trkpt><trkpt lat="48.89227264846987" lon="4.412971720183175"><ele>85.5</ele><time>2026-05-01T13:49:57Z</time></trkpt><trkpt lat="48.89233086316478" lon="4.412934884031952"><ele>86.0</ele><time>2026-05-01T13:50:00Z</time></trkpt><trkpt lat="48.892393986798474" lon="4.41291589778132"><ele>86.5</ele><time>2026-05-01T13:50:02Z</time></trkpt><trkpt lat="48.892485793430524" lon="4.412897227205976"><ele>87.0</ele><time>2026-05-01T13:50:06Z</time></trkpt><trkpt lat="48.89256152598114" lon="4.412827874397989"><ele>87.5</ele><time>2026-05-01T13:50:08.999Z</time></trkpt><trkpt lat="48.89263085072746" lon="4.412781725799804"><ele>88.0</ele><time>2026-05-01T13:50:11.999Z</time></trkpt><trkpt lat="48.89272888129985" lon="4.412746744770516"><ele>88.0</ele><time>2026-05-01T13:50:13.999Z</time></trkpt><trkpt lat="48.89279023847695" lon="4.412721266754435"><ele>88.0</ele><time>2026-05-01T13:50:19.999Z</time></trkpt><trkpt lat="48.892858399211576" lon="4.412677909047841"><ele>88.0</ele><time>2026-05-01T13:50:32.999Z</time></trkpt><trkpt lat="48.89292817579328" lon="4.412644928220773"><ele>88.0</ele><time>2026-05-01T13:50:41.999Z</time></trkpt><trkpt lat="48.89301044844017" lon="4.412614921714341"><ele>88.0</ele><time>2026-05-01T13:50:45.999Z</time></trkpt><trkpt lat="48.89308077725074" lon="4.412600379416445"><ele>88.0</ele><time>2026-05-01T13:50:48.999Z</time></trkpt><trkpt lat="48.89319285880379" lon="4.4125668229149895"><ele>88.0</ele><time>2026-05-01T13:50:52.999Z</time></trkpt><trkpt lat="48.89326582317548" lon="4.412535384888237"><ele>88.0</ele><time>2026-05-01T13:50:55.999Z</time></trkpt><trkpt lat="48.89334754458658" lon="4.412496964900929"><ele>88.0</ele><time>2026-05-01T13:50:59.999Z</time></trkpt><trkpt lat="48.89353702914437" lon="4.412456139542484"><ele>88.0</ele><time>2026-05-01T13:51:18.001Z</time></trkpt><trkpt lat="48.89362282429155" lon="4.412450470645794"><ele>88.0</ele><time>2026-05-01T13:51:25Z</time></trkpt><trkpt lat="48.893774737951894" lon="4.412438768876511"><ele>87.80000000000001</ele><time>2026-05-01T13:51:31Z</time></trkpt><trkpt lat="48.893965847583445" lon="4.412435490678849"><ele>87.6</ele><time>2026-05-01T13:51:35Z</time></trkpt><trkpt lat="48.894047207594774" lon="4.4123961716296005"><ele>87.4</ele><time>2026-05-01T13:51:37Z</time></trkpt><trkpt lat="48.894097915713644" lon="4.412304297171683"><ele>87.19999999999999</ele><time>2026-05-01T13:51:40Z</time></trkpt><trkpt lat="48.89412433721369" lon="4.412215347082922"><ele>87.0</ele><time>2026-05-01T13:51:42Z</time></trkpt><trkpt lat="48.894190508069485" lon="4.41212600681363"><ele>87.0</ele><time>2026-05-01T13:51:45Z</time></trkpt><trkpt lat="48.894259083245814" lon="4.4120178881877585"><ele>87.0</ele><time>2026-05-01T13:51:48Z</time></trkpt><trkpt lat="48.89434294249008" lon="4.4119729551383555"><ele>87.0</ele><time>2026-05-01T13:51:58Z</time></trkpt><trkpt lat="48.89440248952803" lon="4.41190985692532"><ele>87.0</ele><time>2026-05-01T13:52:02Z</time></trkpt><trkpt lat="48.894477634607604" lon="4.411881728817537"><ele>87.0</ele><time>2026-05-01T13:52:04Z</time></trkpt><trkpt lat="48.89453012736698" lon="4.411828624453925"><ele>87.0</ele><time>2026-05-01T13:52:06Z</time></trkpt><trkpt lat="48.894601118366204" lon="4.411788776668279"><ele>87.0</ele><time>2026-05-01T13:52:10Z</time></trkpt><trkpt lat="48.894678186349935" lon="4.411770416908618"><ele>87.0</ele><time>2026-05-01T13:52:22.999Z</time></trkpt><trkpt lat="48.89473734481906" lon="4.411670841601641"><ele>87.0</ele><time>2026-05-01T13:52:26.999Z</time></trkpt><trkpt lat="48.89482517017765" lon="4.411592264844863"><ele>87.0</ele><time>2026-05-01T13:52:30.999Z</time></trkpt><trkpt lat="48.894913808220174" lon="4.411546837448864"><ele>87.0</ele><time>2026-05-01T13:52:32.999Z</time></trkpt><trkpt lat="48.89498201238699" lon="4.4114872004384305"><ele>87.0</ele><time>2026-05-01T13:52:35.999Z</time></trkpt><trkpt lat="48.89505203239988" lon="4.411440415723355"><ele>86.5</ele><time>2026-05-01T13:52:38.999Z</time></trkpt><trkpt lat="48.89512815357393" lon="4.411418122817441"><ele>86.0</ele><time>2026-05-01T13:52:41.999Z</time></trkpt><trkpt lat="48.895207369761074" lon="4.411450933493038"><ele>85.5</ele><time>2026-05-01T13:52:45.999Z</time></trkpt><trkpt lat="48.895217845108576" lon="4.411594790816036"><ele>85.0</ele><time>2026-05-01T13:52:48.999Z</time></trkpt><trkpt lat="48.89527680535938" lon="4.411672010070922"><ele>84.5</ele><time>2026-05-01T13:52:51.999Z</time></trkpt><trkpt lat="48.8953275863488" lon="4.411740496311184"><ele>84.0</ele><time>2026-05-01T13:52:54.999Z</time></trkpt><trkpt lat="48.89540326298949" lon="4.411702525282424"><ele>84.0</ele><time>2026-05-01T13:53:03.999Z</time></trkpt><trkpt lat="48.89548039944218" lon="4.411682583632519"><ele>84.0</ele><time>2026-05-01T13:53:05.999Z</time></trkpt><trkpt lat="48.895576233589146" lon="4.411608460528399"><ele>84.0</ele><time>2026-05-01T13:53:07.999Z</time></trkpt><trkpt lat="48.89563634358655" lon="4.411550026151164"><ele>84.0</ele><time>2026-05-01T13:53:10.001Z</time></trkpt><trkpt lat="48.8957094532219" lon="4.4114815804913246"><ele>84.0</ele><time>2026-05-01T13:53:11.001Z</time></trkpt><trkpt lat="48.89577756773807" lon="4.41143399889629"><ele>84.0</ele><time>2026-05-01T13:53:12.001Z</time></trkpt><trkpt lat="48.89584099239768" lon="4.411391713479456"><ele>84.0</ele><time>2026-05-01T13:53:13.001Z</time></trkpt><trkpt lat="48.89590620866659" lon="4.411356018132097"><ele>84.0</ele><time>2026-05-01T13:53:14.001Z</time></trkpt><trkpt lat="48.89602808353752" lon="4.411281834608515"><ele>84.0</ele><time>2026-05-01T13:53:16.001Z</time></trkpt><trkpt lat="48.8960973077762" lon="4.411228652655498"><ele>84.0</ele><time>2026-05-01T13:53:17.001Z</time></trkpt><trkpt lat="48.89618430459402" lon="4.411170501725764"><ele>84.0</ele><time>2026-05-01T13:53:19.001Z</time></trkpt><trkpt lat="48.896328613945784" lon="4.411087992939488"><ele>83.66666666666667</ele><time>2026-05-01T13:53:21.001Z</time></trkpt><trkpt lat="48.89642219436768" lon="4.411018880804177"><ele>83.33333333333333</ele><time>2026-05-01T13:53:23.001Z</time></trkpt><trkpt lat="48.89649028904187" lon="4.410979916968975"><ele>83.0</ele><time>2026-05-01T13:53:25.001Z</time></trkpt><trkpt lat="48.89655623249901" lon="4.4109381479706755"><ele>82.66666666666666</ele><time>2026-05-01T13:53:28.001Z</time></trkpt><trkpt lat="48.89662246457962" lon="4.410903929159753"><ele>82.33333333333333</ele><time>2026-05-01T13:53:31Z</time></trkpt><trkpt lat="48.896702127123305" lon="4.4108636859879775"><ele>82.0</ele><time>2026-05-01T13:53:33Z</time></trkpt><trkpt lat="48.896789824643534" lon="4.410775368480392"><ele>82.0</ele><time>2026-05-01T13:53:35Z</time></trkpt><trkpt lat="48.89687730837836" lon="4.410686143827031"><ele>82.0</ele><time>2026-05-01T13:53:37Z</time></trkpt><trkpt lat="48.89694148288006" lon="4.410627852679597"><ele>82.0</ele><time>2026-05-01T13:53:39Z</time></trkpt><trkpt lat="48.897004108532016" lon="4.410562825506794"><ele>82.0</ele><time>2026-05-01T13:53:42Z</time></trkpt><trkpt lat="48.897055059926814" lon="4.410481300042326"><ele>82.0</ele><time>2026-05-01T13:53:44Z</time></trkpt><trkpt lat="48.89713760603041" lon="4.41041225611528"><ele>82.0</ele><time>2026-05-01T13:53:46Z</time></trkpt><trkpt lat="48.897205887942405" lon="4.410337379736848"><ele>82.0</ele><time>2026-05-01T13:53:48Z</time></trkpt><trkpt lat="48.89726807529266" lon="4.410295296504254"><ele>82.0</ele><time>2026-05-01T13:53:50Z</time></trkpt><trkpt lat="48.89737565474833" lon="4.410180415366767"><ele>82.0</ele><time>2026-05-01T13:54:06Z</time></trkpt><trkpt lat="48.89743501217238" lon="4.410119404625467"><ele>82.0</ele><time>2026-05-01T13:54:07Z</time></trkpt><trkpt lat="48.89751244081247" lon="4.410049152219336"><ele>82.0</ele><time>2026-05-01T13:54:08Z</time></trkpt><trkpt lat="48.897618279712866" lon="4.40994676869741"><ele>82.39999999999999</ele><time>2026-05-01T13:54:09Z</time></trkpt><trkpt lat="48.89772307998261" lon="4.409851633986735"><ele>82.8</ele><time>2026-05-01T13:54:10Z</time></trkpt><trkpt lat="48.89781934777151" lon="4.409767746103712"><ele>83.2</ele><time>2026-05-01T13:54:11Z</time></trkpt><trkpt lat="48.89787686207953" lon="4.409699677617835"><ele>83.6</ele><time>2026-05-01T13:54:12Z</time></trkpt><trkpt lat="48.89793624364368" lon="4.409634231267204"><ele>84.0</ele><time>2026-05-01T13:54:13Z</time></trkpt><trkpt lat="48.89801142175552" lon="4.409549143752511"><ele>84.0</ele><time>2026-05-01T13:54:14Z</time></trkpt><trkpt lat="48.898093940921854" lon="4.409480761894347"><ele>84.0</ele><time>2026-05-01T13:54:15Z</time></trkpt><trkpt lat="48.898177530831326" lon="4.409408637330862"><ele>84.0</ele><time>2026-05-01T13:54:16Z</time></trkpt><trkpt lat="48.89824471775234" lon="4.409339247618833"><ele>84.0</ele><time>2026-05-01T13:54:17Z</time></trkpt><trkpt lat="48.898316207378265" lon="4.409245456771248"><ele>84.0</ele><time>2026-05-01T13:54:17.999Z</time></trkpt><trkpt lat="48.89837566980548" lon="4.409155888169815"><ele>84.0</ele><time>2026-05-01T13:54:18.999Z</time></trkpt><trkpt lat="48.8985016596432" lon="4.409012368456665"><ele>84.0</ele><time>2026-05-01T13:54:20.999Z</time></trkpt><trkpt lat="48.89859516546123" lon="4.408840797618817"><ele>84.0</ele><time>2026-05-01T13:54:21.999Z</time></trkpt><trkpt lat="48.89870144798862" lon="4.40869095996489"><ele>84.0</ele><time>2026-05-01T13:54:22.999Z</time></trkpt><trkpt lat="48.898795938756074" lon="4.408572798570673"><ele>84.0</ele><time>2026-05-01T13:54:23.999Z</time></trkpt><trkpt lat="48.89884570493589" lon="4.408482816246651"><ele>83.80000000000001</ele><time>2026-05-01T13:54:24.999Z</time></trkpt><trkpt lat="48.89892596203026" lon="4.4083857267637745"><ele>83.60000000000001</ele><time>2026-05-01T13:54:26.999Z</time></trkpt><trkpt lat="48.8990246251073" lon="4.4082707274453"><ele>83.4</ele><time>2026-05-01T13:54:28.999Z</time></trkpt><trkpt lat="48.89909059317095" lon="4.408189380119385"><ele>83.2</ele><time>2026-05-01T13:54:29.999Z</time></trkpt><trkpt lat="48.899143090744076" lon="4.408111374214329"><ele>83.0</ele><time>2026-05-01T13:54:30.999Z</time></trkpt><trkpt lat="48.89918919733084" lon="4.4080393311990695"><ele>82.83333333333334</ele><time>2026-05-01T13:54:31.999Z</time></trkpt><trkpt lat="48.899235478904195" lon="4.407945961967522"><ele>82.66666666666667</ele><time>2026-05-01T13:54:32.999Z</time></trkpt><trkpt lat="48.89929172791338" lon="4.4078791173193945"><ele>82.5</ele><time>2026-05-01T13:54:33.999Z</time></trkpt><trkpt lat="48.89933738584087" lon="4.407785099053949"><ele>82.33333333333333</ele><time>2026-05-01T13:54:34.999Z</time></trkpt><trkpt lat="48.89938801106605" lon="4.407683680214136"><ele>82.16666666666666</ele><time>2026-05-01T13:54:35.999Z</time></trkpt><trkpt lat="48.89942124673808" lon="4.407585411891278"><ele>82.0</ele><time>2026-05-01T13:54:36.999Z</time></trkpt><trkpt lat="48.899466185055005" lon="4.40748356544092"><ele>82.0</ele><time>2026-05-01T13:54:37.999Z</time></trkpt><trkpt lat="48.899528634611826" lon="4.4073546455332915"><ele>82.0</ele><time>2026-05-01T13:54:38.999Z</time></trkpt><trkpt lat="48.899604706126695" lon="4.407188385552321"><ele>82.0</ele><time>2026-05-01T13:54:39.999Z</time></trkpt><trkpt lat="48.89966134546588" lon="4.407057395346607"><ele>82.0</ele><time>2026-05-01T13:54:40.999Z</time></trkpt><trkpt lat="48.89970941692003" lon="4.406936727215017"><ele>82.0</ele><time>2026-05-01T13:54:41.999Z</time></trkpt><trkpt lat="48.89974855650057" lon="4.406838895462245"><ele>81.83333333333333</ele><time>2026-05-01T13:54:42.999Z</time></trkpt><trkpt lat="48.89979919534" lon="4.406752206252123"><ele>81.66666666666666</ele><time>2026-05-01T13:54:43.999Z</time></trkpt><trkpt lat="48.89983575753055" lon="4.406653470569149"><ele>81.5</ele><time>2026-05-01T13:54:44.999Z</time></trkpt><trkpt lat="48.899879694496775" lon="4.4065700689488105"><ele>81.33333333333333</ele><time>2026-05-01T13:54:45.999Z</time></trkpt><trkpt lat="48.89992447818235" lon="4.40645739738321"><ele>81.16666666666667</ele><time>2026-05-01T13:54:46.999Z</time></trkpt><trkpt lat="48.89997776623728" lon="4.406363170173899"><ele>81.0</ele><time>2026-05-01T13:54:47.999Z</time></trkpt><trkpt lat="48.9000254990759" lon="4.406300320458016"><ele>81.0</ele><time>2026-05-01T13:54:48.999Z</time></trkpt><trkpt lat="48.9000816705677" lon="4.406218154122085"><ele>81.0</ele><time>2026-05-01T13:54:49.999Z</time></trkpt><trkpt lat="48.90014261613044" lon="4.40612594731285"><ele>81.0</ele><time>2026-05-01T13:54:50.999Z</time></trkpt><trkpt lat="48.90019855595813" lon="4.406050718028385"><ele>81.0</ele><time>2026-05-01T13:54:51.999Z</time></trkpt><trkpt lat="48.90025460134362" lon="4.4059491985983295"><ele>81.0</ele><time>2026-05-01T13:54:52.999Z</time></trkpt><trkpt lat="48.900307478636826" lon="4.405856992805505"><ele>81.0</ele><time>2026-05-01T13:54:53.999Z</time></trkpt><trkpt lat="48.900362567141634" lon="4.405767774206068"><ele>81.0</ele><time>2026-05-01T13:54:54.999Z</time></trkpt><trkpt lat="48.900404303593014" lon="4.4056486893704605"><ele>81.0</ele><time>2026-05-01T13:54:55.999Z</time></trkpt><trkpt lat="48.900441122053536" lon="4.405532091698468"><ele>81.0</ele><time>2026-05-01T13:54:56.999Z</time></trkpt><trkpt lat="48.900513900867374" lon="4.405344759433078"><ele>81.0</ele><time>2026-05-01T13:54:57.999Z</time></trkpt><trkpt lat="48.900564122605275" lon="4.405215987513034"><ele>81.0</ele><time>2026-05-01T13:54:58.999Z</time></trkpt><trkpt lat="48.90060916395891" lon="4.405129857487551"><ele>81.16666666666667</ele><time>2026-05-01T13:54:59.999Z</time></trkpt><trkpt lat="48.90064417607345" lon="4.405026769256274"><ele>81.33333333333333</ele><time>2026-05-01T13:55:00.999Z</time></trkpt><trkpt lat="48.900685741208825" lon="4.404932012047144"><ele>81.5</ele><time>2026-05-01T13:55:01.999Z</time></trkpt><trkpt lat="48.90072451861673" lon="4.404832106838423"><ele>81.66666666666666</ele><time>2026-05-01T13:55:02.999Z</time></trkpt><trkpt lat="48.900770247566825" lon="4.4047271736348925"><ele>81.83333333333333</ele><time>2026-05-01T13:55:03.999Z</time></trkpt><trkpt lat="48.900823077175005" lon="4.404598124490994"><ele>82.0</ele><time>2026-05-01T13:55:04.999Z</time></trkpt><trkpt lat="48.900879103404044" lon="4.404453393613071"><ele>82.0</ele><time>2026-05-01T13:55:05.999Z</time></trkpt><trkpt lat="48.90094274798827" lon="4.404325490326877"><ele>82.0</ele><time>2026-05-01T13:55:06.999Z</time></trkpt><trkpt lat="48.90100457783986" lon="4.404200182373206"><ele>82.0</ele><time>2026-05-01T13:55:07.999Z</time></trkpt><trkpt lat="48.90105896551817" lon="4.404067435380439"><ele>82.0</ele><time>2026-05-01T13:55:08.999Z</time></trkpt><trkpt lat="48.90110328034305" lon="4.403941909528702"><ele>82.0</ele><time>2026-05-01T13:55:09.999Z</time></trkpt><trkpt lat="48.90113089971359" lon="4.40382800700792"><ele>82.0</ele><time>2026-05-01T13:55:10.999Z</time></trkpt><trkpt lat="48.90114718132813" lon="4.403704624448563"><ele>82.0</ele><time>2026-05-01T13:55:11.999Z</time></trkpt><trkpt lat="48.901137920280846" lon="4.403586601405455"><ele>82.0</ele><time>2026-05-01T13:55:12.999Z</time></trkpt><trkpt lat="48.901151163208034" lon="4.403461365807786"><ele>82.0</ele><time>2026-05-01T13:55:13.999Z</time></trkpt><trkpt lat="48.90118373997148" lon="4.40330213849354"><ele>82.0</ele><time>2026-05-01T13:55:14.999Z</time></trkpt><trkpt lat="48.901210326148046" lon="4.403128177346367"><ele>82.19999999999999</ele><time>2026-05-01T13:55:16.001Z</time></trkpt><trkpt lat="48.901227003582164" lon="4.402965151266332"><ele>82.4</ele><time>2026-05-01T13:55:17.001Z</time></trkpt><trkpt lat="48.90126325714824" lon="4.402813545407664"><ele>82.6</ele><time>2026-05-01T13:55:18.001Z</time></trkpt><trkpt lat="48.901285679104575" lon="4.402655420514117"><ele>82.80000000000001</ele><time>2026-05-01T13:55:19.001Z</time></trkpt><trkpt lat="48.90131696160461" lon="4.402515312236091"><ele>83.0</ele><time>2026-05-01T13:55:20.001Z</time></trkpt><trkpt lat="48.901365434709774" lon="4.40237233666828"><ele>83.0</ele><time>2026-05-01T13:55:21.001Z</time></trkpt><trkpt lat="48.90143559874988" lon="4.402220159821504"><ele>83.0</ele><time>2026-05-01T13:55:22.001Z</time></trkpt><trkpt lat="48.90151172150598" lon="4.402054140023693"><ele>83.0</ele><time>2026-05-01T13:55:23.001Z</time></trkpt><trkpt lat="48.90158126102966" lon="4.401883302317284"><ele>83.0</ele><time>2026-05-01T13:55:24.001Z</time></trkpt><trkpt lat="48.90163756410298" lon="4.401735110484081"><ele>83.2</ele><time>2026-05-01T13:55:25.001Z</time></trkpt><trkpt lat="48.901682321917924" lon="4.40159377048999"><ele>83.4</ele><time>2026-05-01T13:55:26.001Z</time></trkpt><trkpt lat="48.90173842565027" lon="4.401462431925106"><ele>83.60000000000001</ele><time>2026-05-01T13:55:27.001Z</time></trkpt><trkpt lat="48.901802285771126" lon="4.401354621263666"><ele>83.80000000000001</ele><time>2026-05-01T13:55:28Z</time></trkpt><trkpt lat="48.90185226582244" lon="4.401230614938357"><ele>84.0</ele><time>2026-05-01T13:55:29Z</time></trkpt><trkpt lat="48.90190999007235" lon="4.4010974438554085"><ele>84.0</ele><time>2026-05-01T13:55:30Z</time></trkpt><trkpt lat="48.9019554065182" lon="4.400964505994069"><ele>84.0</ele><time>2026-05-01T13:55:31Z</time></trkpt><trkpt lat="48.90200396693174" lon="4.400839971245404"><ele>84.0</ele><time>2026-05-01T13:55:32Z</time></trkpt><trkpt lat="48.90206796008912" lon="4.4006609379395805"><ele>84.0</ele><time>2026-05-01T13:55:33Z</time></trkpt><trkpt lat="48.90212628313751" lon="4.400534342610672"><ele>84.0</ele><time>2026-05-01T13:55:34Z</time></trkpt><trkpt lat="48.90219323251739" lon="4.400333139012835"><ele>84.2</ele><time>2026-05-01T13:55:35Z</time></trkpt><trkpt lat="48.90225455285315" lon="4.400163810975062"><ele>84.4</ele><time>2026-05-01T13:55:36Z</time></trkpt><trkpt lat="48.90230071047427" lon="4.400038616328845"><ele>84.6</ele><time>2026-05-01T13:55:37Z</time></trkpt><trkpt lat="48.902338459638926" lon="4.399923291388115"><ele>84.8</ele><time>2026-05-01T13:55:38Z</time></trkpt><trkpt lat="48.90237624709854" lon="4.399797070694303"><ele>85.0</ele><time>2026-05-01T13:55:39Z</time></trkpt><trkpt lat="48.90242347733548" lon="4.399684656569742"><ele>85.0</ele><time>2026-05-01T13:55:40Z</time></trkpt><trkpt lat="48.90246283074336" lon="4.39957294206428"><ele>85.0</ele><time>2026-05-01T13:55:41Z</time></trkpt><trkpt lat="48.90249080605161" lon="4.399474456863327"><ele>85.0</ele><time>2026-05-01T13:55:42Z</time></trkpt><trkpt lat="48.90254800997347" lon="4.399364381670613"><ele>85.0</ele><time>2026-05-01T13:55:44Z</time></trkpt><trkpt lat="48.90260720858956" lon="4.399229129762076"><ele>85.0</ele><time>2026-05-01T13:55:46Z</time></trkpt><trkpt lat="48.90263785530776" lon="4.399139429626658"><ele>85.0</ele><time>2026-05-01T13:55:47Z</time></trkpt><trkpt lat="48.90269927702516" lon="4.398981418682109"><ele>84.6</ele><time>2026-05-01T13:55:49Z</time></trkpt><trkpt lat="48.90273005134557" lon="4.39887264463574"><ele>84.2</ele><time>2026-05-01T13:55:50Z</time></trkpt><trkpt lat="48.90278614362921" lon="4.398749075362228"><ele>83.80000000000001</ele><time>2026-05-01T13:55:52Z</time></trkpt><trkpt lat="48.90284459036634" lon="4.398628551748043"><ele>83.4</ele><time>2026-05-01T13:55:54Z</time></trkpt><trkpt lat="48.9029275345099" lon="4.398496142686745"><ele>83.0</ele><time>2026-05-01T13:55:58Z</time></trkpt><trkpt lat="48.902953220007575" lon="4.398370314618145"><ele>83.0</ele><time>2026-05-01T13:56:01Z</time></trkpt><trkpt lat="48.9029544906759" lon="4.398271075939842"><ele>83.0</ele><time>2026-05-01T13:56:03Z</time></trkpt><trkpt lat="48.90289588900117" lon="4.398185516361978"><ele>83.0</ele><time>2026-05-01T13:56:07Z</time></trkpt><trkpt lat="48.90281115362794" lon="4.398099705028596"><ele>83.0</ele><time>2026-05-01T13:56:09Z</time></trkpt><trkpt lat="48.90274962588913" lon="4.398078889614187"><ele>83.0</ele><time>2026-05-01T13:56:11Z</time></trkpt><trkpt lat="48.902723627989936" lon="4.39799048077416"><ele>83.0</ele><time>2026-05-01T13:56:12Z</time></trkpt><trkpt lat="48.90234845886374" lon="4.397549054813119"><ele>84.0</ele><time>2026-05-01T13:56:13.999Z</time></trkpt><trkpt lat="48.902276123258396" lon="4.397454983952168"><ele>84.0</ele><time>2026-05-01T13:56:15.999Z</time></trkpt><trkpt lat="48.90222265493736" lon="4.397361885989075"><ele>84.0</ele><time>2026-05-01T13:56:22.999Z</time></trkpt><trkpt lat="48.90217932748444" lon="4.39727205013594"><ele>84.0</ele><time>2026-05-01T13:56:25.999Z</time></trkpt><trkpt lat="48.90211735084245" lon="4.397226213725797"><ele>84.0</ele><time>2026-05-01T13:56:44.999Z</time></trkpt><trkpt lat="48.902113521138254" lon="4.397129483268889"><ele>87.0</ele><time>2026-05-01T13:57:22Z</time></trkpt></trkseg></trk></gpx>